[[{"header":{"parameterUnit":"m.s-1","parameterCategory":1,"la1":30.6,"la2":29.2853,"lo1":-89.7004,"lo2":-87.6739,"dy":0.0162,"dx":0.0183,"nx":112,"ny":82,"refTime":"2023-09-08T06:00:00:Z","depth":0,"parameterNumber":2,"parameterNumberName":"U-component_of_WINDS"},"data":[0.0,0.0,0.0,0.0,0.0,0.0,0.0,0.0,0.0,0.0,0.0,0.0,0.0,0.0,0.0,0.0,0.0,0.0,0.0,0.0,0.0,0.0,0.0,0.0,0.0,0.0,0.0,0.0,0.0,0.0,0.0,0.0,0.0,0.0,0.0,0.0,0.0,0.0,0.0,0.0,0.0,0.0,0.0,0.0,0.0,0.0,0.0,0.0,0.0,0.0,0.0,0.0,0.0,0.0,0.0,0.0,0.0,0.0,0.0,0.0,0.0,0.0,0.0,0.0,0.0,0.0,0.0,0.0,0.0,0.0,0.0,0.0,0.0,0.0,0.0,0.0,0.0,0.0,0.0,0.0,0.0,0.0,0.0,0.0,0.0,0.0,0.0,0.0,0.0,0.0,-1.8798,-1.8957,-1.9678,-2.0157,-2.0323,-2.0323,-2.0323,-2.0323,0.0,0.0,0.0,0.0,0.0,0.0,0.0,0.0,0.0,0.0,0.0,0.0,0.0,0.0,0.0,0.0,0.0,0.0,0.0,0.0,0.0,0.0,0.0,0.0,0.0,0.0,0.0,0.0,0.0,0.0,0.0,0.0,0.0,0.0,0.0,0.0,0.0,0.0,0.0,0.0,0.0,0.0,0.0,0.0,0.0,0.0,0.0,0.0,0.0,0.0,0.0,0.0,0.0,0.0,0.0,0.0,0.0,0.0,0.0,0.0,0.0,0.0,0.0,0.0,0.0,0.0,0.0,0.0,0.0,0.0,0.0,0.0,0.0,0.0,0.0,0.0,0.0,0.0,0.0,0.0,0.0,0.0,0.0,0.0,0.0,0.0,0.0,0.0,0.0,0.0,0.0,0.0,0.0,0.0,0.0,0.0,0.0,0.0,0.0,0.0,0.0,0.0,0.0,0.0,-1.7908,-1.8877,-1.831,-1.8221,-1.9195,-1.9283,-1.9283,-1.9283,0.0,0.0,0.0,0.0,0.0,0.0,0.0,0.0,0.0,0.0,0.0,0.0,0.0,0.0,0.0,0.0,0.0,0.0,0.0,0.0,0.0,0.0,0.0,0.0,0.0,0.0,0.0,0.0,0.0,0.0,0.0,0.0,0.0,0.0,0.0,0.0,0.0,0.0,0.0,0.0,0.0,0.0,0.0,0.0,0.0,0.0,0.0,0.0,0.0,0.0,0.0,0.0,0.0,0.0,0.0,0.0,0.0,0.0,0.0,0.0,0.0,0.0,0.0,0.0,0.0,0.0,0.0,0.0,0.0,0.0,0.0,0.0,0.0,0.0,0.0,0.0,0.0,0.0,0.0,0.0,0.0,0.0,0.0,0.0,0.0,0.0,0.0,0.0,0.0,0.0,0.0,0.0,0.0,0.0,0.0,0.0,0.0,0.0,0.0,0.0,0.0,0.0,0.0,-1.6198,-1.6846,-1.7989,-1.7577,-1.7496,-1.806,-1.8069,-1.8069,-1.8069,-1.7338,0.0,0.0,0.0,0.0,0.0,0.0,0.0,0.0,0.0,0.0,0.0,0.0,0.0,0.0,0.0,0.0,0.0,0.0,0.0,0.0,0.0,0.0,0.0,0.0,0.0,0.0,0.0,0.0,0.0,0.0,0.0,0.0,0.0,0.0,0.0,0.0,0.0,0.0,0.0,0.0,0.0,0.0,0.0,0.0,0.0,0.0,0.0,0.0,0.0,0.0,0.0,0.0,0.0,0.0,0.0,0.0,0.0,0.0,0.0,0.0,0.0,0.0,0.0,0.0,0.0,0.0,0.0,0.0,0.0,0.0,0.0,0.0,0.0,0.0,0.0,0.0,0.0,0.0,0.0,0.0,0.0,0.0,0.0,0.0,0.0,0.0,0.0,0.0,0.0,0.0,0.0,0.0,0.0,0.0,0.0,0.0,0.0,0.0,0.0,0.0,0.0,0.0,-1.5951,-1.5703,-1.6846,-1.669,-1.6772,-1.7261,-1.709,-1.7009,-1.7261,-1.6519,0.0,0.0,0.0,0.0,0.0,0.0,0.0,0.0,0.0,0.0,0.0,0.0,0.0,0.0,0.0,0.0,0.0,0.0,0.0,0.0,0.0,0.0,0.0,0.0,0.0,0.0,0.0,0.0,0.0,0.0,0.0,0.0,0.0,0.0,0.0,0.0,0.0,0.0,0.0,0.0,0.0,0.0,0.0,0.0,0.0,0.0,0.0,0.0,0.0,0.0,0.0,0.0,0.0,0.0,0.0,0.0,0.0,0.0,0.0,0.0,0.0,0.0,0.0,0.0,0.0,0.0,0.0,0.0,0.0,0.0,0.0,0.0,0.0,0.0,0.0,0.0,0.0,0.0,0.0,0.0,0.0,0.0,0.0,0.0,0.0,0.0,0.0,0.0,0.0,0.0,0.0,0.0,0.0,0.0,0.0,0.0,0.0,0.0,0.0,0.0,0.0,0.0,-1.4894,-1.4657,-1.5703,-1.4894,-1.5151,-1.7098,-1.6355,-1.6273,-1.7261,-1.7253,0.0,0.0,0.0,0.0,0.0,0.0,0.0,0.0,0.0,0.0,0.0,0.0,0.0,0.0,0.0,0.0,0.0,0.0,0.0,0.0,0.0,0.0,0.0,0.0,0.0,0.0,0.0,0.0,0.0,0.0,0.0,0.0,0.0,0.0,0.0,0.0,0.0,0.0,0.0,0.0,0.0,0.0,0.0,0.0,0.0,0.0,0.0,0.0,0.0,0.0,0.0,0.0,0.0,0.0,0.0,0.0,0.0,0.0,0.0,0.0,0.0,0.0,0.0,0.0,0.0,0.0,0.0,0.0,0.0,0.0,0.0,0.0,0.0,0.0,0.0,0.0,0.0,0.0,0.0,0.0,0.0,0.0,0.0,0.0,0.0,0.0,0.0,0.0,0.0,0.0,0.0,0.0,0.0,0.0,0.0,0.0,0.0,0.0,0.0,0.0,0.0,0.0,-1.4334,-1.425,0.0,-1.4328,-1.4419,-1.5228,-1.4901,-1.4901,-1.5311,0.0,0.0,0.0,0.0,0.0,0.0,0.0,0.0,0.0,0.0,0.0,0.0,0.0,0.0,0.0,0.0,0.0,0.0,0.0,0.0,0.0,0.0,0.0,0.0,0.0,0.0,0.0,0.0,0.0,0.0,0.0,0.0,0.0,0.0,0.0,0.0,0.0,0.0,0.0,0.0,0.0,0.0,0.0,0.0,0.0,0.0,0.0,0.0,0.0,0.0,0.0,0.0,0.0,0.0,0.0,0.0,0.0,0.0,0.0,0.0,0.0,0.0,0.0,0.0,0.0,0.0,0.0,0.0,0.0,0.0,0.0,0.0,0.0,0.0,0.0,0.0,0.0,0.0,0.0,0.0,0.0,0.0,0.0,0.0,0.0,0.0,0.0,0.0,0.0,0.0,0.0,0.0,0.0,0.0,0.0,0.0,0.0,0.0,0.0,0.0,0.0,0.0,-1.4088,-1.4088,-1.4088,0.0,-1.4088,-1.425,-1.4573,-1.4334,-1.425,-1.4573,0.0,0.0,0.0,0.0,0.0,0.0,0.0,0.0,0.0,0.0,0.0,0.0,0.0,0.0,0.0,0.0,0.0,0.0,0.0,0.0,0.0,0.0,0.0,0.0,0.0,0.0,0.0,0.0,0.0,0.0,0.0,0.0,0.0,0.0,0.0,0.0,0.0,0.0,0.0,0.0,0.0,0.0,0.0,0.0,0.0,0.0,0.0,0.0,0.0,0.0,0.0,0.0,0.0,0.0,0.0,0.0,0.0,0.0,0.0,0.0,0.0,0.0,0.0,0.0,0.0,0.0,0.0,0.0,0.0,0.0,0.0,0.0,0.0,0.0,0.0,0.0,0.0,0.0,0.0,0.0,0.0,0.0,0.0,0.0,0.0,0.0,0.0,0.0,0.0,0.0,0.0,0.0,0.0,0.0,0.0,0.0,0.0,0.0,0.0,0.0,0.0,0.0,-1.4088,-1.4088,-1.4088,-1.4088,-1.4088,-1.4489,-1.5621,-1.4734,-1.4573,0.0,0.0,0.0,0.0,0.0,0.0,0.0,0.0,0.0,0.0,0.0,0.0,0.0,0.0,0.0,0.0,0.0,0.0,0.0,0.0,0.0,0.0,0.0,0.0,0.0,0.0,0.0,0.0,0.0,0.0,0.0,0.0,0.0,0.0,0.0,0.0,0.0,0.0,0.0,0.0,0.0,0.0,0.0,0.0,0.0,0.0,0.0,0.0,0.0,0.0,0.0,0.0,0.0,0.0,0.0,0.0,0.0,0.0,0.0,0.0,0.0,0.0,0.0,0.0,0.0,0.0,0.0,0.0,0.0,0.0,0.0,0.0,0.0,0.0,0.0,0.0,0.0,0.0,0.0,0.0,0.0,0.0,0.0,0.0,0.0,0.0,0.0,0.0,0.0,0.0,0.0,0.0,0.0,0.0,0.0,0.0,0.0,0.0,0.0,0.0,0.0,0.0,0.0,-1.4088,-1.4088,-1.4088,-1.4088,-1.4088,-1.425,-1.4573,-1.425,-1.425,-1.4573,0.0,0.0,0.0,0.0,0.0,0.0,0.0,0.0,0.0,0.0,0.0,0.0,0.0,0.0,0.0,0.0,0.0,0.0,0.0,0.0,0.0,0.0,0.0,0.0,0.0,0.0,0.0,0.0,0.0,0.0,0.0,0.0,0.0,0.0,0.0,0.0,0.0,0.0,0.0,0.0,0.0,0.0,0.0,0.0,0.0,0.0,0.0,0.0,0.0,0.0,0.0,0.0,0.0,0.0,0.0,0.0,0.0,0.0,0.0,0.0,0.0,0.0,0.0,0.0,0.0,0.0,0.0,0.0,0.0,0.0,0.0,0.0,0.0,0.0,0.0,0.0,0.0,0.0,0.0,0.0,0.0,0.0,0.0,0.0,0.0,0.0,0.0,0.0,0.0,0.0,0.0,0.0,0.0,0.0,0.0,0.0,0.0,0.0,0.0,0.0,0.0,0.0,-1.4088,-1.4088,-1.4088,-1.4088,-1.4088,-1.4088,-1.4088,-1.4088,-1.4088,-1.4088,0.0,0.0,0.0,0.0,0.0,0.0,0.0,0.0,0.0,0.0,0.0,0.0,0.0,0.0,0.0,0.0,0.0,0.0,0.0,0.0,0.0,0.0,0.0,0.0,0.0,0.0,0.0,0.0,0.0,0.0,0.0,0.0,0.0,0.0,0.0,0.0,0.0,0.0,0.0,0.0,0.0,0.0,0.0,0.0,0.0,0.0,0.0,0.0,0.0,0.0,0.0,0.0,0.0,0.0,0.0,0.0,0.0,0.0,0.0,0.0,0.0,0.0,0.0,0.0,0.0,0.0,0.0,0.0,0.0,0.0,0.0,0.0,0.0,0.0,0.0,0.0,0.0,0.0,0.0,0.0,0.0,0.0,0.0,0.0,0.0,0.0,0.0,0.0,0.0,0.0,0.0,0.0,0.0,0.0,0.0,0.0,0.0,0.0,0.0,0.0,0.0,0.0,-1.4088,-1.4088,-1.4088,-1.4088,-1.4088,-1.4088,-1.4088,-1.4166,-1.425,-1.425,0.0,0.0,0.0,0.0,0.0,0.0,0.0,0.0,0.0,0.0,0.0,0.0,0.0,0.0,0.0,0.0,0.0,0.0,0.0,0.0,0.0,0.0,0.0,0.0,0.0,0.0,0.0,0.0,0.0,0.0,0.0,0.0,0.0,0.0,0.0,0.0,0.0,0.0,0.0,0.0,0.0,0.0,0.0,0.0,0.0,0.0,0.0,0.0,0.0,0.0,0.0,0.0,0.0,0.0,0.0,0.0,0.0,0.0,0.0,0.0,-1.8065,0.0,0.0,0.0,0.0,0.0,0.0,0.0,0.0,0.0,0.0,0.0,0.0,0.0,0.0,0.0,0.0,0.0,0.0,0.0,0.0,0.0,0.0,0.0,0.0,0.0,0.0,0.0,0.0,0.0,0.0,0.0,0.0,0.0,0.0,0.0,0.0,0.0,0.0,0.0,0.0,0.0,-1.4088,-1.4088,-1.4088,-1.4088,-1.4088,-1.4088,-1.4088,-1.4894,-1.5379,-1.5379,-1.6116,0.0,0.0,0.0,0.0,0.0,0.0,0.0,0.0,0.0,0.0,0.0,0.0,0.0,0.0,0.0,0.0,0.0,0.0,0.0,0.0,0.0,0.0,0.0,0.0,0.0,0.0,0.0,0.0,0.0,0.0,0.0,0.0,0.0,0.0,0.0,0.0,0.0,0.0,0.0,0.0,0.0,0.0,0.0,0.0,0.0,0.0,0.0,0.0,0.0,0.0,0.0,0.0,0.0,0.0,0.0,0.0,0.0,0.0,0.0,0.0,-1.7577,0.0,0.0,0.0,0.0,0.0,0.0,0.0,0.0,0.0,0.0,0.0,0.0,0.0,0.0,0.0,0.0,0.0,0.0,0.0,0.0,0.0,0.0,0.0,0.0,0.0,0.0,0.0,0.0,0.0,0.0,0.0,0.0,0.0,0.0,0.0,0.0,0.0,0.0,0.0,0.0,-1.4088,-1.4088,-1.4088,-1.4088,-1.4088,-1.4088,-1.4088,-1.4566,-1.5137,-1.5703,-1.6191,0.0,0.0,0.0,0.0,0.0,0.0,0.0,0.0,0.0,0.0,0.0,0.0,0.0,0.0,0.0,0.0,0.0,0.0,0.0,0.0,0.0,0.0,0.0,0.0,0.0,0.0,0.0,0.0,0.0,0.0,0.0,0.0,0.0,0.0,0.0,0.0,0.0,0.0,0.0,0.0,0.0,0.0,0.0,0.0,0.0,0.0,0.0,0.0,0.0,0.0,0.0,0.0,0.0,-2.0566,-2.0566,-2.0566,-1.9678,-1.9766,-2.0489,-1.8709,-1.8789,-2.0079,-1.7398,0.0,0.0,0.0,0.0,0.0,0.0,0.0,0.0,0.0,0.0,0.0,0.0,0.0,0.0,0.0,0.0,0.0,0.0,0.0,0.0,0.0,0.0,0.0,0.0,-1.4088,-1.4088,-1.4088,0.0,0.0,0.0,0.0,0.0,0.0,0.0,0.0,0.0,0.0,0.0,-1.4088,-1.4088,-1.4088,-1.4088,-1.4088,-1.4166,-1.4328,-1.458,-1.5144,-1.6191,-1.6429,-1.6838,0.0,0.0,0.0,0.0,0.0,0.0,0.0,0.0,0.0,0.0,0.0,0.0,0.0,0.0,0.0,0.0,0.0,0.0,0.0,0.0,0.0,0.0,0.0,0.0,0.0,0.0,0.0,0.0,0.0,0.0,0.0,0.0,-2.04,-2.04,0.0,0.0,0.0,0.0,0.0,0.0,0.0,0.0,0.0,0.0,0.0,0.0,0.0,-2.0566,-2.0566,-2.0566,-2.0566,-2.0566,-2.0566,-2.0566,-2.0566,-2.0479,-2.0489,-2.0566,-2.0323,0.0,-1.9195,-1.8709,0.0,0.0,0.0,0.0,0.0,0.0,0.0,0.0,0.0,0.0,0.0,0.0,0.0,0.0,0.0,0.0,0.0,0.0,0.0,0.0,0.0,0.0,-1.4088,-1.4088,-1.4088,-1.4088,0.0,-1.4088,-1.4088,-1.4088,-1.4088,0.0,0.0,0.0,0.0,0.0,0.0,0.0,-1.4088,-1.4088,-1.4088,-1.4088,-1.4088,-1.4489,-1.5379,-1.6355,-1.7334,-1.847,-1.9432,-1.959,-1.8798,-1.8798,0.0,0.0,0.0,0.0,0.0,0.0,0.0,0.0,0.0,0.0,0.0,0.0,0.0,0.0,0.0,0.0,0.0,0.0,0.0,0.0,0.0,0.0,0.0,0.0,0.0,0.0,0.0,0.0,0.0,-1.952,-2.0401,-1.9756,-2.0235,-2.0566,0.0,0.0,0.0,0.0,0.0,0.0,0.0,0.0,0.0,-2.0566,-2.081,-2.0937,-2.0937,-2.1191,-2.1309,-2.1309,-2.1309,-2.1309,-2.1309,-2.1309,-2.1309,-2.1309,-2.1309,-2.1057,-2.0523,-1.9467,-1.847,-1.7496,0.0,0.0,0.0,0.0,-1.6601,-1.6764,-1.7908,-1.823,0.0,-1.7738,0.0,0.0,0.0,0.0,0.0,0.0,0.0,0.0,0.0,0.0,-1.4088,-1.4088,-1.4088,-1.4088,-1.4088,-1.4088,-1.4088,0.0,-1.4088,-1.4088,-1.4088,0.0,0.0,0.0,0.0,-1.4088,-1.4088,-1.4088,-1.4088,-1.4088,-1.4657,-1.522,-1.5703,-1.6683,-1.7827,-1.8957,-1.9441,-1.9766,-1.9923,-1.9362,-1.855,0.0,0.0,0.0,0.0,0.0,0.0,0.0,0.0,0.0,0.0,0.0,0.0,0.0,0.0,0.0,0.0,0.0,0.0,0.0,0.0,0.0,0.0,0.0,0.0,0.0,0.0,0.0,0.0,-1.959,-2.0323,-1.952,-2.0079,-2.0566,0.0,0.0,0.0,0.0,0.0,0.0,-2.0732,-2.085,-2.0898,-2.0898,-2.123,-2.1396,-2.1396,-2.1728,-2.1885,-2.1885,-2.1885,-2.1885,-2.1885,-2.1885,-2.1885,-2.1885,-2.1885,-2.1885,-2.1753,-2.0348,-1.9586,-1.9255,-1.8344,-1.7853,-1.7697,-1.7935,-1.8017,-1.8181,-1.9003,-1.9505,-1.9657,-1.8896,-1.8469,-1.7819,-1.6183,0.0,0.0,0.0,0.0,-1.4088,-1.4088,-1.4088,-1.4088,-1.4088,-1.4088,-1.4088,-1.4088,-1.4088,-1.4088,0.0,-1.4088,-1.4088,-1.4088,0.0,0.0,0.0,0.0,-1.4088,-1.4088,-1.4088,-1.4166,-1.4489,-1.522,-1.5944,-1.6519,-1.7253,-1.823,-1.9362,-1.9441,-1.9766,-2.0566,-1.9835,-1.9283,-1.9045,0.0,0.0,0.0,0.0,0.0,0.0,0.0,0.0,0.0,0.0,0.0,0.0,0.0,0.0,0.0,0.0,0.0,0.0,0.0,0.0,0.0,0.0,0.0,0.0,0.0,0.0,0.0,0.0,0.0,-2.0566,-2.0566,0.0,0.0,0.0,0.0,-2.0566,-2.0957,-2.1201,-2.1201,-2.1592,-2.1816,-2.1816,-2.1836,-2.1846,-2.1846,-2.1875,-2.1885,-2.1885,-2.1885,-2.1885,-2.1885,-2.1885,-2.1885,-2.1885,-2.1885,-2.1885,-2.1885,-2.1753,-2.1116,-2.0141,-2.0057,-1.9466,-1.87,-1.972,-2.0057,-2.0057,-1.9973,-2.0764,-2.1326,-1.8731,-1.6953,-1.5861,-1.5696,-1.4977,0.0,0.0,-1.4088,-1.4088,-1.4088,-1.4088,-1.4088,-1.4088,-1.4088,-1.4088,-1.4088,-1.4088,-1.4088,0.0,-1.4088,-1.4088,-1.4088,0.0,-1.4088,-1.4088,-1.4088,-1.4088,-1.4088,-1.4088,-1.4489,-1.5538,-1.5703,-1.6511,-1.8638,-1.8877,-1.9362,-2.0479,-2.0489,-2.0566,-2.0566,-2.0566,-2.0001,-1.9036,-1.8957,0.0,0.0,0.0,0.0,0.0,0.0,0.0,0.0,0.0,0.0,0.0,0.0,0.0,0.0,0.0,0.0,0.0,0.0,0.0,0.0,0.0,0.0,0.0,0.0,0.0,0.0,0.0,0.0,-1.9678,-2.0416,0.0,-2.0996,-2.125,-2.1416,-2.1416,-2.1562,-2.165,-2.165,-2.1807,-2.1885,-2.1885,-2.2148,-2.2295,-2.2295,-2.2559,-2.2695,-2.2695,-2.2695,-2.2695,-2.2695,-2.2695,-2.2695,-2.2695,-2.2695,-2.2695,-2.2695,-2.2695,-2.2109,-2.1265,-2.1265,-2.1099,-2.0755,-2.1182,-2.1265,-2.1265,-2.1265,-2.0996,-2.0373,-1.8608,-1.7282,-1.6245,-1.6245,-1.5489,-1.4649,-1.4649,-1.4649,-1.4649,-1.4649,-1.4649,-1.4649,-1.4649,-1.4649,-1.4649,-1.4649,-1.4649,-1.4649,-1.4649,-1.4349,-1.4088,-1.4088,-1.4088,-1.4088,-1.4088,-1.4088,-1.4088,-1.4088,-1.4734,-1.5296,-1.5703,-1.7001,-1.8141,-1.8957,-1.9599,-2.0157,-2.0566,-2.0566,-2.0566,-2.0566,-2.0566,-2.0401,-2.0001,-1.9362,-1.8798,0.0,0.0,0.0,0.0,0.0,0.0,0.0,0.0,0.0,0.0,0.0,0.0,0.0,0.0,0.0,0.0,0.0,0.0,0.0,0.0,0.0,0.0,0.0,0.0,0.0,0.0,-2.0767,-2.0028,-2.0857,-2.1455,-2.1455,-2.1719,-2.1885,-2.1885,-2.2021,-2.21,-2.21,-2.2236,-2.2305,-2.2305,-2.2725,-2.2939,-2.2939,-2.3359,-2.3564,-2.3564,-2.3564,-2.3564,-2.3564,-2.3564,-2.3564,-2.3564,-2.3564,-2.3564,-2.3564,-2.3564,-2.3154,-2.2519,-2.2363,-2.2305,-2.2305,-2.2305,-2.2305,-2.2305,-2.2305,-2.141,-2.0148,-1.9376,-1.8506,-1.7707,-1.7367,-1.6514,-1.5651,-1.6087,-1.5658,-1.5046,-1.5479,-1.5308,-1.4963,-1.4963,-1.4963,-1.4963,-1.4963,-1.4963,-1.4963,-1.4963,-1.4649,-1.4548,-1.4963,-1.4627,-1.472,-1.5461,-1.5298,-1.5092,-1.5401,-1.6042,-1.6562,-1.6772,-1.8141,-1.9125,-1.952,-2.0157,-2.0566,-2.0566,-2.0566,-2.0566,-2.0566,-2.0566,-2.0566,-2.0566,-1.952,-1.9036,-1.9036,0.0,0.0,0.0,0.0,0.0,0.0,0.0,0.0,0.0,0.0,0.0,0.0,0.0,0.0,0.0,0.0,0.0,0.0,0.0,0.0,0.0,0.0,0.0,-2.1238,-2.1621,-2.1885,-2.1885,-2.1894,-2.1904,-2.1904,-2.1924,-2.1924,-2.1924,-2.2305,-2.2539,-2.2549,-2.2939,-2.3164,-2.3184,-2.3584,-2.3809,-2.3809,-2.4209,-2.4414,-2.4414,-2.4414,-2.4414,-2.4414,-2.4414,-2.4414,-2.4414,-2.4414,-2.4414,-2.4414,-2.4414,-2.418,-2.3769,-2.333,-2.3154,-2.3135,-2.3135,-2.3135,-2.3047,-2.3047,-2.2051,-2.0734,-2.082,-2.0549,-1.9894,-1.8879,-1.7755,-1.7049,-1.8181,-1.6808,-1.5246,-1.6448,-1.5938,-1.499,-1.499,-1.499,-1.499,-1.499,-1.499,-1.499,-1.499,-1.508,-1.5418,-1.6507,-1.5732,-1.5835,-1.8156,-1.7462,0.0,-1.7861,-1.7979,-1.8252,-1.8949,-1.9054,-1.9441,-2.0508,-2.0576,-2.0566,-2.0566,-2.0566,-2.0566,-2.0566,-2.0566,-2.0566,-2.0557,-1.952,-1.9036,-1.8957,0.0,0.0,0.0,0.0,0.0,0.0,0.0,0.0,0.0,0.0,0.0,0.0,0.0,0.0,0.0,0.0,0.0,0.0,0.0,0.0,0.0,0.0,-2.1916,-2.0625,-2.1282,-2.1885,-2.1885,-2.2158,-2.2344,-2.2344,-2.2617,-2.2793,-2.2793,-2.29,-2.3105,-2.3418,-2.3555,-2.375,-2.4053,-2.418,-2.4248,-2.4248,-2.4355,-2.4414,-2.4414,-2.4414,-2.4414,-2.4414,-2.4414,-2.4414,-2.4414,-2.4414,-2.4414,-2.4414,-2.4414,-2.4346,-2.4199,-2.3779,-2.3418,-2.3135,-2.3135,-2.3135,-2.296,-2.212,-2.1496,-2.0962,-2.015,-1.9192,-1.8312,-1.8047,-1.704,-1.613,-1.6494,-1.6137,-1.5678,-1.5951,-1.5865,-1.5591,-1.5591,-1.5591,-1.5591,-1.5591,-1.5591,-1.5591,-1.5591,-1.633,-1.6634,-1.5645,-1.5225,-1.5225,-1.5917,-1.5747,0.0,-1.699,-1.7528,-1.8363,-1.9695,-2.0024,-2.038,-2.1025,-2.0752,-2.0566,-2.0566,-2.0566,-2.0566,-2.0566,-2.0566,-2.0235,-1.9441,-1.9923,-1.9353,0.0,0.0,0.0,0.0,0.0,0.0,0.0,0.0,0.0,0.0,0.0,0.0,0.0,0.0,0.0,0.0,0.0,0.0,0.0,0.0,0.0,0.0,-2.1796,-2.2418,-2.1532,-2.1959,-2.2412,-2.2412,-2.2627,-2.2773,-2.2773,-2.2998,-2.3213,-2.3398,-2.3408,-2.3603,-2.4033,-2.4053,-2.417,-2.4414,-2.459,-2.4687,-2.4687,-2.4873,-2.4971,-2.4971,-2.4971,-2.4971,-2.4971,-2.4971,-2.4971,-2.4971,-2.4971,-2.4971,-2.4971,-2.4971,-2.4853,0.0,0.0,0.0,0.0,0.0,-2.3301,-2.296,-2.2306,-2.2031,-2.1943,-2.1221,-2.0503,-1.996,-1.996,-1.9131,-1.8203,-1.8756,-1.8118,-1.7483,-1.7933,-1.7747,-1.7203,-1.6756,-1.6574,-1.648,-1.592,-1.5832,-1.5832,-1.5832,-1.6386,0.0,-1.6197,-1.6574,-1.7191,-1.8249,-1.7982,-1.8016,-1.909,-1.9495,-2.0003,-2.0577,-2.0723,-2.0879,-2.0947,-2.0713,0.0,0.0,0.0,-2.0566,-2.0566,-2.0566,0.0,0.0,0.0,-1.952,-1.8709,0.0,0.0,0.0,-1.7245,-1.6034,0.0,0.0,0.0,0.0,0.0,0.0,0.0,0.0,0.0,0.0,0.0,0.0,0.0,0.0,0.0,0.0,-2.2403,-2.3135,-2.3135,-2.3135,-2.3135,-2.3135,-2.3135,-2.3154,-2.3213,-2.3213,-2.3389,-2.3828,-2.3857,-2.4043,-2.4463,0.0,0.0,0.0,0.0,-2.5146,-2.5146,-2.5537,-2.5742,-2.5742,-2.5742,-2.5742,-2.5742,-2.5742,-2.5742,-2.5742,-2.5742,-2.5742,-2.5742,-2.5742,-2.5508,-2.5098,-2.4609,-2.4414,-2.4375,-2.4004,-2.3613,-2.3281,-2.3223,0.0,0.0,-2.3154,-2.3047,-2.2862,-2.2862,-2.2031,-2.1302,-2.2403,-2.1132,-1.9761,-2.0845,-2.0305,-1.9222,-1.8141,-1.787,-1.7591,-1.6473,-1.6197,-1.6197,-1.6197,-1.6285,-1.6749,-1.787,-1.8772,-2.0042,-2.2315,-2.1756,-2.1353,-2.2274,-2.2359,-2.2049,-2.1374,0.0,0.0,-2.0674,-2.0596,-2.0566,-2.0566,-2.0566,-2.0566,-2.0566,-2.0566,-2.0566,-2.0566,-1.9687,-1.9678,-2.0566,-1.9599,-1.952,-2.0157,-1.7479,-1.5703,0.0,0.0,0.0,0.0,0.0,0.0,0.0,0.0,0.0,0.0,0.0,0.0,0.0,0.0,0.0,-2.2775,-2.296,-2.3135,-2.3135,-2.3135,-2.3135,-2.3135,-2.3135,-2.3271,-2.3633,-2.3662,-2.3838,-2.4258,-2.4297,-2.4482,-2.4922,-2.4941,-2.5107,-2.5469,-2.5566,-2.5605,-2.5605,-2.5693,-2.5742,-2.5742,0.0,0.0,-2.5742,-2.5742,-2.5742,-2.5742,-2.5742,-2.5742,-2.5742,-2.5742,-2.5684,-2.5527,-2.4727,-2.4414,-2.4404,-2.4326,-2.4248,-2.4121,-2.3779,-2.3662,-2.3603,-2.3252,-2.2403,-2.1667,-2.1667,-2.0845,0.0,-2.0133,-1.9861,-1.9579,-1.9761,-1.967,-1.9405,-1.9222,-1.9131,-1.9039,-1.8856,-1.8764,-1.8764,-1.8764,-1.9571,-2.0305,-2.0602,-1.9147,-1.8503,-1.9951,-2.0034,-2.0279,-2.138,-2.1273,-2.137,-2.2191,-2.165,-2.1201,-2.1113,-2.0771,-2.0566,-2.0566,-2.0566,-2.0566,-2.0566,-2.0566,-2.0566,-2.0566,-2.0401,-2.0401,-2.0566,-2.0401,-1.952,-1.798,-1.9107,-1.9107,0.0,0.0,0.0,0.0,0.0,0.0,0.0,0.0,0.0,0.0,0.0,-2.2765,0.0,0.0,-2.3135,-2.3135,-2.332,-2.3467,-2.3467,-2.3643,-2.3701,-2.3486,-2.3467,-2.3633,-2.4062,-2.4102,-2.4287,-2.4717,-2.4746,-2.4941,-2.5381,-2.54,-2.5605,-2.6055,-2.6064,-2.6162,-2.6377,-2.6377,-2.6377,-2.6377,-2.6377,-2.6377,-2.6377,-2.6377,-2.6377,-2.6377,-2.6377,-2.626,-2.6045,-2.583,-2.5742,-2.5693,-2.5254,-2.4941,-2.4746,-2.4746,-2.4609,-2.4385,-2.418,-2.4102,-2.4062,-2.3848,-2.3166,-2.2528,-2.2528,-2.1931,-2.1311,-2.1311,-2.1311,-2.1311,-2.1311,-2.1311,-2.1132,-2.0576,-2.0395,-2.0215,-1.967,-1.9497,-1.9497,-1.9497,-1.9943,-2.0576,-2.1221,-2.0314,-1.9951,-2.1132,-2.1311,-2.1498,-2.2129,-2.2039,-2.1939,-2.2162,-2.1816,-2.1377,-2.0937,-2.0693,-2.0566,-2.0566,-2.0566,-2.0566,-2.0566,-2.0566,-2.0566,-2.0566,-2.0566,-2.0566,-2.0566,-2.0566,-2.0001,-1.8948,-2.0079,-1.9107,0.0,0.0,0.0,0.0,0.0,0.0,0.0,0.0,-2.1382,-2.1569,-2.2403,-2.2803,-2.1946,-2.2615,-2.3291,-2.3369,-2.3682,-2.3906,-2.3906,-2.4209,-2.4316,-2.4072,-2.3965,-2.4072,-2.4502,-2.4541,-2.4727,-2.5166,-2.5195,-2.5391,-2.584,-2.5859,-2.6064,-2.6494,-2.6514,-2.667,-2.7012,-2.7012,-2.7012,-2.7012,-2.7012,-2.7012,-2.7012,-2.7012,-2.7012,-2.7012,-2.7012,-2.6826,-2.6475,-2.6045,-2.5859,-2.5859,-2.5771,-2.5518,-2.5195,-2.5195,-2.498,-2.4658,-2.457,-2.4541,-2.4531,-2.4443,-2.4189,-2.3906,-2.3906,-2.3662,-2.3369,-2.3291,-2.3262,-2.3242,-2.3164,-2.3135,-2.2862,-2.1845,-2.1658,-2.1391,-2.0395,-2.0223,-2.0223,-2.0223,-2.0223,-2.0494,-2.148,-2.1658,-2.1943,-2.296,-2.3135,-2.3135,-2.3135,-2.3135,-2.2812,-2.1982,-2.1885,-2.1533,-2.0635,-2.0566,-2.0566,-2.0566,-2.0566,-2.0566,-2.0566,-2.0566,-2.0566,-2.0566,-2.0566,-2.0566,-2.0566,-2.0566,-2.0479,-2.0323,-2.0489,-1.87,-1.9314,-2.0215,0.0,-2.1114,-2.1203,-2.1569,0.0,0.0,-2.1569,-2.2677,-2.3047,-2.3164,-2.3454,-2.3621,-2.3838,-2.4219,-2.4316,-2.4346,-2.4346,-2.4385,-2.4541,-2.4883,-2.459,-2.4521,-2.4951,-2.5,-2.5185,-2.5635,-2.5664,-2.585,-2.6299,-2.6318,-2.6504,-2.6934,-2.6943,-2.6973,-2.7012,-2.7012,-2.7012,-2.7012,-2.7012,-2.7012,-2.7012,-2.7012,-2.7012,-2.7012,-2.7012,-2.6982,-2.6914,-2.6484,-2.6318,-2.6279,-2.5889,-2.5713,-2.5664,-2.5664,-2.5635,-2.5527,-2.5137,-2.5,-2.4932,-2.4541,-2.4385,-2.4346,-2.4346,-2.4316,-2.4199,-2.3818,-2.3721,-2.3633,-2.3242,-2.3135,-2.3057,-2.296,-2.2862,-2.2862,-2.2687,-2.2687,-2.2687,-2.2687,-2.2687,-2.2775,-2.2862,-2.2862,-2.295,-2.3047,-2.3135,-2.3135,-2.3135,-2.3135,-2.2812,-2.1982,-2.1885,-2.1533,-2.0635,-2.0566,-2.0566,-2.0566,-2.0566,-2.0566,-2.0566,-2.0566,-2.0566,-2.0566,-2.0566,-2.0566,-2.0566,-2.0566,-2.0079,-1.9204,-2.0157,-2.0323,-2.1587,0.0,0.0,0.0,-2.2306,-2.2492,-2.296,-2.2677,-2.2492,-2.296,-2.334,-2.3574,-2.375,-2.3984,-2.4209,0.0,-2.4629,-2.4795,-2.4795,-2.5019,-2.5254,-2.5439,-2.5303,-2.5254,-2.5439,-2.5459,-2.5644,-2.6084,-2.6113,-2.6299,-2.6728,-2.6758,-2.6953,-2.7383,-2.7393,-2.751,-2.7754,-2.7764,-2.7764,-2.7764,-2.7764,-2.7764,-2.7764,-2.7764,-2.7764,-2.7744,-2.75,-2.7393,-2.7363,-2.6924,-2.6758,-2.6709,-2.6289,-2.6113,-2.6084,-2.583,-2.5742,-2.5713,-2.5527,-2.5459,-2.543,-2.5244,-2.501,-2.4795,-2.4795,-2.4619,-2.4385,-2.4209,-2.415,-2.4053,-2.3633,-2.3516,-2.3457,-2.3193,-2.3135,-2.3135,-2.3135,-2.3135,-2.3135,-2.3135,-2.3135,-2.3135,-2.3135,-2.3135,-2.3135,-2.3135,-2.3135,-2.3135,-2.3135,-2.3135,-2.2812,-2.1982,-2.1426,-2.0967,-2.0596,-2.0566,-2.0566,-2.0566,-2.0566,-2.0566,-2.0566,-2.0566,-2.0566,-2.0566,-2.0566,-2.0566,-2.0566,-2.0566,-2.0401,-1.9923,-2.0401,-2.0566,-2.3047,0.0,0.0,-2.2862,-2.3135,-2.3135,-2.3135,-2.3232,-2.332,-2.332,-2.3662,-2.4004,-2.4121,-2.4394,-2.4639,-2.4766,-2.5049,-2.5254,-2.5254,-2.5527,-2.5742,-2.5742,-2.5742,-2.5742,-2.5742,-2.585,-2.6045,-2.6367,-2.6494,-2.6748,-2.7168,-2.7197,-2.7393,-2.7822,-2.7842,-2.7988,-2.8291,-2.8291,-2.8291,-2.8291,-2.8291,-2.8291,-2.8291,-2.8291,-2.8291,-2.8271,-2.7969,-2.7842,-2.7803,-2.7373,-2.7197,-2.7148,-2.6728,-2.6562,-2.6504,-2.6074,-2.584,-2.5742,-2.5742,-2.5742,-2.5742,-2.5742,-2.5518,-2.5254,-2.5254,-2.5029,-2.4756,-2.4629,-2.459,-2.4502,-2.4072,-2.3965,-2.3857,-2.3418,-2.332,-2.3291,-2.3164,-2.3135,-2.3135,-2.3135,-2.3135,-2.3135,-2.3135,-2.3135,-2.3135,-2.3135,-2.3135,-2.3135,-2.3135,-2.2939,-2.2559,-2.1953,-2.1094,-2.0566,-2.0566,-2.0566,-2.0566,-2.0566,-2.0566,-2.0566,-2.0566,-2.0566,-2.0566,-2.0566,-2.0566,-2.0566,-2.0566,-2.0566,-2.0566,-2.0566,-2.0566,-2.0566,0.0,0.0,-2.3047,-2.3047,-2.3135,-2.3135,-2.3135,-2.3467,-2.3769,-2.3769,-2.4102,-2.4531,-2.4951,-2.5039,-2.5195,-2.5625,-2.5713,-2.5713,-2.5713,-2.5723,-2.5742,-2.5742,-2.5742,-2.5742,0.0,-2.6123,-2.6377,-2.6387,-2.6768,-2.7187,-2.7627,-2.7646,-2.7832,-2.8262,-2.8271,-2.8281,-2.8291,-2.8291,-2.8291,-2.8291,-2.8291,-2.8291,-2.8291,-2.8291,-2.8291,-2.8291,-2.8281,-2.8271,-2.8242,-2.7822,-2.7646,-2.7598,-2.7168,-2.6992,-2.6943,-2.6523,-2.6103,-2.5742,-2.5742,-2.5742,-2.5742,-2.5742,-2.5723,-2.5713,-2.5713,-2.5713,-2.5605,-2.5176,-2.5049,-2.4951,-2.4512,-2.4394,-2.4287,-2.3867,-2.3769,-2.3652,-2.3232,-2.3135,-2.3135,-2.3135,-2.3135,-2.3135,-2.3135,-2.3135,-2.3135,-2.3135,-2.3135,-2.3135,-2.3135,-2.2432,-2.1914,-2.1885,-2.1094,-2.0566,-2.0566,-2.0566,-2.0566,-2.0566,-2.0566,-2.0566,-2.0566,-2.0566,-2.0566,-2.0566,-2.0566,-2.0566,-2.0566,-2.0566,-2.0566,-2.0566,-2.0566,-2.0566,0.0,0.0,-2.3135,-2.3135,-2.3135,-2.3135,-2.3135,-2.3477,-2.3789,-2.3789,-2.4355,-2.4893,-2.5039,-2.5312,-2.5557,-2.5713,-2.5742,-2.5742,-2.5742,-2.5742,-2.5742,-2.5742,-2.5742,0.0,0.0,0.0,0.0,-2.6787,-2.7197,-2.7637,-2.8057,-2.8086,-2.8144,-2.8291,-2.8291,-2.8291,-2.8291,-2.8291,-2.8291,-2.8291,-2.8291,-2.8291,-2.8291,-2.8291,-2.8291,-2.8291,-2.8291,-2.8291,-2.8281,-2.8135,-2.8086,-2.8047,-2.7617,-2.7441,-2.7393,-2.6963,-2.6533,-2.6133,-2.584,-2.5742,-2.5742,-2.5742,-2.5742,-2.5742,-2.5742,-2.5742,-2.5703,-2.5557,-2.5518,-2.541,-2.4961,-2.4844,-2.4736,-2.4307,-2.3994,-2.375,-2.3603,-2.335,-2.3135,-2.3135,-2.3135,-2.3135,-2.3135,-2.3135,-2.3135,-2.3135,-2.3135,-2.3135,-2.3135,-2.2646,-2.2197,-2.1914,-2.1357,-2.0889,-2.0596,-2.0566,-2.0566,-2.0566,-2.0566,-2.0566,-2.0566,-2.0566,-2.0566,-2.0566,-2.0566,-2.0566,-2.0566,-2.0566,-2.0566,-2.0566,-2.0566,-2.0566,-2.3135,-2.3135,-2.3135,-2.3135,-2.3135,-2.3184,-2.333,-2.3701,-2.4062,-2.4209,-2.4814,-2.5303,-2.5303,-2.5547,-2.5742,-2.5742,-2.5742,-2.5742,-2.5742,-2.5742,-2.5742,-2.5742,-2.5742,-2.5801,0.0,0.0,0.0,-2.6992,-2.7559,-2.8008,-2.8281,-2.8291,-2.8291,-2.8291,-2.8291,-2.8291,-2.8291,-2.8291,-2.8291,-2.8291,-2.8291,-2.8291,-2.8291,-2.8291,-2.8291,-2.8291,-2.8291,-2.8291,-2.8291,-2.8291,-2.8291,-2.8262,-2.7998,-2.7891,-2.7832,-2.7412,-2.708,-2.6758,-2.6172,-2.5869,-2.5742,-2.5742,-2.5742,-2.5742,-2.5742,-2.5742,-2.5742,-2.5742,-2.5742,-2.5674,-2.5381,-2.5303,-2.5195,-2.4756,-2.4443,-2.4199,-2.4043,-2.3672,-2.3369,-2.3369,-2.3242,-2.3135,-2.3135,-2.3135,-2.3135,-2.3135,-2.3135,-2.3135,-2.3135,-2.2773,-2.2412,-2.2139,-2.1728,-2.1289,-2.084,-2.0801,-2.0732,-2.0576,-2.0566,-2.0566,-2.0566,-2.0566,-2.0566,-2.0566,-2.0566,-2.0566,-2.0566,-2.0566,-2.0566,-2.0566,-2.0566,-2.0566,-2.3135,-2.3135,-2.3135,-2.3135,-2.3135,-2.3252,-2.3691,-2.4111,-2.4541,-2.498,-2.543,-2.5742,0.0,0.0,-2.5742,-2.5742,-2.5742,-2.5742,-2.5742,-2.5742,-2.5742,0.0,0.0,0.0,0.0,0.0,0.0,-2.7041,0.0,-2.8291,-2.8291,-2.8291,-2.8291,-2.8291,-2.8291,-2.8291,-2.8291,-2.8291,-2.8291,-2.8291,-2.8291,-2.8291,-2.8291,-2.8291,-2.8291,-2.8291,-2.8291,-2.8291,-2.8291,-2.8291,-2.8291,-2.8291,-2.8291,-2.8291,-2.8242,-2.7842,-2.7685,-2.7549,-2.6738,-2.6162,-2.5762,-2.5742,-2.5742,-2.5742,-2.5742,-2.5742,-2.5742,-2.5742,-2.5742,-2.5742,-2.5742,-2.5742,-2.5635,-2.5205,-2.5088,-2.4951,-2.4541,-2.4121,-2.3818,-2.3799,-2.3437,-2.3135,-2.3135,-2.3135,-2.3135,-2.3135,-2.3135,-2.3135,-2.3135,-2.2793,-2.2539,-2.251,-2.2158,-2.1738,-2.1309,-2.125,-2.1055,-2.0625,-2.0576,-2.0566,-2.0566,-2.0566,-2.0566,-2.0566,-2.0566,-2.0566,-2.0566,-2.0566,-2.0566,-2.0566,-2.0566,-2.0566,-2.3135,-2.3135,-2.3135,-2.3135,-2.3135,-2.3252,-2.3691,-2.4111,-2.4541,-2.498,-2.543,-2.5742,0.0,0.0,0.0,-2.5742,-2.5742,0.0,-2.5742,-2.5742,0.0,0.0,0.0,-2.5908,-2.6348,-2.6768,0.0,0.0,-2.7998,-2.8291,-2.8291,-2.8291,-2.8291,-2.8291,-2.8291,-2.8291,-2.8291,-2.8291,-2.8291,-2.8291,-2.8291,-2.8291,-2.8291,-2.8291,-2.8291,-2.8291,-2.8291,-2.8291,-2.8291,-2.8291,-2.8291,-2.8291,-2.8291,-2.8291,-2.8281,-2.8174,-2.7939,-2.7637,-2.7422,-2.6855,-2.6172,-2.584,-2.5742,-2.5742,-2.5742,-2.5742,-2.5742,-2.5742,-2.5742,-2.5742,-2.5742,-2.5742,-2.5713,-2.5596,-2.5312,-2.5039,-2.4922,-2.456,-2.417,-2.3857,-2.3437,-2.3135,-2.3135,-2.3135,-2.3135,-2.3135,-2.3135,-2.3135,-2.3135,-2.3047,-2.2861,-2.2549,-2.2412,-2.2178,-2.1758,-2.1426,-2.1182,-2.1074,-2.0752,-2.0566,-2.0566,-2.0566,-2.0566,-2.0566,-2.0566,-2.0566,-2.0566,-2.0566,-2.0566,-2.0566,-2.0566,-2.0566,-2.3135,-2.3135,-2.3135,-2.3135,-2.3135,-2.3301,-2.3926,-2.4248,-2.46,-2.5234,-2.5566,0.0,0.0,0.0,0.0,0.0,0.0,0.0,-2.5742,-2.5742,-2.5742,0.0,-2.5742,0.0,-2.6348,-2.6768,-2.7197,0.0,-2.8057,-2.8291,-2.8291,-2.8291,-2.8291,-2.8291,-2.8291,-2.8291,-2.8291,-2.8291,-2.8291,-2.8291,-2.8291,-2.8291,-2.8291,-2.8291,-2.8291,-2.8291,0.0,-2.8291,-2.8291,-2.8291,-2.8291,-2.8291,-2.8291,-2.8291,-2.8291,-2.8291,-2.8144,-2.792,-2.7725,-2.7353,-2.6846,-2.623,-2.5889,-2.5742,-2.5742,-2.5742,-2.5742,-2.5742,-2.5742,-2.5742,-2.5742,-2.5742,-2.5742,-2.5742,-2.5547,-2.5361,-2.5361,-2.501,-2.457,-2.415,-2.3721,-2.3428,-2.3428,-2.3262,-2.3135,-2.3135,-2.3135,-2.3135,-2.3135,-2.3135,-2.3047,-2.2812,-2.2783,-2.2617,-2.2197,-2.1934,-2.1641,-2.126,-2.0996,-2.0771,-2.0576,-2.0566,-2.0566,-2.0566,-2.0566,-2.0566,-2.0566,-2.0566,-2.0566,-2.0566,-2.0566,-2.0566,-2.3135,-2.3135,-2.3135,-2.3135,-2.3135,-2.3369,-2.4219,-2.4414,-2.4668,-2.5557,0.0,-2.5742,-2.5742,0.0,-2.5742,-2.5742,0.0,-2.5742,-2.5742,-2.5742,-2.5742,-2.5742,-2.5742,-2.5908,-2.6348,-2.6768,-2.7197,-2.7627,-2.8057,-2.8291,-2.8291,-2.8291,-2.8291,-2.8291,-2.8291,-2.8291,-2.8291,-2.8291,-2.8291,-2.8291,-2.8291,-2.8291,-2.8291,-2.8291,-2.8291,-2.8291,-2.8291,0.0,-2.8291,-2.8291,-2.8291,-2.8291,-2.8291,-2.8291,-2.8291,-2.8291,-2.8291,-2.8242,-2.7881,-2.7715,-2.7529,-2.667,-2.6133,-2.581,-2.5752,-2.5742,-2.5742,-2.5742,-2.5742,-2.5742,-2.5742,-2.5742,-2.5742,-2.5742,-2.5742,-2.5742,-2.5742,-2.5381,-2.4951,-2.458,-2.416,-2.3857,-2.3799,-2.3477,-2.3203,-2.3144,-2.3135,-2.3135,-2.3135,-2.3135,-2.3135,-2.3135,-2.3135,-2.2988,-2.2627,-2.2549,-2.2197,-2.1445,-2.1299,-2.1064,-2.0674,-2.0596,-2.0566,-2.0566,-2.0566,-2.0566,-2.0566,-2.0566,-2.0566,-2.0566,-2.0566,-2.0566,-2.3135,-2.3135,-2.3135,-2.3135,-2.3135,-2.3369,-2.4219,-2.4414,0.0,0.0,0.0,-2.5742,-2.5742,-2.5742,0.0,-2.5742,0.0,0.0,0.0,0.0,-2.5742,0.0,0.0,0.0,0.0,0.0,0.0,0.0,0.0,-2.8291,-2.8291,-2.8291,-2.8291,-2.8291,-2.8291,-2.8291,-2.8291,-2.8291,-2.8291,-2.8291,-2.8291,-2.8291,-2.8291,-2.8291,-2.8291,-2.8291,-2.8291,0.0,-2.8291,-2.8291,-2.8291,-2.8291,-2.8291,-2.8291,-2.8291,-2.8291,-2.8291,-2.8281,-2.8203,-2.7959,-2.7529,-2.667,-2.6338,-2.6211,-2.585,-2.5742,-2.5742,-2.5742,-2.5742,-2.5742,-2.5742,-2.5742,-2.5742,-2.5742,-2.5742,-2.5742,-2.5742,-2.5381,-2.5049,-2.4971,-2.46,-2.4199,-2.3857,-2.3721,-2.3555,-2.3193,-2.3135,-2.3135,-2.3135,-2.3135,-2.3135,-2.3135,-2.3135,-2.3105,-2.3037,-2.2715,-2.2451,-2.2295,-2.1621,-2.1201,-2.1123,-2.0762,-2.0566,-2.0566,-2.0566,-2.0566,-2.0566,-2.0566,-2.0566,-2.0566,-2.0566,-2.0566,-2.3135,-2.3135,-2.3135,-2.3135,-2.3135,-2.3369,-2.4219,0.0,0.0,0.0,0.0,-2.5742,-2.5742,0.0,0.0,0.0,0.0,0.0,0.0,0.0,0.0,0.0,0.0,0.0,0.0,0.0,0.0,0.0,0.0,-2.8291,-2.8291,-2.8291,-2.8291,-2.8291,-2.8291,-2.8291,-2.8291,-2.8291,-2.8291,-2.8291,-2.8291,-2.8291,-2.8291,-2.8291,-2.8291,-2.8291,-2.8291,0.0,-2.8291,-2.8291,-2.8291,-2.8291,-2.8291,-2.8291,-2.8291,-2.8291,-2.8291,-2.8291,-2.8291,-2.8164,-2.7851,-2.6992,-2.6562,-2.6309,-2.5869,-2.5742,-2.5742,-2.5742,-2.5742,-2.5742,-2.5742,-2.5742,-2.5742,-2.5742,-2.5742,-2.5742,-2.5742,-2.5566,-2.541,-2.541,-2.5059,-2.4687,-2.4492,-2.4082,-2.3721,-2.3516,-2.3291,-2.3135,-2.3135,-2.3135,-2.3135,-2.3135,-2.3135,-2.3135,-2.3135,-2.2959,-2.2744,-2.2519,-2.2129,-2.1797,-2.1582,-2.1143,-2.0908,-2.0908,-2.0684,-2.0566,-2.0566,-2.0566,-2.0566,-2.0566,-2.0566,-2.0566,-2.3135,-2.3135,-2.3135,-2.3135,-2.3135,-2.334,-2.4102,-2.4355,0.0,0.0,-2.5674,-2.5742,-2.5742,0.0,0.0,0.0,0.0,0.0,0.0,0.0,0.0,0.0,0.0,0.0,0.0,0.0,0.0,0.0,0.0,0.0,-2.8291,-2.8291,-2.8291,-2.8291,-2.8291,-2.8291,-2.8291,-2.8291,-2.8291,-2.8291,-2.8291,-2.8291,-2.8291,-2.8291,-2.8291,-2.8291,-2.8291,0.0,0.0,-2.8291,-2.8291,-2.8291,-2.8291,-2.8291,-2.8291,-2.8291,-2.8291,-2.8291,-2.8291,-2.8291,-2.8154,-2.7295,-2.6797,-2.6426,-2.5898,-2.5742,-2.5742,-2.5742,-2.5742,-2.5742,-2.5742,-2.5742,-2.5742,-2.5742,-2.5742,-2.5742,-2.5742,-2.5742,-2.5742,-2.5742,-2.5449,-2.5176,-2.5088,-2.4512,-2.4004,-2.3818,-2.3496,-2.3242,-2.3154,-2.3135,-2.3135,-2.3135,-2.3135,-2.3135,-2.3135,-2.3135,-2.2998,-2.2666,-2.2568,-2.2363,-2.2031,-2.1602,-2.1377,-2.1377,-2.0937,-2.0713,-2.0713,-2.0605,-2.0566,-2.0566,-2.0566,-2.0566,-2.3135,-2.3135,-2.3135,-2.3135,-2.3135,-2.3262,-2.374,0.0,0.0,-2.5029,-2.5449,-2.5742,-2.5742,-2.5742,0.0,0.0,0.0,0.0,0.0,0.0,0.0,0.0,0.0,0.0,0.0,0.0,0.0,0.0,0.0,0.0,-2.8291,-2.8291,-2.8291,-2.8291,-2.8291,-2.8291,-2.8291,-2.8291,-2.8291,-2.8291,-2.8291,-2.8291,-2.8291,-2.8291,-2.8291,-2.8291,-2.8291,0.0,0.0,-2.8291,-2.8291,-2.8291,-2.8291,-2.8291,-2.8291,-2.8291,-2.8291,-2.8291,-2.8291,-2.8291,-2.8154,-2.7295,-2.6982,-2.6807,-2.5986,-2.5742,-2.5742,-2.5742,-2.5742,-2.5742,-2.5742,-2.5742,-2.5742,-2.5742,-2.5742,-2.5742,-2.5742,-2.5742,-2.5742,-2.5742,-2.5703,-2.5547,-2.5137,-2.5,-2.4687,-2.3906,-2.375,-2.3584,-2.3193,-2.3135,-2.3135,-2.3135,-2.3135,-2.3135,-2.3135,-2.3135,-2.3125,-2.3086,-2.2725,-2.249,-2.2461,-2.2051,-2.1826,-2.1826,-2.1396,-2.1172,-2.1172,-2.0762,-2.0566,-2.0566,-2.0566,-2.0566,-2.3135,-2.3135,-2.3135,-2.3135,-2.3135,-2.3252,-2.3691,0.0,0.0,-2.459,-2.5029,-2.5332,-2.5332,-2.5557,-2.5742,0.0,0.0,0.0,0.0,0.0,0.0,0.0,0.0,0.0,0.0,0.0,0.0,0.0,0.0,0.0,-2.8291,-2.8291,-2.8291,-2.8291,-2.8291,-2.8291,-2.8291,-2.8291,-2.8291,-2.8291,-2.8291,-2.8291,-2.8291,-2.8291,-2.8291,-2.8291,-2.8291,0.0,0.0,-2.8291,-2.8291,-2.8291,-2.8291,-2.8291,-2.8291,-2.8291,-2.8291,-2.8291,-2.8291,-2.8125,-2.7822,-2.7217,-2.6846,-2.6523,-2.5918,-2.5742,-2.5742,-2.5742,-2.5742,-2.5742,-2.5742,-2.5742,-2.5742,-2.5742,-2.5742,-2.5742,-2.5742,-2.5742,-2.5742,-2.5742,-2.5742,-2.5684,-2.5508,-2.5244,-2.4863,-2.4258,-2.3955,-2.3633,-2.3193,-2.3135,-2.3135,-2.3135,-2.3135,-2.3135,-2.3135,-2.3135,-2.3135,-2.3135,-2.2978,-2.2891,-2.2891,-2.248,-2.2266,-2.2266,-2.1846,-2.1621,-2.1621,-2.1445,-2.1357,-2.1357,-2.1094,-2.0967,-2.3135,-2.3135,-2.3135,-2.3135,-2.3135,-2.3223,0.0,0.0,0.0,-2.417,-2.457,-2.4912,-2.5039,-2.5322,-2.5586,-2.5713,0.0,0.0,0.0,0.0,0.0,0.0,0.0,0.0,0.0,0.0,0.0,0.0,0.0,0.0,-2.8291,-2.8291,-2.8291,-2.8291,-2.8291,-2.8291,-2.8291,-2.8291,-2.8291,-2.8291,-2.8291,-2.8291,-2.8291,-2.8291,-2.8291,-2.8291,-2.8291,0.0,0.0,-2.8291,-2.8291,-2.8291,-2.8291,-2.8291,-2.8291,-2.8291,-2.8291,-2.8291,-2.8291,-2.8018,-2.7598,-2.7158,-2.6728,-2.6309,-2.5869,-2.5742,-2.5742,-2.5742,-2.5742,-2.5742,-2.5742,-2.5742,-2.5742,-2.5742,-2.5742,-2.5742,-2.5742,-2.5742,-2.5742,-2.5742,-2.5742,-2.5742,-2.5742,-2.5478,-2.5117,-2.4678,-2.4248,-2.3818,-2.3389,-2.3213,-2.3135,-2.3135,-2.3135,-2.3135,-2.3135,-2.3135,-2.3135,-2.3135,-2.3135,-2.3135,-2.3135,-2.2852,-2.2705,-2.2705,-2.2285,-2.207,-2.207,-2.1953,-2.1885,-2.1875,-2.1572,-2.1426,-2.3135,-2.3135,-2.3135,-2.3135,-2.3135,-2.3135,0.0,0.0,-2.3789,-2.3799,-2.4131,-2.4551,-2.499,-2.5068,-2.5215,-2.5664,-2.5742,0.0,0.0,0.0,0.0,0.0,0.0,0.0,0.0,0.0,0.0,0.0,0.0,0.0,-2.8291,-2.8291,-2.8291,-2.8291,-2.8291,-2.8291,-2.8291,-2.8291,-2.8291,-2.8291,-2.8291,-2.8291,-2.8291,-2.8291,-2.8291,0.0,0.0,0.0,0.0,-2.8291,-2.8291,-2.8291,-2.8291,-2.8291,-2.8291,-2.8291,-2.8291,-2.8291,-2.8291,-2.8018,-2.7598,-2.7158,-2.6728,-2.6309,-2.5869,-2.5742,-2.5742,-2.5742,-2.5742,-2.5742,-2.5742,-2.5742,-2.5742,-2.5742,-2.5742,-2.5742,-2.5742,-2.5742,-2.5742,-2.5742,-2.5742,-2.5742,-2.5742,-2.5732,-2.5576,-2.5127,-2.4687,-2.4258,-2.3838,-2.3408,-2.3135,-2.3135,-2.3135,-2.3135,-2.3135,-2.3135,-2.3135,-2.3135,-2.3135,-2.3135,-2.3135,-2.3135,-2.3135,-2.3135,-2.2715,-2.251,-2.251,-2.209,-2.1885,-2.1885,-2.1875,-2.1875,-2.3057,-2.3135,-2.3135,-2.3135,-2.3135,-2.3135,-2.3135,0.0,-2.335,-2.335,-2.3682,-2.4033,-2.417,-2.4434,-2.4766,-2.5215,-2.5283,0.0,0.0,0.0,0.0,0.0,0.0,0.0,0.0,0.0,0.0,0.0,0.0,0.0,-2.8291,-2.8291,-2.8291,-2.8291,-2.8291,-2.8291,-2.8291,-2.8291,-2.8291,-2.8291,-2.8291,-2.8291,-2.8291,-2.8291,-2.8291,0.0,0.0,0.0,0.0,-2.8291,-2.8291,-2.8291,-2.8291,-2.8291,-2.8291,-2.8291,-2.8291,-2.8252,-2.7969,-2.7588,-2.7148,-2.6728,-2.6299,-2.5918,-2.5781,-2.5742,-2.5742,-2.5742,-2.5742,-2.5742,-2.5742,-2.5742,-2.5742,-2.5742,-2.5742,-2.5742,-2.5742,-2.5742,-2.5742,-2.5742,-2.5742,-2.5742,-2.5742,-2.5742,-2.5586,-2.5137,-2.4697,-2.4258,-2.3838,-2.3408,-2.3135,-2.3135,-2.3135,-2.3135,-2.3135,-2.3135,-2.3135,-2.3135,-2.3135,-2.3135,-2.3135,-2.3135,-2.3135,-2.3135,-2.3008,-2.2939,-2.2939,-2.2812,-2.2598,-2.2314,-2.2314,-2.2158,0.0,-2.3135,-2.3135,-2.3135,-2.3135,0.0,0.0,0.0,-2.3135,-2.3135,-2.3359,-2.3594,-2.376,-2.4004,-2.4326,-2.4756,-2.4961,0.0,0.0,0.0,0.0,0.0,0.0,0.0,0.0,0.0,0.0,0.0,0.0,0.0,-2.8281,-2.8291,-2.8291,-2.8291,-2.8291,-2.8291,-2.8291,-2.8291,-2.8291,-2.8291,-2.8291,-2.8291,-2.8291,-2.8291,-2.8291,0.0,0.0,0.0,0.0,-2.8291,-2.8291,-2.8291,-2.8291,-2.8291,-2.8291,-2.8291,-2.8193,-2.8018,-2.7754,-2.7275,-2.6738,-2.6475,-2.6094,-2.5742,-2.5742,-2.5742,-2.5742,-2.5742,-2.5742,-2.5742,-2.5742,-2.5742,-2.5742,-2.5742,-2.5742,-2.5742,-2.5742,-2.5742,-2.5742,-2.5742,-2.5742,-2.5742,-2.5742,-2.5742,-2.5644,-2.5361,-2.4805,-2.4316,-2.4062,-2.3506,-2.3135,-2.3135,-2.3135,-2.3135,-2.3135,-2.3135,-2.3135,-2.3135,-2.3135,-2.3135,-2.3135,-2.3135,-2.3135,-2.3135,-2.3135,-2.3135,-2.3135,-2.3135,-2.2998,-2.2754,-2.2754,-2.2607,0.0,0.0,0.0,0.0,0.0,0.0,0.0,0.0,0.0,-2.3135,-2.3135,-2.3262,-2.3672,-2.374,-2.3877,-2.4307,0.0,0.0,0.0,0.0,0.0,0.0,0.0,0.0,0.0,0.0,0.0,0.0,0.0,0.0,-2.8232,-2.8271,-2.8291,-2.8291,-2.8291,-2.8291,-2.8291,-2.8291,-2.8291,-2.8291,-2.8291,-2.8291,-2.8291,-2.8291,-2.8291,0.0,0.0,0.0,0.0,-2.8291,-2.8291,-2.8291,-2.8291,-2.8271,-2.8252,-2.8252,-2.7978,-2.7617,-2.7588,-2.706,-2.6387,-2.6357,-2.6074,-2.5742,-2.5742,-2.5742,-2.5742,-2.5742,-2.5742,-2.5742,-2.5742,-2.5742,-2.5742,-2.5742,-2.5742,-2.5742,-2.5742,-2.5742,-2.5742,-2.5742,-2.5742,-2.5742,-2.5742,-2.5742,-2.5742,-2.5742,-2.498,-2.4414,-2.4414,-2.3672,-2.3135,-2.3135,-2.3135,-2.3135,-2.3135,-2.3135,-2.3135,-2.3135,-2.3135,-2.3135,-2.3135,-2.3135,-2.3135,-2.3135,-2.3135,-2.3135,-2.3135,-2.3135,-2.3135,-2.3135,-2.3135,-2.3135,-2.2432,0.0,-2.3135,-2.3135,-2.3135,0.0,0.0,0.0,0.0,0.0,0.0,0.0,0.0,0.0,0.0,0.0,0.0,0.0,0.0,0.0,0.0,0.0,0.0,0.0,0.0,0.0,0.0,0.0,0.0,-2.7715,-2.7812,-2.8115,-2.8291,-2.8291,-2.8291,-2.8291,-2.8291,-2.8291,-2.8291,-2.8291,-2.8291,-2.8291,-2.8291,-2.8291,-2.8291,0.0,0.0,0.0,-2.8291,-2.8291,-2.8291,-2.8291,-2.8291,-2.8096,-2.7812,-2.7812,-2.7539,-2.7119,-2.6797,-2.6553,-2.6338,-2.5996,-2.582,-2.5742,-2.5742,-2.5742,-2.5742,-2.5742,-2.5742,-2.5742,-2.5742,-2.5742,-2.5742,-2.5742,-2.5742,-2.5742,-2.5742,-2.5742,-2.5742,-2.5742,-2.5742,-2.5742,-2.5742,-2.5742,-2.5742,-2.5742,-2.498,-2.4414,-2.4414,-2.3672,-2.3135,-2.3135,-2.3135,-2.3135,-2.3135,-2.3135,-2.3135,-2.3135,-2.3135,-2.3135,-2.3135,-2.3135,-2.3135,-2.3135,-2.3135,-2.3135,-2.3135,-2.3135,-2.3135,-2.3135,-2.3135,-2.3135,-2.1797,-2.2383,-2.29,-2.3096,-2.3135,-2.3135,0.0,0.0,0.0,0.0,0.0,0.0,0.0,0.0,0.0,0.0,0.0,0.0,0.0,0.0,0.0,0.0,0.0,0.0,0.0,0.0,0.0,0.0,0.0,-2.7256,-2.7646,-2.7881,-2.8096,-2.8281,-2.8291,-2.8291,-2.8291,-2.8291,-2.8291,-2.8291,-2.8291,-2.8291,-2.8291,-2.8291,-2.8291,0.0,0.0,0.0,-2.8291,-2.8291,-2.8174,-2.8008,-2.8008,-2.7744,-2.7373,-2.7373,-2.71,-2.6699,-2.6465,-2.626,-2.6055,-2.581,-2.5742,-2.5742,-2.5742,-2.5742,-2.5742,-2.5742,-2.5742,-2.5742,-2.5742,-2.5742,-2.5742,-2.5742,-2.5742,-2.5742,-2.5742,-2.5742,-2.5742,-2.5742,-2.5742,-2.5742,-2.5742,-2.5742,-2.5664,-2.5459,-2.4853,-2.4346,-2.415,-2.3545,-2.3135,-2.3135,-2.3135,-2.3135,-2.3135,-2.3135,-2.3135,-2.3135,-2.3135,-2.3135,-2.3135,-2.3135,-2.3135,-2.3135,-2.3135,-2.3135,-2.3135,-2.3135,-2.3135,-2.3135,-2.3135,-2.3135,-2.1221,-2.1768,-2.2432,-2.292,-2.3096,-2.3135,0.0,0.0,0.0,0.0,0.0,0.0,0.0,0.0,0.0,0.0,0.0,0.0,0.0,0.0,0.0,0.0,0.0,0.0,0.0,0.0,0.0,0.0,0.0,-2.6709,-2.7432,-2.7529,-2.7734,-2.8086,-2.8164,-2.8193,-2.8193,-2.8262,-2.8291,-2.8291,-2.8291,-2.8291,-2.8291,-2.8291,-2.8291,-2.8291,0.0,0.0,-2.8193,-2.8193,-2.7949,-2.7568,-2.7568,-2.7305,-2.6914,-2.6914,-2.665,-2.6289,-2.6289,-2.6045,-2.5742,-2.5742,-2.5742,-2.5742,-2.5742,-2.5742,-2.5742,-2.5742,-2.5742,-2.5742,-2.5742,-2.5742,-2.5742,-2.5742,-2.5742,-2.5742,-2.5742,-2.5742,-2.5742,-2.5742,-2.5742,-2.5742,-2.5742,-2.5742,-2.5586,-2.5137,-2.4697,-2.4258,-2.3838,-2.3408,-2.3135,-2.3135,-2.3135,-2.3135,-2.3135,-2.3135,-2.3135,-2.3135,-2.3135,-2.3135,-2.3135,-2.3135,-2.3135,-2.3135,-2.3135,-2.3135,-2.3135,-2.3135,-2.3135,-2.3135,-2.3135,-2.3135,-2.1133,-2.1338,-2.1621,-2.2412,-2.2881,-2.3135,-2.3135,0.0,0.0,0.0,0.0,0.0,0.0,0.0,0.0,0.0,0.0,0.0,0.0,0.0,0.0,0.0,0.0,0.0,0.0,0.0,0.0,0.0,0.0,-2.6445,-2.6582,-2.6924,-2.7148,-2.7207,-2.7568,-2.7764,-2.7764,-2.8115,-2.8291,-2.8291,-2.8291,-2.8291,-2.8291,-2.8291,-2.8291,-2.8291,0.0,-2.8096,-2.7764,-2.7764,-2.75,-2.7119,-2.7119,-2.6855,-2.6484,-2.6484,-2.6211,-2.584,-2.584,-2.5791,-2.5742,-2.5742,-2.5742,-2.5742,-2.5742,-2.5742,-2.5742,-2.5742,-2.5742,-2.5742,-2.5742,-2.5742,-2.5742,-2.5742,-2.5742,-2.5742,-2.5742,-2.5742,-2.5742,-2.5742,-2.5742,-2.5742,-2.5742,-2.5742,-2.5586,-2.5137,-2.4697,-2.4258,-2.3838,-2.3408,-2.3135,-2.3135,-2.3135,-2.3135,-2.3135,-2.3135,-2.3135,-2.3135,-2.3135,-2.3135,-2.3135,-2.3135,-2.3135,-2.3135,-2.3135,-2.3135,-2.3135,-2.3135,-2.3135,-2.3135,-2.3135,-2.3135,-2.082,-2.1045,-2.1387,-2.2021,-2.249,-2.2861,-2.3086,0.0,0.0,0.0,0.0,0.0,0.0,0.0,0.0,0.0,0.0,0.0,0.0,0.0,0.0,0.0,0.0,0.0,0.0,0.0,0.0,0.0,0.0,0.0,-2.6377,-2.6572,-2.6787,-2.7012,-2.7207,-2.7314,-2.7314,-2.751,-2.7832,-2.8291,-2.8291,-2.8174,-2.7959,-2.7959,-2.7822,-2.7598,0.0,-2.749,-2.7314,-2.7314,-2.706,-2.668,-2.668,-2.6416,-2.6035,-2.6035,-2.5908,-2.5742,-2.5742,-2.5742,-2.5742,-2.5742,-2.5742,-2.5742,-2.5742,-2.5742,-2.5742,-2.5742,-2.5742,-2.5742,-2.5742,-2.5742,-2.5742,-2.5742,-2.5742,-2.5742,-2.5742,-2.5742,-2.5742,-2.5742,-2.5742,-2.5742,-2.5742,-2.5742,-2.545,-2.4801,-2.4536,-2.418,-2.3525,-2.3262,-2.3135,-2.3135,-2.3135,-2.3135,-2.3135,-2.3135,-2.3135,-2.3135,-2.3135,-2.3135,-2.3135,-2.3135,-2.3135,-2.3135,-2.3135,-2.3135,-2.3135,-2.3135,-2.3135,-2.3135,-2.3135,-2.3135,-2.0566,-2.081,-2.1182,-2.1621,0.0,-2.2627,-2.3047,0.0,0.0,0.0,0.0,0.0,0.0,0.0,0.0,0.0,0.0,0.0,0.0,0.0,0.0,0.0,0.0,0.0,0.0,0.0,0.0,0.0,0.0,0.0,-2.6221,-2.624,-2.6387,-2.6709,-2.6816,-2.6865,-2.6865,-2.6963,-2.7344,-2.7988,-2.7988,-2.7822,-2.751,-2.751,-2.7334,-2.7012,-2.7012,-2.6963,-2.6865,-2.6865,-2.6621,-2.624,-2.624,-2.6035,-2.5742,-2.5742,-2.5742,-2.5742,-2.5742,-2.5742,-2.5742,-2.5742,-2.5742,-2.5742,-2.5742,-2.5742,-2.5742,-2.5742,-2.5742,-2.5742,-2.5742,-2.5742,-2.5742,-2.5742,-2.5742,-2.5742,-2.5742,-2.5742,-2.5742,-2.5742,-2.5742,-2.5742,-2.5742,-2.5635,-2.5314,-2.4507,-2.4365,-2.3994,-2.3242,-2.3135,-2.3135,-2.3135,-2.3135,-2.3135,-2.3135,-2.3135,-2.3135,-2.3135,-2.3135,-2.3135,-2.3135,-2.3135,-2.3135,-2.3135,-2.3135,-2.3135,-2.3135,-2.3135,-2.3135,-2.3135,-2.3135,-2.3135,-2.0566,-2.0586,-2.0723,-2.1172,0.0,0.0,-2.3047,-2.3135,0.0,0.0,0.0,0.0,0.0,0.0,0.0,0.0,0.0,0.0,0.0,0.0,0.0,0.0,0.0,0.0,0.0,0.0,0.0,0.0,0.0,0.0,-2.5781,-2.5781,-2.5791,-2.583,-2.6221,-2.6435,-2.6435,-2.6816,-2.7041,-2.7109,-2.7109,-2.709,-2.706,-2.706,-2.7041,-2.7012,-2.7012,-2.6797,-2.6435,-2.6435,-2.6172,-2.5781,-2.5781,-2.5762,-2.5742,-2.5742,-2.5742,-2.5742,-2.5742,-2.5742,-2.5742,-2.5742,-2.5742,-2.5742,-2.5742,-2.5742,-2.5742,-2.5742,-2.5742,-2.5742,-2.5742,-2.5742,-2.5742,-2.5742,-2.5742,-2.5742,-2.5742,-2.5742,-2.5742,-2.5742,-2.5742,-2.5742,-2.5742,-2.5418,-2.4983,-2.4466,-2.4121,-2.3662,-2.3193,-2.3135,-2.3135,-2.3135,-2.3135,-2.3135,-2.3135,-2.3135,-2.3135,-2.3135,-2.3135,-2.3135,-2.3135,-2.3135,-2.3135,-2.3135,-2.3135,-2.3135,-2.3135,-2.3135,-2.3135,-2.3135,-2.3135,-2.3135,-2.0566,-2.0566,-2.0674,-2.1123,0.0,0.0,0.0,0.0,0.0,0.0,0.0,0.0,0.0,0.0,0.0,0.0,0.0,0.0,0.0,0.0,0.0,0.0,0.0,0.0,0.0,0.0,0.0,0.0,0.0,0.0,-2.5742,-2.5742,-2.5742,-2.5742,-2.5898,-2.5986,-2.5986,-2.6143,-2.6221,-2.623,-2.6758,-2.6875,-2.6631,-2.6631,-2.6484,-2.6221,-2.6221,-2.6133,-2.5986,-2.5986,-2.5889,-2.5742,-2.5742,-2.5742,-2.5742,-2.5742,-2.5742,-2.5742,-2.5742,-2.5742,-2.5742,-2.5742,-2.5742,-2.5742,-2.5742,-2.5742,-2.5742,-2.5742,-2.5742,-2.5742,-2.5742,-2.5742,-2.5742,-2.5742,-2.5742,-2.5742,-2.5742,-2.5742,-2.5742,-2.5742,-2.5742,-2.5616,-2.5363,-2.5189,-2.4879,-2.4147,-2.3894,-2.3621,-2.3115,-2.3135,-2.3135,-2.3135,-2.3135,-2.3135,-2.3135,-2.3135,-2.3135,-2.3135,-2.3135,-2.3135,-2.3135,-2.3135,-2.3135,-2.3135,-2.3135,-2.3135,-2.3135,-2.3135,-2.3135,-2.3135,-2.3135,-2.3135,-2.0566,-2.0566,-2.0635,0.0,0.0,0.0,0.0,0.0,0.0,0.0,0.0,0.0,0.0,0.0,0.0,0.0,0.0,0.0,0.0,0.0,0.0,0.0,0.0,0.0,0.0,0.0,0.0,0.0,0.0,0.0,0.0,-2.5742,-2.5742,-2.5742,-2.5742,-2.5742,-2.5742,-2.5742,-2.5742,-2.5742,-2.6328,-2.6465,-2.6182,-2.6182,-2.6016,-2.5742,-2.5742,-2.5742,-2.5742,-2.5742,-2.5742,-2.5742,-2.5742,-2.5742,-2.5742,-2.5742,-2.5742,-2.5742,-2.5742,-2.5742,-2.5742,-2.5742,-2.5742,-2.5742,-2.5742,-2.5742,-2.5742,-2.5742,-2.5742,-2.5742,-2.5742,-2.5742,-2.5742,-2.5742,-2.5742,-2.5742,-2.5742,-2.5742,-2.5742,-2.5742,-2.5616,-2.5373,-2.512,-2.4899,-2.4521,-2.3919,-2.3624,-2.3475,-2.3096,-2.3135,-2.3135,-2.3135,-2.3135,-2.3135,-2.3135,-2.3135,-2.3135,-2.3135,-2.3135,-2.3135,-2.3135,-2.3135,-2.3135,-2.3135,-2.3135,-2.3135,-2.3135,-2.3135,-2.3135,-2.3135,-2.3135,-2.3135,-2.0566,-2.0566,0.0,0.0,0.0,0.0,0.0,0.0,0.0,0.0,0.0,0.0,0.0,0.0,0.0,0.0,0.0,0.0,0.0,0.0,0.0,0.0,0.0,0.0,0.0,0.0,0.0,0.0,0.0,0.0,0.0,-2.5742,-2.5742,-2.5742,-2.5742,-2.5742,-2.5742,-2.5742,-2.5742,-2.5742,-2.5742,-2.5742,-2.5742,-2.5742,-2.5742,-2.5742,-2.5742,-2.5742,-2.5742,-2.5742,-2.5742,-2.5742,-2.5742,-2.5742,-2.5742,-2.5742,-2.5742,-2.5742,-2.5742,-2.5742,-2.5742,-2.5742,-2.5742,-2.5742,-2.5742,-2.5742,-2.5742,-2.5742,-2.5742,-2.5742,-2.5742,-2.5742,-2.5742,-2.5742,-2.5742,-2.5742,-2.5742,-2.5742,-2.5742,-2.5742,-2.5363,-2.5101,-2.5082,-2.4408,-2.3847,-2.375,-2.3388,-2.3135,-2.3135,-2.3135,-2.3135,-2.3135,-2.3135,-2.3135,-2.3135,-2.3135,-2.3135,-2.3135,-2.3135,-2.3135,-2.3135,-2.3135,-2.3135,-2.3135,-2.3135,-2.3135,-2.3135,-2.3135,-2.3135,-2.3135,-2.3135,-2.3135,-2.0566,0.0,0.0,0.0,0.0,0.0,0.0,0.0,0.0,0.0,0.0,0.0,0.0,0.0,0.0,0.0,0.0,0.0,0.0,0.0,0.0,0.0,0.0,0.0,0.0,0.0,0.0,0.0,0.0,0.0,0.0,-2.5742,-2.5742,-2.5742,-2.5742,-2.5742,-2.5742,-2.5742,-2.5742,-2.5742,-2.5742,-2.5742,-2.5742,-2.5742,-2.5742,-2.5742,-2.5742,-2.5742,-2.5742,-2.5742,-2.5742,-2.5742,-2.5742,-2.5742,-2.5742,-2.5742,-2.5742,-2.5742,-2.5742,-2.5742,-2.5742,-2.5742,-2.5742,-2.5742,-2.5742,-2.5742,-2.5742,-2.5742,-2.5742,-2.5742,-2.5742,-2.5742,-2.5742,-2.5742,-2.5742,-2.5742,-2.5742,-2.5742,-2.5616,-2.5353,-2.5217,-2.4871,-2.4261,-2.3969,-2.373,-2.3378,-2.3164,-2.3135,-2.3135,-2.3135,-2.3135,-2.3135,-2.3135,-2.3135,-2.3135,-2.3135,-2.3135,-2.3135,-2.3135,-2.3135,-2.3135,-2.3135,-2.3135,-2.3135,-2.3135,-2.3135,-2.3135,-2.3135,-2.3135,-2.3135,-2.3135,-2.3135,-2.0566,0.0,0.0,0.0,0.0,0.0,0.0,0.0,0.0,0.0,0.0,0.0,0.0,0.0,0.0,0.0,0.0,0.0,0.0,0.0,0.0,0.0,0.0,0.0,0.0,0.0,0.0,0.0,0.0,0.0,0.0,-2.5742,-2.5742,-2.5742,-2.5742,-2.5742,-2.5742,-2.5742,-2.5742,-2.5742,-2.5742,-2.5742,-2.5742,-2.5742,-2.5742,-2.5742,-2.5742,-2.5742,-2.5742,-2.5742,-2.5742,-2.5742,-2.5742,-2.5742,-2.5742,-2.5742,-2.5742,-2.5742,-2.5742,-2.5742,-2.5742,-2.5742,-2.5742,-2.5742,-2.5742,-2.5742,-2.5742,-2.5742,-2.5742,-2.5742,-2.5742,-2.5742,-2.5742,-2.5742,-2.5742,-2.5625,-2.5489,-2.5479,-2.5353,-2.4868,-2.4688,-2.4394,-2.3919,-2.3632,-2.3398,-2.3144,-2.3135,-2.3135,-2.3135,-2.3135,-2.3135,-2.3135,-2.3135,-2.3135,-2.3135,-2.3135,-2.3135,-2.3135,-2.3135,-2.3135,-2.3135,-2.3135,-2.3135,-2.3135,-2.3135,-2.3135,-2.3135,-2.3135,-2.3135,-2.3135,-2.3135,-2.3135,0.0,0.0,0.0,0.0,0.0,0.0,0.0,0.0,0.0,0.0,0.0,0.0,0.0,0.0,0.0,0.0,0.0,0.0,0.0,0.0,0.0,0.0,0.0,0.0,0.0,0.0,0.0,0.0,0.0,0.0,0.0,-2.5713,-2.5742,-2.5742,-2.5742,-2.5742,-2.5742,-2.5742,-2.5742,-2.5742,-2.5742,-2.5742,-2.5742,-2.5742,-2.5742,-2.5742,-2.5742,-2.5742,-2.5742,-2.5742,-2.5742,-2.5742,-2.5742,-2.5742,-2.5742,-2.5742,-2.5742,-2.5742,-2.5742,-2.5742,-2.5742,-2.5742,-2.5742,-2.5742,-2.5742,-2.5742,-2.5742,-2.5742,-2.5635,-2.5625,-2.5625,-2.5616,-2.5606,-2.5606,-2.5616,-2.5499,-2.5111,-2.4996,-2.4881,-2.4487,-2.4006,-2.375,-2.374,-2.3388,-2.3135,-2.3135,-2.3135,-2.3135,-2.3135,-2.3135,-2.3135,-2.3135,-2.3135,-2.3135,-2.3135,-2.3135,-2.3135,-2.3135,-2.3135,-2.3135,-2.3135,-2.3135,-2.3135,-2.3135,-2.3135,-2.3135,-2.3135,-2.3135,-2.3135,-2.3135,-2.3135,-2.3135,0.0,0.0,0.0,0.0,0.0,0.0,0.0,0.0,0.0,0.0,0.0,0.0,0.0,0.0,0.0,0.0,0.0,0.0,0.0,0.0,0.0,0.0,0.0,0.0,0.0,0.0,0.0,0.0,0.0,0.0,-2.5215,-2.5547,-2.5742,-2.5742,-2.5742,-2.5742,-2.5742,-2.5742,-2.5742,0.0,-2.5742,-2.5742,-2.5742,-2.5742,-2.5742,-2.5742,-2.5742,-2.5742,-2.5742,-2.5742,-2.5742,-2.5742,-2.5742,-2.5742,-2.5742,-2.5742,-2.5742,-2.5742,-2.5742,-2.5742,-2.5742,-2.5742,-2.5742,-2.5742,-2.5742,-2.5742,-2.5742,-2.5742,-2.5489,-2.5237,-2.5237,-2.4975,-2.4714,-2.4714,-2.4975,-2.5101,-2.4607,-2.4555,-2.4436,-2.3969,-2.387,-2.372,-2.3281,-2.3154,-2.3135,-2.3135,-2.3135,-2.3135,-2.3135,-2.3135,-2.3135,-2.3135,-2.3135,-2.3135,-2.3135,-2.3135,-2.3135,-2.3135,-2.3135,-2.3135,-2.3135,-2.3135,-2.3135,-2.3135,-2.3135,-2.3135,-2.3135,-2.3135,-2.3135,-2.3135,-2.3135,-2.3135,0.0,0.0,0.0,0.0,0.0,0.0,0.0,0.0,0.0,0.0,0.0,0.0,0.0,0.0,0.0,0.0,0.0,0.0,0.0,0.0,0.0,0.0,0.0,0.0,0.0,0.0,0.0,0.0,0.0,-2.4805,-2.4724,-2.4946,-2.5083,-2.5091,-2.5101,-2.5101,-2.5101,-2.5101,-2.5101,-2.5101,-2.5101,-2.5101,-2.5101,-2.5499,-2.5742,-2.5742,-2.5742,-2.5742,-2.5742,-2.5742,-2.5742,-2.5742,-2.5742,-2.5742,-2.5742,-2.5742,-2.5742,-2.5742,-2.5742,-2.5742,-2.5742,-2.5742,-2.5742,-2.5625,-2.5489,-2.5373,-2.5363,-2.5111,-2.4965,-2.4784,-2.4736,-2.4624,-2.438,-2.4146,-2.4492,-2.4634,-2.4249,-2.4147,-2.3974,-2.3515,-2.3495,-2.3388,-2.3144,-2.3135,-2.3135,-2.3135,-2.3135,-2.3135,-2.3135,-2.3135,-2.3135,-2.3135,-2.3135,-2.3135,-2.3135,-2.3135,-2.3135,-2.3135,-2.3135,-2.3135,-2.3135,-2.3135,-2.3135,-2.3135,-2.3135,-2.3135,-2.3135,-2.3135,-2.3135,-2.3135,-2.3135,-2.3135,0.0,0.0,0.0,0.0,0.0,0.0,0.0,0.0,0.0,0.0,0.0,0.0,0.0,0.0,0.0,0.0,0.0,0.0,0.0,0.0,0.0,0.0,0.0,0.0,0.0,0.0,0.0,0.0,0.0,-2.4302,-2.4326,-2.4349,-2.4402,-2.4371,-2.4381,-2.4381,-2.4381,-2.4397,-2.4356,-2.4444,-2.442,-2.4412,-2.4412,-2.5168,-2.5469,-2.5489,-2.5489,-2.5489,-2.5489,-2.5489,-2.5489,-2.5489,-2.5489,-2.5489,-2.5489,-2.5489,-2.5489,-2.5489,-2.5489,-2.5489,-2.5489,-2.5489,-2.5489,-2.5373,-2.5101,-2.5015,-2.4919,-2.4536,-2.4307,-2.4335,-2.4256,-2.422,-2.4092,-2.374,-2.3964,-2.4092,-2.374,-2.372,-2.3515,-2.3154,-2.3135,-2.3135,-2.3135,-2.3135,-2.3135,-2.3135,-2.3135,-2.3135,-2.3135,-2.3135,-2.3135,-2.3135,-2.3135,-2.3135,-2.3135,-2.3135,-2.3135,-2.3135,-2.3135,-2.3135,-2.3135,-2.3135,-2.3135,-2.3135,-2.3135,-2.3135,-2.3135,-2.3135,-2.3135,-2.3135,-2.3135,-2.3135,0.0,0.0,0.0,0.0,0.0,0.0,0.0,0.0,0.0,0.0,0.0,0.0,0.0,0.0,0.0,0.0,0.0,0.0,0.0,0.0,0.0,0.0,0.0,0.0,0.0,0.0,0.0,0.0,-2.366,-2.3867,-2.388,-2.4202,-2.44,-2.4365,-2.4365,-2.4365,-2.4365,-2.4364,-2.4356,-2.4444,-2.4359,-2.4444,-2.4444,-2.4563,-2.4569,-2.4588,-2.4588,-2.4588,-2.4588,-2.4588,-2.4588,-2.4588,-2.4588,-2.4588,-2.4588,-2.4588,-2.4588,-2.4588,-2.4588,-2.4588,-2.4588,-2.4588,-2.4588,-2.4588,-2.4482,-2.4452,-2.4464,-2.4444,-2.4108,-2.391,-2.3907,-2.3612,-2.3271,-2.3164,-2.3261,-2.3271,-2.3164,-2.3164,-2.3154,-2.3144,-2.3135,-2.3135,-2.3135,-2.3135,-2.3135,-2.3135,-2.3135,-2.3135,-2.3135,-2.3135,-2.3135,-2.3135,-2.3135,-2.3135,-2.3135,-2.3135,-2.3135,-2.3135,-2.3135,-2.3135,-2.3135,-2.3135,-2.3135,-2.3135,-2.3135,-2.3135,-2.3135,-2.3135,-2.3135,-2.3135,-2.3135,-2.3135,0.0,0.0,0.0,0.0,0.0,0.0,0.0,0.0,0.0,0.0,0.0,0.0,0.0,0.0,0.0,0.0,0.0,0.0,0.0,0.0,0.0,0.0,0.0,0.0,0.0,0.0,0.0,0.0,-2.3271,-2.3418,-2.3398,-2.3614,-2.3701,-2.3701,-2.3701,-2.3701,-2.3701,-2.3631,-2.3683,-2.3673,-2.3644,-2.3632,-2.3632,-2.3632,-2.393,-2.4408,-2.4408,-2.4408,-2.4408,-2.4408,-2.4408,-2.4408,-2.4408,-2.4408,-2.4408,-2.4408,-2.4408,-2.4408,-2.4408,-2.4408,-2.4408,-2.4408,-2.4408,-2.4398,-2.4166,-2.4108,-2.3984,-2.374,-2.3515,-2.3388,-2.3388,-2.3261,-2.3135,-2.3135,-2.3135,-2.3135,-2.3135,-2.3135,-2.3135,-2.3135,-2.3135,-2.3135,-2.3135,-2.3135,-2.3135,-2.3135,-2.3135,-2.3135,-2.3135,-2.3135,-2.3135,-2.3135,-2.3135,-2.3135,-2.3135,-2.3135,-2.3135,-2.3135,-2.3135,-2.3135,-2.3135,-2.3135,-2.3135,-2.3135,-2.3135,-2.3135,-2.3135,-2.3135,-2.3135,-2.3135,-2.3135,-2.3135,0.0,0.0,0.0,0.0,0.0,0.0,0.0,0.0,0.0,0.0,0.0,0.0,0.0,0.0,0.0,0.0,0.0,0.0,0.0,0.0,0.0,0.0,0.0,0.0,0.0,0.0,0.0,0.0,-2.3135,-2.3135,-2.3135,-2.3135,-2.3135,-2.3135,-2.3135,-2.3135,-2.3135,-2.3135,-2.3135,-2.3135,-2.3135,-2.3135,-2.3135,-2.3135,-2.3485,-2.4092,-2.4092,-2.4092,-2.4092,-2.4092,-2.4092,-2.4092,-2.4092,-2.4092,-2.4092,-2.4092,-2.4092,-2.4092,-2.4092,-2.4092,-2.4092,-2.4092,-2.4092,-2.3984,-2.373,-2.3622,-2.3515,-2.3164,-2.3135,-2.3135,-2.3135,-2.3135,-2.3135,-2.3135,-2.3135,-2.3135,-2.3135,-2.3135,-2.3135,-2.3135,-2.3135,-2.3135,-2.3135,-2.3135,-2.3135,-2.3135,-2.3135,-2.3135,-2.3135,-2.3135,-2.3135,-2.3135,-2.3135,-2.3135,-2.3135,-2.3135,-2.3135,-2.3135,-2.3135,-2.3135,-2.3135,-2.3135,-2.3135,-2.3135,-2.3135,-2.3135,-2.3135,-2.3135,-2.3135,-2.3135,-2.3135,-2.3135,0.0,0.0,0.0,0.0,0.0,0.0,0.0,0.0,0.0,0.0,0.0,0.0,0.0,0.0,0.0,0.0,0.0,0.0,0.0,0.0,0.0,0.0,0.0,0.0,0.0,0.0,0.0,0.0,-2.3135,-2.3135,-2.3135,-2.3135,-2.3135,-2.3135,-2.3135,-2.3135,-2.3135,-2.3135,-2.3135,-2.3135,-2.3135,-2.3135,-2.3135,-2.3135,-2.3144,-2.3154,-2.3154,-2.3154,-2.3154,-2.3154,-2.3154,-2.3154,-2.3154,-2.3154,-2.3154,-2.3154,-2.3154,-2.3154,-2.3154,-2.3154,-2.3154,-2.3154,-2.3154,-2.3154,-2.3144,-2.3144,-2.3144,-2.3144,-2.3135,-2.3135,-2.3135,-2.3135,-2.3135,-2.3135,-2.3135,-2.3135,-2.3135,-2.3135,-2.3135,-2.3135,-2.3135,-2.3135,-2.3135,-2.3135,-2.3135,-2.3135,-2.3135,-2.3135,-2.3135,-2.3135,-2.3135,-2.3135,-2.3135,-2.3135,-2.3135,-2.3135,-2.3135,-2.3135,-2.3135,-2.3135,-2.3135,-2.3135,-2.3135,-2.3135,-2.3135,-2.3135,-2.3135,-2.3135,-2.3135,-2.3135,-2.3135,-2.3135,0.0,0.0,0.0,0.0,0.0,0.0,0.0,0.0,0.0,0.0,0.0,0.0,0.0,0.0,0.0,0.0,0.0,0.0,0.0,0.0,0.0,0.0,0.0,0.0,0.0,0.0,0.0,0.0,0.0,-2.2339,-2.2339,-2.2572,-2.2698,-2.2698,-2.2931,-2.3135,-2.3135,-2.3135,-2.3135,-2.3135,-2.3135,-2.3135,-2.3135,-2.3135,-2.3135,-2.3135,-2.3135,-2.3135,-2.3135,-2.3135,-2.3135,-2.3135,-2.3135,-2.3135,-2.3135,-2.3135,-2.3135,-2.3135,-2.3135,-2.3135,-2.3135,-2.3135,-2.3135,-2.3135,-2.3135,-2.3135,-2.3135,-2.3135,-2.3135,-2.3135,-2.3135,-2.3135,-2.3135,-2.3135,-2.3135,-2.3135,-2.3135,-2.3135,-2.3135,-2.3135,-2.3135,-2.3135,-2.3135,-2.3135,-2.3135,-2.3135,-2.3135,-2.3135,-2.3135,-2.3135,-2.3135,-2.3135,-2.3135,-2.3135,-2.3135,-2.3135,-2.3135,-2.3135,-2.3135,-2.3135,-2.3135,-2.3135,-2.3135,-2.3135,-2.3135,-2.3135,-2.3135,-2.3135,-2.3135,-2.3135,-2.3135,-2.3135,0.0,0.0,0.0,0.0,0.0,0.0,0.0,0.0,0.0,0.0,0.0,0.0,0.0,0.0,0.0,0.0,0.0,0.0,0.0,0.0,0.0,0.0,0.0,0.0,0.0,0.0,0.0,0.0,0.0,0.0,-2.1935,-2.2162,-2.231,-2.232,-2.2572,-2.2688,-2.2688,-2.2688,-2.2795,-2.2911,-2.2911,-2.2931,-2.3135,-2.3135,-2.3135,-2.3135,-2.3135,-2.3135,-2.3135,-2.3135,-2.3135,-2.3135,-2.3135,-2.3135,-2.3135,-2.3135,-2.3135,-2.3135,-2.3135,-2.3135,-2.3135,-2.3135,-2.3135,-2.3135,-2.3135,-2.3135,-2.3135,-2.3135,-2.3135,-2.3135,-2.3135,-2.3135,-2.3135,-2.3135,-2.3135,-2.3135,-2.3135,-2.3135,-2.3135,-2.3135,-2.3135,-2.3135,-2.3135,-2.3135,-2.3135,-2.3135,-2.3135,-2.3135,-2.3135,-2.3135,-2.3135,-2.3135,-2.3135,-2.3135,-2.3135,-2.3135,-2.3135,-2.3135,-2.3135,-2.3135,-2.3135,-2.3135,-2.3135,-2.3135,-2.3135,-2.3135,-2.3135,-2.3135,-2.3135,-2.3135,-2.3135,-2.3135,0.0,0.0,0.0,0.0,0.0,0.0,0.0,0.0,0.0,0.0,0.0,0.0,0.0,0.0,0.0,0.0,0.0,0.0,0.0,0.0,0.0,0.0,0.0,0.0,0.0,0.0,0.0,0.0,-2.1829,-2.1829,-2.1829,-2.1906,-2.1869,-2.1879,-2.1926,-2.1926,-2.1926,-2.1926,-2.2138,-2.2495,-2.2446,-2.2688,-2.3038,-2.3038,-2.3038,-2.3038,-2.3038,-2.3038,-2.3047,-2.3047,-2.3135,-2.3135,-2.3135,-2.3135,-2.3135,-2.3135,-2.3135,-2.3135,-2.3135,-2.3135,-2.3135,-2.3135,-2.3135,-2.3135,-2.3135,-2.3135,-2.3135,-2.3135,-2.3135,-2.3135,-2.3135,-2.3135,-2.3135,-2.3135,-2.3135,-2.3135,-2.3135,-2.3135,-2.3135,-2.3135,-2.3135,-2.3135,-2.3135,-2.3135,-2.3135,-2.3135,-2.3135,-2.3135,-2.3135,-2.3135,-2.3135,-2.3135,-2.3135,-2.3135,-2.3135,-2.3135,-2.3135,-2.3135,-2.3135,-2.3135,-2.3135,-2.3135,-2.3135,-2.3135,-2.3135,-2.3135,-2.3135,-2.3135,-2.3135,-2.3135,-2.3135,-2.3135,-2.0566,0.0,0.0,0.0,0.0,0.0,0.0,0.0,0.0,0.0,0.0,0.0,0.0,0.0,0.0,0.0,0.0,0.0,0.0,0.0,0.0,0.0,0.0,0.0,0.0,0.0,0.0,0.0,-2.0966,-2.0966,-2.0966,-2.1268,-2.1519,-2.19,-2.191,-2.191,-2.191,-2.191,-2.193,-2.205,-2.2092,-2.2117,-2.2224,-2.2224,-2.2224,-2.2224,-2.2224,-2.2224,-2.2242,-2.2814,-2.3135,-2.3135,-2.3135,-2.3135,-2.3135,-2.3135,-2.3135,-2.3135,-2.3135,-2.3135,-2.3135,-2.3135,-2.3135,-2.3135,-2.3135,-2.3135,-2.3135,-2.3135,-2.3135,-2.3135,-2.3135,-2.3135,-2.3135,-2.3135,-2.3135,-2.3135,-2.3135,-2.3135,-2.3135,-2.3135,-2.3135,-2.3135,-2.3135,-2.3135,-2.3135,-2.3135,-2.3135,-2.3135,-2.3135,-2.3135,-2.3135,-2.3135,-2.3135,-2.3135,-2.3135,-2.3135,-2.3135,-2.3135,-2.3135,-2.3135,-2.3135,-2.3135,-2.3135,-2.3135,-2.3135,-2.3135,-2.3135,-2.3135,-2.3135,-2.3135,-2.3135,-2.3135,0.0,0.0,0.0,0.0,0.0,0.0,-2.0566,-2.0566,0.0,0.0,0.0,0.0,0.0,0.0,0.0,0.0,0.0,0.0,0.0,0.0,0.0,0.0,0.0,0.0,0.0,-2.0566,-2.0566,-2.0566,-2.0566,-2.0566,-2.0566,-2.0858,-2.1073,-2.1376,-2.1386,-2.1386,-2.1386,-2.1386,-2.1406,-2.1612,-2.1592,-2.1733,-2.1938,-2.1938,-2.1938,-2.1938,-2.1938,-2.1938,-2.1948,-2.2399,-2.2605,-2.2581,-2.2795,-2.2814,-2.2911,-2.3038,-2.3135,-2.3135,-2.3135,-2.3135,-2.3135,-2.3135,-2.3135,-2.3135,-2.3135,-2.3135,-2.3135,-2.3135,-2.3135,-2.3038,-2.2911,-2.2931,-2.3135,-2.3135,-2.3135,-2.3135,-2.3135,-2.3135,-2.3135,-2.3135,-2.3135,-2.3135,-2.3135,-2.3135,-2.3135,-2.3135,-2.3135,-2.3135,-2.3135,-2.3135,-2.3135,-2.3135,-2.3135,-2.3135,-2.3135,-2.3135,-2.3135,-2.3135,-2.3135,-2.3135,-2.3135,-2.3135,-2.3135,-2.3135,-2.3135,-2.3135,-2.3135,-2.3135,-2.3135,-2.3135,-2.3135,-2.3135,0.0,0.0,0.0,0.0,0.0,0.0,-2.0566,-2.0566,-2.0566,0.0,0.0,0.0,0.0,0.0,0.0,0.0,0.0,0.0,0.0,0.0,0.0,0.0,0.0,0.0,-2.0566,-2.0566,-2.0566,-2.0566,-2.0566,-2.0566,-2.0566,-2.0566,-2.0566,-2.0566,-2.0566,-2.0566,-2.0566,-2.0566,-2.0771,-2.1171,-2.1171,-2.1376,-2.172,-2.172,-2.172,-2.172,-2.172,-2.172,-2.172,-2.172,-2.1797,-2.1949,-2.2294,-2.2418,-2.2465,-2.2814,-2.2931,-2.2931,-2.2931,-2.2931,-2.2931,-2.2931,-2.2931,-2.2931,-2.2931,-2.2931,-2.2989,-2.293,-2.2939,-2.2901,-2.2543,-2.2688,-2.2931,-2.2931,-2.2931,-2.2931,-2.2931,-2.3028,-2.3038,-2.3038,-2.3047,-2.3135,-2.3135,-2.3135,-2.3135,-2.3135,-2.3135,-2.3135,-2.3135,-2.3135,-2.3135,-2.3135,-2.3135,-2.3135,-2.3135,-2.3135,-2.3135,-2.3135,-2.3135,-2.3135,-2.3135,-2.3135,-2.3135,-2.3135,-2.3096,-2.3066,-2.3066,-2.3115,-2.3115,-2.3066,-2.3066,-2.3047,0.0,0.0,0.0,0.0,0.0,0.0,-2.0566,-2.0566,-2.0566,0.0,0.0,0.0,0.0,0.0,0.0,0.0,0.0,0.0,0.0,0.0,0.0,0.0,0.0,0.0,-2.0566,-2.0566,-2.0566,-2.0566,-2.0566,-2.0566,-2.0566,-2.0566,-2.0566,-2.0566,-2.0566,-2.0566,-2.0566,-2.0566,-2.0654,-2.0751,-2.0751,-2.0761,-2.0858,-2.0858,-2.0858,-2.0858,-2.0858,-2.0858,-2.0858,-2.0858,-2.1282,-2.1919,-2.2019,-2.2026,-2.2011,-2.2117,-2.2117,-2.2117,-2.2117,-2.2117,-2.2117,-2.2117,-2.2117,-2.2117,-2.2117,-2.2117,-2.216,-2.2109,-2.2128,-2.2162,-2.2053,-2.2108,-2.2117,-2.2117,-2.2117,-2.2117,-2.2117,-2.2349,-2.2581,-2.2581,-2.2911,-2.3135,-2.3135,-2.3135,-2.3135,-2.3135,-2.3135,-2.3135,-2.3135,-2.3135,-2.3135,-2.3135,-2.3135,-2.3135,-2.3135,-2.3135,-2.3135,-2.3135,-2.3135,-2.3135,-2.3135,-2.3135,-2.3135,-2.3135,-2.2812,-2.2637,-2.2637,-2.2969,-2.2959,-2.2637,-2.2637,-2.2451,0.0,0.0,0.0,-2.0566,0.0,0.0,0.0,-2.0566,-2.0566,0.0,0.0,0.0,0.0,0.0,0.0,0.0,0.0,0.0,0.0,0.0,0.0,0.0,0.0,0.0,-2.0566,-2.0566,-2.0566,-2.0566,-2.0566,-2.0566,-2.0566,-2.0566,-2.0566,-2.0566,-2.0566,-2.0566,-2.0566,-2.0566,-2.0566,-2.0566,-2.0566,-2.0566,-2.0566,-2.0566,-2.0566,-2.0566,-2.0566,-2.0566,-2.0566,-2.0566,-2.0868,-2.1278,-2.1494,-2.1521,-2.154,-2.1846,-2.1865,-2.1865,-2.1865,-2.1865,-2.1865,-2.1865,-2.1865,-2.1865,-2.1865,-2.1865,-2.1883,-2.1638,-2.173,-2.1865,-2.1632,-2.1712,-2.1886,-2.1886,-2.192,-2.1865,-2.1865,-2.207,-2.2222,-2.2187,-2.2349,-2.2669,-2.3038,-2.3135,-2.3135,-2.3135,-2.3135,-2.3135,-2.3135,-2.3135,-2.3135,-2.3135,-2.3135,-2.3135,-2.3135,-2.3135,-2.3135,-2.3135,-2.3135,-2.3135,-2.3135,-2.3135,-2.3047,-2.2832,-2.2412,-2.2197,-2.2197,-2.2412,-2.2402,-2.2197,-2.2197,-2.209,0.0,0.0,0.0,0.0,0.0,-2.0566,0.0,0.0,0.0,0.0,0.0,0.0,0.0,0.0,0.0,0.0,0.0,0.0,0.0,0.0,0.0,0.0,0.0,0.0,0.0,-2.0566,-2.0566,-2.0566,-2.0566,-2.0566,-2.0566,-2.0566,-2.0566,-2.0566,-2.0566,-2.0566,-2.0566,-2.0566,-2.0566,-2.0566,-2.0566,-2.0566,-2.0566,-2.0566,-2.0566,-2.0566,-2.0566,-2.0566,-2.0566,-2.0566,-2.0566,-2.0654,-2.0966,-2.1073,-2.1171,-2.1504,-2.1612,-2.1612,-2.1612,-2.1612,-2.1612,-2.1612,-2.1612,-2.1612,-2.1612,-2.1612,-2.1592,-2.1181,-2.1382,-2.1565,-2.1164,-2.138,-2.1636,-2.1636,-2.1673,-2.1612,-2.1612,-2.171,-2.1809,-2.1805,-2.1855,-2.2083,-2.2746,-2.2911,-2.2911,-2.2931,-2.3018,-2.3028,-2.3047,-2.3135,-2.3135,-2.3135,-2.3135,-2.3135,-2.3135,-2.3066,-2.3018,-2.3018,-2.2939,-2.29,-2.29,-2.29,-2.2744,-2.2402,-2.1973,-2.1768,-2.1768,-2.167,-2.168,-2.1768,-2.1768,-2.1719,0.0,0.0,0.0,0.0,-2.0566,0.0,0.0,0.0,0.0,-2.0566,0.0,0.0,0.0,0.0,0.0,0.0,0.0,0.0,0.0,0.0,0.0,0.0,0.0,0.0,0.0,-2.0566,-2.0566,-2.0566,-2.0566,-2.0566,-2.0566,-2.0566,-2.0566,-2.0566,-2.0566,-2.0566,-2.0566,-2.0566,-2.0566,-2.0566,-2.0566,-2.0566,-2.0566,-2.0566,-2.0566,-2.0566,-2.0566,-2.0566,-2.0566,-2.0566,-2.0566,-2.0566,-2.0654,-2.0664,-2.0664,-2.0751,-2.0761,-2.0761,-2.0761,-2.0761,-2.0761,-2.0761,-2.0761,-2.0761,-2.0761,-2.0761,-2.0751,-2.0664,-2.0722,-2.0771,-2.0683,-2.0703,-2.0742,-2.0742,-2.0713,-2.0761,-2.0761,-2.1063,-2.1251,-2.1243,-2.1599,-2.1889,-2.1987,-2.2011,-2.2127,-2.2465,-2.2572,-2.2688,-2.3038,-2.3135,-2.3135,-2.3135,-2.3135,-2.3135,-2.3135,-2.2793,-2.2578,-2.2578,-2.2236,-2.2031,-2.2031,-2.2031,-2.2002,-2.1963,-2.1533,-2.1309,-2.1309,-2.0908,-2.0918,-2.1309,-2.1309,-2.1094,0.0,0.0,0.0,0.0,0.0,0.0,-2.0566,0.0,-2.0566,0.0,0.0,0.0,0.0,0.0,0.0,0.0,-2.0449,0.0,0.0,0.0,0.0,0.0,0.0,0.0,0.0,0.0,0.0,0.0,-2.0566,-2.0566,-2.0566,-2.0566,-2.0566,-2.0566,-2.0566,-2.0566,-2.0566,-2.0566,-2.0566,-2.0566,-2.0566,-2.0566,-2.0566,-2.0566,-2.0566,-2.0566,-2.0566,-2.0566,-2.0566,-2.0566,-2.0566,-2.0566,-2.0566,-2.0566,-2.0566,-2.0566,-2.0566,-2.0566,-2.0566,-2.0566,-2.0566,-2.0566,-2.0566,-2.0566,-2.0566,-2.0566,-2.0566,-2.0566,-2.0566,-2.0566,-2.0566,-2.0566,-2.0566,-2.0566,-2.0566,-2.0566,-2.0566,-2.0751,-2.0858,-2.0858,-2.0976,-2.1115,-2.1182,-2.1549,-2.1974,-2.2096,-2.2158,-2.2224,-2.2349,-2.238,-2.2376,-2.2407,-2.2395,-2.2412,-2.2412,-2.2246,-2.2148,-2.2148,-2.1982,-2.1885,-2.1885,-2.1641,-2.1504,-2.1504,-2.1074,-2.084,-2.084,-2.0654,-2.0664,-2.084,-2.084,-2.0742,-2.0566,0.0,0.0,0.0,0.0,0.0,0.0,0.0,0.0,0.0,0.0,0.0,0.0,0.0,0.0,0.0,0.0,-2.0527,0.0,0.0,0.0,0.0,0.0,0.0,0.0,0.0,0.0,-2.0566,-2.0566,-2.0566,-2.0566,-2.0566,-2.0566,-2.0566,-2.0566,-2.0566,-2.0566,-2.0566,-2.0566,-2.0566,-2.0566,-2.0566,-2.0566,-2.0566,-2.0566,-2.0566,-2.0566,-2.0566,-2.0566,-2.0566,-2.0566,-2.0566,-2.0566,-2.0566,-2.0566,-2.0566,-2.0566,-2.0566,-2.0566,-2.0566,-2.0566,-2.0566,-2.0566,-2.0566,-2.0566,-2.0566,-2.0566,-2.0566,-2.0566,-2.0566,-2.0566,-2.0566,-2.0566,-2.0566,-2.0566,-2.0566,-2.0566,-2.0566,-2.0566,-2.0566,-2.0566,-2.0566,-2.0566,-2.1083,-2.1592,-2.17,-2.1732,-2.1768,-2.1882,-2.1894,-2.1883,-2.1899,-2.1934,-2.1885,-2.1885,-2.1777,-2.165,-2.1533,-2.1523,-2.1523,-2.1523,-2.1221,-2.1055,-2.1055,-2.0732,-2.0566,-2.0566,-2.0566,-2.0566,-2.0566,-2.0566,-2.0566,0.0,0.0,0.0,-2.0566,0.0,0.0,0.0,0.0,-2.0566,0.0,0.0,0.0,0.0,0.0,0.0,0.0,0.0,0.0,0.0,0.0,0.0,0.0,0.0,0.0,0.0,0.0,0.0,-2.0566,-2.0566,-2.0566,-2.0566,-2.0566,-2.0566,-2.0566,-2.0566,-2.0566,-2.0566,-2.0566,-2.0566,-2.0566,-2.0566,-2.0566,-2.0566,-2.0566,-2.0566,-2.0566,-2.0566,-2.0566,-2.0566,-2.0566,-2.0566,-2.0566,-2.0566,-2.0566,-2.0566,-2.0566,-2.0566,-2.0566,-2.0566,-2.0566,-2.0566,-2.0566,-2.0566,-2.0566,-2.0566,-2.0566,-2.0566,-2.0566,-2.0566,-2.0566,-2.0566,-2.0566,-2.0566,-2.0566,-2.0566,-2.0566,-2.0566,-2.0566,-2.0566,-2.0566,-2.0566,-2.0566,-2.0566,-2.0644,-2.0761,-2.1171,-2.1221,-2.1379,-2.1802,-2.188,-2.1886,-2.1919,-2.1922,-2.1885,-2.1885,-2.1504,-2.1074,-2.0635,-2.0605,-2.0605,-2.0605,-2.0596,-2.0586,-2.0586,-2.0576,-2.0566,-2.0566,-2.0566,-2.0566,-2.0566,-2.0566,-2.0566,0.0,0.0,-2.0566,-2.0566,0.0,0.0,0.0,0.0,0.0,0.0,0.0,0.0,0.0,0.0,0.0,0.0,0.0,0.0,0.0,0.0,0.0,0.0,0.0,0.0,0.0,0.0,0.0,-2.0566,-2.0566,-2.0566,-2.0566,-2.0566,-2.0566,-2.0566,-2.0566,-2.0566,-2.0566,-2.0566,-2.0566,-2.0566,-2.0566,-2.0566,-2.0566,-2.0566,-2.0566,-2.0566,-2.0566,-2.0566,-2.0566,-2.0566,-2.0566,-2.0566,-2.0566,-2.0566,-2.0566,-2.0566,-2.0566,-2.0566,-2.0566,-2.0566,-2.0566,-2.0566,-2.0566,-2.0566,-2.0566,-2.0566,-2.0566,-2.0566,-2.0566,-2.0566,-2.0566,-2.0566,-2.0566,-2.0566,-2.0566,-2.0566,-2.0566,-2.0566,-2.0566,-2.0566,-2.0566,-2.0566,-2.0566,-2.0566,-2.0654,-2.0771,-2.0771,-2.0868,-2.0985,-2.1063,-2.1045,-2.1036,-2.1046,-2.1016,-2.1016,-2.0879,-2.0723,-2.0576,-2.0566,-2.0566,-2.0566,-2.0566,-2.0566,-2.0566,-2.0566,-2.0566,-2.0566,-2.0566,-2.0566,-2.0566,-2.0566,-2.0566,-2.0566,-2.0566,0.0,-2.0566,-2.0566,0.0,-2.0566,0.0,0.0,0.0,0.0,0.0,0.0,0.0,0.0,0.0,0.0,0.0,0.0,-2.0566,0.0,0.0,0.0,0.0,0.0,0.0,-2.0566,-2.0566,-2.0566,-2.0566,0.0,0.0,-2.0566,-2.0566,-2.0566,-2.0566,-2.0566,-2.0566,-2.0566,-2.0566,-2.0566,-2.0566,-2.0566,-2.0566,-2.0566,-2.0566,-2.0566,-2.0566,-2.0566,-2.0566,-2.0566,-2.0566,-2.0566,-2.0566,-2.0566,-2.0566,-2.0566,-2.0566,-2.0566,-2.0566,-2.0566,-2.0566,-2.0566,-2.0566,-2.0566,-2.0566,-2.0625,-2.074,-2.0693,-2.0654,-2.0771,-2.0751,-2.0566,-2.0566,-2.0566,-2.0566,-2.0566,-2.0566,-2.0566,-2.0566,-2.0566,-2.0566,-2.0566,-2.0566,-2.0566,-2.0566,-2.0566,-2.0566,-2.0566,-2.0566,-2.0566,-2.0566,-2.0566,-2.0566,-2.0566,-2.0566,-2.0566,-2.0566,-2.0566,-2.0566,-2.0566,-2.0566,-2.0566,-2.0566,-2.0566,-2.0566,-2.0566,-2.0566,-2.0566,-2.0566,-2.0566,-2.0566]},{"header":{"parameterUnit":"m.s-1","parameterCategory":1,"la1":30.6,"la2":29.2853,"lo1":-89.7004,"lo2":-87.6739,"dy":0.0162,"dx":0.0183,"nx":112,"ny":82,"refTime":"2023-09-08T06:00:00:Z","depth":0,"parameterNumber":3,"parameterNumberName":"V-component_of_WINDS"},"data":[0.0,0.0,0.0,0.0,0.0,0.0,0.0,0.0,0.0,0.0,0.0,0.0,0.0,0.0,0.0,0.0,0.0,0.0,0.0,0.0,0.0,0.0,0.0,0.0,0.0,0.0,0.0,0.0,0.0,0.0,0.0,0.0,0.0,0.0,0.0,0.0,0.0,0.0,0.0,0.0,0.0,0.0,0.0,0.0,0.0,0.0,0.0,0.0,0.0,0.0,0.0,0.0,0.0,0.0,0.0,0.0,0.0,0.0,0.0,0.0,0.0,0.0,0.0,0.0,0.0,0.0,0.0,0.0,0.0,0.0,0.0,0.0,0.0,0.0,0.0,0.0,0.0,0.0,0.0,0.0,0.0,0.0,0.0,0.0,0.0,0.0,0.0,0.0,0.0,0.0,-3.6498,-3.6416,-3.6054,-3.581,-3.5739,-3.5739,-3.5739,-3.5739,0.0,0.0,0.0,0.0,0.0,0.0,0.0,0.0,0.0,0.0,0.0,0.0,0.0,0.0,0.0,0.0,0.0,0.0,0.0,0.0,0.0,0.0,0.0,0.0,0.0,0.0,0.0,0.0,0.0,0.0,0.0,0.0,0.0,0.0,0.0,0.0,0.0,0.0,0.0,0.0,0.0,0.0,0.0,0.0,0.0,0.0,0.0,0.0,0.0,0.0,0.0,0.0,0.0,0.0,0.0,0.0,0.0,0.0,0.0,0.0,0.0,0.0,0.0,0.0,0.0,0.0,0.0,0.0,0.0,0.0,0.0,0.0,0.0,0.0,0.0,0.0,0.0,0.0,0.0,0.0,0.0,0.0,0.0,0.0,0.0,0.0,0.0,0.0,0.0,0.0,0.0,0.0,0.0,0.0,0.0,0.0,0.0,0.0,0.0,0.0,0.0,0.0,0.0,0.0,-3.6921,-3.6457,-3.6724,-3.6746,-3.6291,-3.6266,-3.6266,-3.6266,0.0,0.0,0.0,0.0,0.0,0.0,0.0,0.0,0.0,0.0,0.0,0.0,0.0,0.0,0.0,0.0,0.0,0.0,0.0,0.0,0.0,0.0,0.0,0.0,0.0,0.0,0.0,0.0,0.0,0.0,0.0,0.0,0.0,0.0,0.0,0.0,0.0,0.0,0.0,0.0,0.0,0.0,0.0,0.0,0.0,0.0,0.0,0.0,0.0,0.0,0.0,0.0,0.0,0.0,0.0,0.0,0.0,0.0,0.0,0.0,0.0,0.0,0.0,0.0,0.0,0.0,0.0,0.0,0.0,0.0,0.0,0.0,0.0,0.0,0.0,0.0,0.0,0.0,0.0,0.0,0.0,0.0,0.0,0.0,0.0,0.0,0.0,0.0,0.0,0.0,0.0,0.0,0.0,0.0,0.0,0.0,0.0,0.0,0.0,0.0,0.0,0.0,0.0,-3.7703,-3.7396,-3.6882,-3.7058,-3.7097,-3.6825,-3.6843,-3.6843,-3.6843,-3.6761,0.0,0.0,0.0,0.0,0.0,0.0,0.0,0.0,0.0,0.0,0.0,0.0,0.0,0.0,0.0,0.0,0.0,0.0,0.0,0.0,0.0,0.0,0.0,0.0,0.0,0.0,0.0,0.0,0.0,0.0,0.0,0.0,0.0,0.0,0.0,0.0,0.0,0.0,0.0,0.0,0.0,0.0,0.0,0.0,0.0,0.0,0.0,0.0,0.0,0.0,0.0,0.0,0.0,0.0,0.0,0.0,0.0,0.0,0.0,0.0,0.0,0.0,0.0,0.0,0.0,0.0,0.0,0.0,0.0,0.0,0.0,0.0,0.0,0.0,0.0,0.0,0.0,0.0,0.0,0.0,0.0,0.0,0.0,0.0,0.0,0.0,0.0,0.0,0.0,0.0,0.0,0.0,0.0,0.0,0.0,0.0,0.0,0.0,0.0,0.0,0.0,0.0,-3.7808,-3.7911,-3.7396,-3.7487,-3.7451,-3.7228,-3.7285,-3.7323,-3.7228,-3.7542,0.0,0.0,0.0,0.0,0.0,0.0,0.0,0.0,0.0,0.0,0.0,0.0,0.0,0.0,0.0,0.0,0.0,0.0,0.0,0.0,0.0,0.0,0.0,0.0,0.0,0.0,0.0,0.0,0.0,0.0,0.0,0.0,0.0,0.0,0.0,0.0,0.0,0.0,0.0,0.0,0.0,0.0,0.0,0.0,0.0,0.0,0.0,0.0,0.0,0.0,0.0,0.0,0.0,0.0,0.0,0.0,0.0,0.0,0.0,0.0,0.0,0.0,0.0,0.0,0.0,0.0,0.0,0.0,0.0,0.0,0.0,0.0,0.0,0.0,0.0,0.0,0.0,0.0,0.0,0.0,0.0,0.0,0.0,0.0,0.0,0.0,0.0,0.0,0.0,0.0,0.0,0.0,0.0,0.0,0.0,0.0,0.0,0.0,0.0,0.0,0.0,0.0,-3.83,-3.8433,-3.7911,-3.83,-3.8219,-3.7303,-3.7614,-3.7649,-3.7228,-3.721,0.0,0.0,0.0,0.0,0.0,0.0,0.0,0.0,0.0,0.0,0.0,0.0,0.0,0.0,0.0,0.0,0.0,0.0,0.0,0.0,0.0,0.0,0.0,0.0,0.0,0.0,0.0,0.0,0.0,0.0,0.0,0.0,0.0,0.0,0.0,0.0,0.0,0.0,0.0,0.0,0.0,0.0,0.0,0.0,0.0,0.0,0.0,0.0,0.0,0.0,0.0,0.0,0.0,0.0,0.0,0.0,0.0,0.0,0.0,0.0,0.0,0.0,0.0,0.0,0.0,0.0,0.0,0.0,0.0,0.0,0.0,0.0,0.0,0.0,0.0,0.0,0.0,0.0,0.0,0.0,0.0,0.0,0.0,0.0,0.0,0.0,0.0,0.0,0.0,0.0,0.0,0.0,0.0,0.0,0.0,0.0,0.0,0.0,0.0,0.0,0.0,0.0,-3.8596,-3.8627,0.0,-3.8578,-3.8564,-3.8168,-3.8318,-3.8318,-3.8135,0.0,0.0,0.0,0.0,0.0,0.0,0.0,0.0,0.0,0.0,0.0,0.0,0.0,0.0,0.0,0.0,0.0,0.0,0.0,0.0,0.0,0.0,0.0,0.0,0.0,0.0,0.0,0.0,0.0,0.0,0.0,0.0,0.0,0.0,0.0,0.0,0.0,0.0,0.0,0.0,0.0,0.0,0.0,0.0,0.0,0.0,0.0,0.0,0.0,0.0,0.0,0.0,0.0,0.0,0.0,0.0,0.0,0.0,0.0,0.0,0.0,0.0,0.0,0.0,0.0,0.0,0.0,0.0,0.0,0.0,0.0,0.0,0.0,0.0,0.0,0.0,0.0,0.0,0.0,0.0,0.0,0.0,0.0,0.0,0.0,0.0,0.0,0.0,0.0,0.0,0.0,0.0,0.0,0.0,0.0,0.0,0.0,0.0,0.0,0.0,0.0,0.0,-3.8707,-3.8707,-3.8707,0.0,-3.8707,-3.8627,-3.8465,-3.8596,-3.8627,-3.8465,0.0,0.0,0.0,0.0,0.0,0.0,0.0,0.0,0.0,0.0,0.0,0.0,0.0,0.0,0.0,0.0,0.0,0.0,0.0,0.0,0.0,0.0,0.0,0.0,0.0,0.0,0.0,0.0,0.0,0.0,0.0,0.0,0.0,0.0,0.0,0.0,0.0,0.0,0.0,0.0,0.0,0.0,0.0,0.0,0.0,0.0,0.0,0.0,0.0,0.0,0.0,0.0,0.0,0.0,0.0,0.0,0.0,0.0,0.0,0.0,0.0,0.0,0.0,0.0,0.0,0.0,0.0,0.0,0.0,0.0,0.0,0.0,0.0,0.0,0.0,0.0,0.0,0.0,0.0,0.0,0.0,0.0,0.0,0.0,0.0,0.0,0.0,0.0,0.0,0.0,0.0,0.0,0.0,0.0,0.0,0.0,0.0,0.0,0.0,0.0,0.0,0.0,-3.8707,-3.8707,-3.8707,-3.8707,-3.8707,-3.8496,-3.7946,-3.8382,-3.8465,0.0,0.0,0.0,0.0,0.0,0.0,0.0,0.0,0.0,0.0,0.0,0.0,0.0,0.0,0.0,0.0,0.0,0.0,0.0,0.0,0.0,0.0,0.0,0.0,0.0,0.0,0.0,0.0,0.0,0.0,0.0,0.0,0.0,0.0,0.0,0.0,0.0,0.0,0.0,0.0,0.0,0.0,0.0,0.0,0.0,0.0,0.0,0.0,0.0,0.0,0.0,0.0,0.0,0.0,0.0,0.0,0.0,0.0,0.0,0.0,0.0,0.0,0.0,0.0,0.0,0.0,0.0,0.0,0.0,0.0,0.0,0.0,0.0,0.0,0.0,0.0,0.0,0.0,0.0,0.0,0.0,0.0,0.0,0.0,0.0,0.0,0.0,0.0,0.0,0.0,0.0,0.0,0.0,0.0,0.0,0.0,0.0,0.0,0.0,0.0,0.0,0.0,0.0,-3.8707,-3.8707,-3.8707,-3.8707,-3.8707,-3.8627,-3.8465,-3.8627,-3.8627,-3.8465,0.0,0.0,0.0,0.0,0.0,0.0,0.0,0.0,0.0,0.0,0.0,0.0,0.0,0.0,0.0,0.0,0.0,0.0,0.0,0.0,0.0,0.0,0.0,0.0,0.0,0.0,0.0,0.0,0.0,0.0,0.0,0.0,0.0,0.0,0.0,0.0,0.0,0.0,0.0,0.0,0.0,0.0,0.0,0.0,0.0,0.0,0.0,0.0,0.0,0.0,0.0,0.0,0.0,0.0,0.0,0.0,0.0,0.0,0.0,0.0,0.0,0.0,0.0,0.0,0.0,0.0,0.0,0.0,0.0,0.0,0.0,0.0,0.0,0.0,0.0,0.0,0.0,0.0,0.0,0.0,0.0,0.0,0.0,0.0,0.0,0.0,0.0,0.0,0.0,0.0,0.0,0.0,0.0,0.0,0.0,0.0,0.0,0.0,0.0,0.0,0.0,0.0,-3.8707,-3.8707,-3.8707,-3.8707,-3.8707,-3.8707,-3.8707,-3.8707,-3.8707,-3.8707,0.0,0.0,0.0,0.0,0.0,0.0,0.0,0.0,0.0,0.0,0.0,0.0,0.0,0.0,0.0,0.0,0.0,0.0,0.0,0.0,0.0,0.0,0.0,0.0,0.0,0.0,0.0,0.0,0.0,0.0,0.0,0.0,0.0,0.0,0.0,0.0,0.0,0.0,0.0,0.0,0.0,0.0,0.0,0.0,0.0,0.0,0.0,0.0,0.0,0.0,0.0,0.0,0.0,0.0,0.0,0.0,0.0,0.0,0.0,0.0,0.0,0.0,0.0,0.0,0.0,0.0,0.0,0.0,0.0,0.0,0.0,0.0,0.0,0.0,0.0,0.0,0.0,0.0,0.0,0.0,0.0,0.0,0.0,0.0,0.0,0.0,0.0,0.0,0.0,0.0,0.0,0.0,0.0,0.0,0.0,0.0,0.0,0.0,0.0,0.0,0.0,0.0,-3.8707,-3.8707,-3.8707,-3.8707,-3.8707,-3.8707,-3.8707,-3.8658,-3.8627,-3.8627,0.0,0.0,0.0,0.0,0.0,0.0,0.0,0.0,0.0,0.0,0.0,0.0,0.0,0.0,0.0,0.0,0.0,0.0,0.0,0.0,0.0,0.0,0.0,0.0,0.0,0.0,0.0,0.0,0.0,0.0,0.0,0.0,0.0,0.0,0.0,0.0,0.0,0.0,0.0,0.0,0.0,0.0,0.0,0.0,0.0,0.0,0.0,0.0,0.0,0.0,0.0,0.0,0.0,0.0,0.0,0.0,0.0,0.0,0.0,0.0,-3.6431,0.0,0.0,0.0,0.0,0.0,0.0,0.0,0.0,0.0,0.0,0.0,0.0,0.0,0.0,0.0,0.0,0.0,0.0,0.0,0.0,0.0,0.0,0.0,0.0,0.0,0.0,0.0,0.0,0.0,0.0,0.0,0.0,0.0,0.0,0.0,0.0,0.0,0.0,0.0,0.0,0.0,-3.8707,-3.8707,-3.8707,-3.8707,-3.8707,-3.8707,-3.8707,-3.83,-3.8065,-3.8065,-3.7738,0.0,0.0,0.0,0.0,0.0,0.0,0.0,0.0,0.0,0.0,0.0,0.0,0.0,0.0,0.0,0.0,0.0,0.0,0.0,0.0,0.0,0.0,0.0,0.0,0.0,0.0,0.0,0.0,0.0,0.0,0.0,0.0,0.0,0.0,0.0,0.0,0.0,0.0,0.0,0.0,0.0,0.0,0.0,0.0,0.0,0.0,0.0,0.0,0.0,0.0,0.0,0.0,0.0,0.0,0.0,0.0,0.0,0.0,0.0,0.0,-3.7058,0.0,0.0,0.0,0.0,0.0,0.0,0.0,0.0,0.0,0.0,0.0,0.0,0.0,0.0,0.0,0.0,0.0,0.0,0.0,0.0,0.0,0.0,0.0,0.0,0.0,0.0,0.0,0.0,0.0,0.0,0.0,0.0,0.0,0.0,0.0,0.0,0.0,0.0,0.0,0.0,-3.8707,-3.8707,-3.8707,-3.8707,-3.8707,-3.8707,-3.8707,-3.8446,-3.8183,-3.7911,-3.7685,0.0,0.0,0.0,0.0,0.0,0.0,0.0,0.0,0.0,0.0,0.0,0.0,0.0,0.0,0.0,0.0,0.0,0.0,0.0,0.0,0.0,0.0,0.0,0.0,0.0,0.0,0.0,0.0,0.0,0.0,0.0,0.0,0.0,0.0,0.0,0.0,0.0,0.0,0.0,0.0,0.0,0.0,0.0,0.0,0.0,0.0,0.0,0.0,0.0,0.0,0.0,0.0,0.0,-3.5622,-3.5622,-3.5622,-3.6054,-3.6028,-3.5667,-3.6522,-3.6481,-3.5854,-3.7099,0.0,0.0,0.0,0.0,0.0,0.0,0.0,0.0,0.0,0.0,0.0,0.0,0.0,0.0,0.0,0.0,0.0,0.0,0.0,0.0,0.0,0.0,0.0,0.0,-3.8707,-3.8707,-3.8707,0.0,0.0,0.0,0.0,0.0,0.0,0.0,0.0,0.0,0.0,0.0,-3.8707,-3.8707,-3.8707,-3.8707,-3.8707,-3.8658,-3.8578,-3.8483,-3.8201,-3.7685,-3.756,-3.7379,0.0,0.0,0.0,0.0,0.0,0.0,0.0,0.0,0.0,0.0,0.0,0.0,0.0,0.0,0.0,0.0,0.0,0.0,0.0,0.0,0.0,0.0,0.0,0.0,0.0,0.0,0.0,0.0,0.0,0.0,0.0,0.0,-3.5334,-3.5334,0.0,0.0,0.0,0.0,0.0,0.0,0.0,0.0,0.0,0.0,0.0,0.0,0.0,-3.5622,-3.5622,-3.5622,-3.5622,-3.5622,-3.5622,-3.5622,-3.5622,-3.565,-3.5667,-3.5622,-3.5739,0.0,-3.6291,-3.6522,0.0,0.0,0.0,0.0,0.0,0.0,0.0,0.0,0.0,0.0,0.0,0.0,0.0,0.0,0.0,0.0,0.0,0.0,0.0,0.0,0.0,0.0,-3.8707,-3.8707,-3.8707,-3.8707,0.0,-3.8707,-3.8707,-3.8707,-3.8707,0.0,0.0,0.0,0.0,0.0,0.0,0.0,-3.8707,-3.8707,-3.8707,-3.8707,-3.8707,-3.8496,-3.8065,-3.7614,-3.7173,-3.6643,-3.6165,-3.6079,-3.6498,-3.6498,0.0,0.0,0.0,0.0,0.0,0.0,0.0,0.0,0.0,0.0,0.0,0.0,0.0,0.0,0.0,0.0,0.0,0.0,0.0,0.0,0.0,0.0,0.0,0.0,0.0,0.0,0.0,0.0,0.0,-3.6139,-3.5694,-3.6011,-3.5766,-3.5622,0.0,0.0,0.0,0.0,0.0,0.0,0.0,0.0,0.0,-3.5622,-3.6045,-3.6265,-3.6265,-3.6705,-3.6907,-3.6907,-3.6907,-3.6907,-3.6907,-3.6907,-3.6907,-3.6907,-3.6907,-3.7029,-3.7216,-3.6611,-3.6643,-3.7097,0.0,0.0,0.0,0.0,-3.7506,-3.7433,-3.6921,-3.6764,0.0,-3.6981,0.0,0.0,0.0,0.0,0.0,0.0,0.0,0.0,0.0,0.0,-3.8707,-3.8707,-3.8707,-3.8707,-3.8707,-3.8707,-3.8707,0.0,-3.8707,-3.8707,-3.8707,0.0,0.0,0.0,0.0,-3.8707,-3.8707,-3.8707,-3.8707,-3.8707,-3.8433,-3.815,-3.7911,-3.747,-3.696,-3.6416,-3.6182,-3.6028,-3.5941,-3.6224,-3.6603,0.0,0.0,0.0,0.0,0.0,0.0,0.0,0.0,0.0,0.0,0.0,0.0,0.0,0.0,0.0,0.0,0.0,0.0,0.0,0.0,0.0,0.0,0.0,0.0,0.0,0.0,0.0,0.0,-3.6079,-3.5739,-3.6139,-3.5854,-3.5622,0.0,0.0,0.0,0.0,0.0,0.0,-3.591,-3.6113,-3.6197,-3.6197,-3.6772,-3.706,-3.706,-3.7635,-3.7905,-3.7905,-3.7905,-3.7905,-3.7905,-3.7905,-3.7905,-3.7905,-3.7905,-3.7905,-3.7868,-3.709,-3.6835,-3.6988,-3.7404,-3.7641,-3.7736,-3.7602,-3.7563,-3.7484,-3.7095,-3.6878,-3.6775,-3.6887,-3.6841,-3.6943,-3.7667,0.0,0.0,0.0,0.0,-3.8707,-3.8707,-3.8707,-3.8707,-3.8707,-3.8707,-3.8707,-3.8707,-3.8707,-3.8707,0.0,-3.8707,-3.8707,-3.8707,0.0,0.0,0.0,0.0,-3.8707,-3.8707,-3.8707,-3.8658,-3.8496,-3.815,-3.779,-3.7542,-3.721,-3.6764,-3.6224,-3.6182,-3.6028,-3.5622,-3.5968,-3.6266,-3.6392,0.0,0.0,0.0,0.0,0.0,0.0,0.0,0.0,0.0,0.0,0.0,0.0,0.0,0.0,0.0,0.0,0.0,0.0,0.0,0.0,0.0,0.0,0.0,0.0,0.0,0.0,0.0,0.0,0.0,-3.5622,-3.5622,0.0,0.0,0.0,0.0,-3.5622,-3.6299,-3.6721,-3.6721,-3.7398,-3.7787,-3.7787,-3.7821,-3.7838,-3.7838,-3.7889,-3.7905,-3.7905,-3.7905,-3.7905,-3.7905,-3.7905,-3.7905,-3.7905,-3.7905,-3.7905,-3.7905,-3.7868,-3.8094,-3.8486,-3.8529,-3.8831,-3.9206,-3.8703,-3.8529,-3.8529,-3.8573,-3.8242,-3.7887,-3.8193,-3.8076,-3.7825,-3.7893,-3.8267,0.0,0.0,-3.8707,-3.8707,-3.8707,-3.8707,-3.8707,-3.8707,-3.8707,-3.8707,-3.8707,-3.8707,-3.8707,0.0,-3.8707,-3.8707,-3.8707,0.0,-3.8707,-3.8707,-3.8707,-3.8707,-3.8707,-3.8707,-3.8496,-3.798,-3.7911,-3.7524,-3.658,-3.6457,-3.6224,-3.565,-3.5667,-3.5622,-3.5622,-3.5622,-3.5898,-3.6374,-3.6416,0.0,0.0,0.0,0.0,0.0,0.0,0.0,0.0,0.0,0.0,0.0,0.0,0.0,0.0,0.0,0.0,0.0,0.0,0.0,0.0,0.0,0.0,0.0,0.0,0.0,0.0,0.0,0.0,-3.6054,-3.627,0.0,-3.6366,-3.6806,-3.7094,-3.7094,-3.7347,-3.7499,-3.7499,-3.777,-3.7905,-3.7905,-3.8362,-3.8616,-3.8616,-3.9073,-3.9309,-3.9309,-3.9309,-3.9309,-3.9309,-3.9309,-3.9309,-3.9309,-3.9309,-3.9309,-3.9309,-3.9309,-3.888,-3.8167,-3.8167,-3.8259,-3.8425,-3.8213,-3.8167,-3.8167,-3.8167,-3.8271,-3.8518,-3.9012,-3.9276,-3.9463,-3.9463,-3.9829,-4.0249,-4.0249,-4.0249,-4.0249,-4.0249,-4.0249,-4.0249,-4.0249,-4.0249,-4.0249,-4.0249,-4.0249,-4.0249,-4.0249,-3.9423,-3.8707,-3.8707,-3.8707,-3.8707,-3.8707,-3.8707,-3.8707,-3.8707,-3.8382,-3.8099,-3.7911,-3.7305,-3.6786,-3.6416,-3.6097,-3.581,-3.5622,-3.5622,-3.5622,-3.5622,-3.5622,-3.5694,-3.5898,-3.6224,-3.6498,0.0,0.0,0.0,0.0,0.0,0.0,0.0,0.0,0.0,0.0,0.0,0.0,0.0,0.0,0.0,0.0,0.0,0.0,0.0,0.0,0.0,0.0,0.0,0.0,0.0,0.0,-3.652,-3.6886,-3.7053,-3.7161,-3.7161,-3.7618,-3.7905,-3.7905,-3.8142,-3.8278,-3.8278,-3.8514,-3.8633,-3.8633,-3.936,-3.9732,-3.9732,-4.046,-4.0815,-4.0815,-4.0815,-4.0815,-4.0815,-4.0815,-4.0815,-4.0815,-4.0815,-4.0815,-4.0815,-4.0815,-4.0104,-3.9005,-3.8734,-3.8633,-3.8633,-3.8633,-3.8633,-3.8633,-3.8633,-3.8824,-3.912,-3.9508,-3.9686,-3.9771,-3.9942,-4.0366,-4.0771,-4.058,-4.0789,-4.106,-4.0857,-4.0943,-4.1111,-4.1111,-4.1111,-4.1111,-4.1111,-4.1111,-4.1111,-4.1111,-4.0249,-3.9433,-3.9236,-3.9383,-3.9369,-3.9,-3.9085,-3.9061,-3.8604,-3.8257,-3.7864,-3.7451,-3.6786,-3.635,-3.6139,-3.581,-3.5622,-3.5622,-3.5622,-3.5622,-3.5622,-3.5622,-3.5622,-3.5622,-3.6139,-3.6374,-3.6374,0.0,0.0,0.0,0.0,0.0,0.0,0.0,0.0,0.0,0.0,0.0,0.0,0.0,0.0,0.0,0.0,0.0,0.0,0.0,0.0,0.0,0.0,0.0,-3.6971,-3.7449,-3.7905,-3.7905,-3.7922,-3.7939,-3.7939,-3.7973,-3.7973,-3.7973,-3.8633,-3.9039,-3.9056,-3.9732,-4.0121,-4.0155,-4.0849,-4.1238,-4.1238,-4.1931,-4.2286,-4.2286,-4.2286,-4.2286,-4.2286,-4.2286,-4.2286,-4.2286,-4.2286,-4.2286,-4.2286,-4.2286,-4.188,-4.117,-4.0409,-4.0104,-4.007,-4.007,-4.007,-4.0121,-4.0121,-3.9987,-3.9829,-3.9783,-3.9264,-3.8834,-3.9359,-3.9878,-4.0164,-3.9665,-4.0329,-4.1049,-4.0456,-4.0722,-4.1185,-4.1185,-4.1185,-4.1185,-4.1185,-4.1185,-4.1185,-4.1185,-4.1152,-4.0964,-4.0348,-4.0719,-4.0721,-3.9611,-3.9922,0.0,-3.8522,-3.8337,-3.784,-3.6596,-3.6409,-3.6182,-3.5701,-3.5639,-3.5622,-3.5622,-3.5622,-3.5622,-3.5622,-3.5622,-3.5622,-3.5605,-3.6139,-3.6374,-3.6416,0.0,0.0,0.0,0.0,0.0,0.0,0.0,0.0,0.0,0.0,0.0,0.0,0.0,0.0,0.0,0.0,0.0,0.0,0.0,0.0,0.0,0.0,-3.854,-3.8184,-3.8001,-3.7905,-3.7905,-3.8379,-3.87,-3.87,-3.9174,-3.9478,-3.9478,-3.9665,-4.002,-4.0561,-4.0798,-4.1136,-4.166,-4.188,-4.1999,-4.1999,-4.2185,-4.2286,-4.2286,-4.2286,-4.2286,-4.2286,-4.2286,-4.2286,-4.2286,-4.2286,-4.2286,-4.2286,-4.2286,-4.2168,-4.1914,-4.1187,-4.0561,-4.007,-4.007,-4.007,-4.0171,-4.0528,-4.0642,-4.07,-4.1086,-4.1392,-4.1618,-4.1755,-4.2176,-4.2574,-4.2414,-4.2592,-4.2784,-4.2662,-4.2715,-4.2837,-4.2837,-4.2837,-4.2837,-4.2837,-4.2837,-4.2837,-4.2837,-4.254,-4.196,-4.1024,-4.0994,-4.0994,-4.0668,-4.0755,0.0,-3.9786,-3.891,-3.8285,-3.8035,-3.6688,-3.6021,-3.6417,-3.5943,-3.5622,-3.5622,-3.5622,-3.5622,-3.5622,-3.5622,-3.5766,-3.6182,-3.5941,-3.6207,0.0,0.0,0.0,0.0,0.0,0.0,0.0,0.0,0.0,0.0,0.0,0.0,0.0,0.0,0.0,0.0,0.0,0.0,0.0,0.0,0.0,0.0,-3.9525,-3.9423,-3.9247,-3.901,-3.8819,-3.8819,-3.9191,-3.9445,-3.9445,-3.9834,-4.0206,-4.0527,-4.0544,-4.0882,-4.1627,-4.166,-4.1863,-4.2286,-4.2591,-4.276,-4.276,-4.3081,-4.325,-4.325,-4.325,-4.325,-4.325,-4.325,-4.325,-4.325,-4.325,-4.325,-4.325,-4.325,-4.3047,0.0,0.0,0.0,0.0,0.0,-4.0358,-4.0171,-4.0449,-4.0577,-4.0625,-4.0984,-4.1348,-4.1613,-4.1613,-4.1979,-4.2368,-4.2126,-4.2426,-4.2734,-4.2505,-4.2582,-4.2847,-4.3087,-4.3178,-4.3214,-4.3444,-4.3497,-4.3497,-4.3497,-4.325,0.0,-4.1921,-4.1542,-4.1248,-4.0749,-4.0867,-4.0703,-3.9799,-3.9101,-3.8425,-3.7899,-3.6814,-3.6163,-3.6282,-3.5876,0.0,0.0,0.0,-3.5622,-3.5622,-3.5622,0.0,0.0,0.0,-3.6139,-3.6522,0.0,0.0,0.0,-3.7193,-3.7773,0.0,0.0,0.0,0.0,0.0,0.0,0.0,0.0,0.0,0.0,0.0,0.0,0.0,0.0,0.0,0.0,-4.0417,-4.007,-4.007,-4.007,-4.007,-4.007,-4.007,-4.0104,-4.0206,-4.0206,-4.051,-4.1271,-4.1322,-4.1644,-4.2371,0.0,0.0,0.0,0.0,-4.3555,-4.3555,-4.4231,-4.4587,-4.4587,-4.4587,-4.4587,-4.4587,-4.4587,-4.4587,-4.4587,-4.4587,-4.4587,-4.4587,-4.4587,-4.4181,-4.347,-4.2625,-4.2286,-4.2219,-4.1576,-4.0899,-4.0324,-4.0223,0.0,0.0,-4.0104,-4.0121,-4.0204,-4.0204,-4.0577,-4.092,-4.0417,-4.103,-4.1664,-4.1133,-4.1402,-4.1937,-4.248,-4.2616,-4.2732,-4.3196,-4.3321,-4.3321,-4.3321,-4.3267,-4.3069,-4.2616,-4.2162,-4.1552,-4.0466,-4.0703,-4.0585,-3.937,-3.912,-3.8577,-3.7208,0.0,0.0,-3.5808,-3.5673,-3.5622,-3.5622,-3.5622,-3.5622,-3.5622,-3.5622,-3.5622,-3.5622,-3.6071,-3.6054,-3.5622,-3.6097,-3.6139,-3.581,-3.7061,-3.7911,0.0,0.0,0.0,0.0,0.0,0.0,0.0,0.0,0.0,0.0,0.0,0.0,0.0,0.0,0.0,-4.0254,-4.0171,-4.007,-4.007,-4.007,-4.007,-4.007,-4.007,-4.0307,-4.0933,-4.0984,-4.1288,-4.2016,-4.2083,-4.2405,-4.3166,-4.32,-4.3487,-4.4113,-4.4282,-4.435,-4.435,-4.4502,-4.4587,-4.4587,0.0,0.0,-4.4587,-4.4587,-4.4587,-4.4587,-4.4587,-4.4587,-4.4587,-4.4587,-4.4485,-4.4215,-4.2828,-4.2286,-4.2269,-4.2134,-4.1999,-4.1779,-4.1187,-4.0984,-4.0882,-4.0273,-4.0417,-4.075,-4.075,-4.1133,0.0,-4.1508,-4.1639,-4.175,-4.1664,-4.1707,-4.1853,-4.1937,-4.1979,-4.2021,-4.2103,-4.2144,-4.2144,-4.2144,-4.1732,-4.1402,-4.1321,-4.2015,-4.2302,-4.1595,-4.1534,-4.1349,-4.0637,-4.0008,-3.9358,-3.8631,-3.7499,-3.6721,-3.6569,-3.5977,-3.5622,-3.5622,-3.5622,-3.5622,-3.5622,-3.5622,-3.5622,-3.5622,-3.5694,-3.5694,-3.5622,-3.5694,-3.6139,-3.6865,-3.6316,-3.6316,0.0,0.0,0.0,0.0,0.0,0.0,0.0,0.0,0.0,0.0,0.0,-4.0237,0.0,0.0,-4.007,-4.007,-4.0392,-4.0646,-4.0646,-4.095,-4.1052,-4.0679,-4.0646,-4.0933,-4.1677,-4.1745,-4.2066,-4.2811,-4.2861,-4.32,-4.3961,-4.3995,-4.435,-4.5128,-4.5145,-4.5314,-4.5686,-4.5686,-4.5686,-4.5686,-4.5686,-4.5686,-4.5686,-4.5686,-4.5686,-4.5686,-4.5686,-4.5483,-4.5111,-4.4739,-4.4587,-4.4502,-4.3741,-4.32,-4.2861,-4.2861,-4.2625,-4.2236,-4.188,-4.1745,-4.1677,-4.1305,-4.1154,-4.1062,-4.1062,-4.103,-4.0938,-4.0938,-4.0938,-4.0938,-4.0938,-4.0938,-4.103,-4.1268,-4.1358,-4.1446,-4.1707,-4.181,-4.181,-4.181,-4.1578,-4.1268,-4.0984,-4.142,-4.1595,-4.103,-4.0938,-4.0861,-4.0546,-4.0172,-3.958,-3.858,-3.7787,-3.7026,-3.6265,-3.5842,-3.5622,-3.5622,-3.5622,-3.5622,-3.5622,-3.5622,-3.5622,-3.5622,-3.5622,-3.5622,-3.5622,-3.5622,-3.5898,-3.6399,-3.5854,-3.6316,0.0,0.0,0.0,0.0,0.0,0.0,0.0,0.0,-4.0856,-4.078,-4.0417,-4.0305,-4.0844,-4.059,-4.0341,-4.0476,-4.1018,-4.1407,-4.1407,-4.1931,-4.2117,-4.1694,-4.1508,-4.1694,-4.2439,-4.2506,-4.2828,-4.3589,-4.3639,-4.3978,-4.4756,-4.479,-4.5145,-4.5889,-4.5923,-4.6194,-4.6786,-4.6786,-4.6786,-4.6786,-4.6786,-4.6786,-4.6786,-4.6786,-4.6786,-4.6786,-4.6786,-4.6464,-4.5855,-4.5111,-4.479,-4.479,-4.4637,-4.4198,-4.3639,-4.3639,-4.3267,-4.2709,-4.2557,-4.2506,-4.2489,-4.2337,-4.1897,-4.1407,-4.1407,-4.0984,-4.0476,-4.0341,-4.029,-4.0257,-4.0121,-4.007,-4.0204,-4.0655,-4.0733,-4.0874,-4.1358,-4.1464,-4.1464,-4.1464,-4.1464,-4.1331,-4.0827,-4.0733,-4.0625,-4.0171,-4.007,-4.007,-4.007,-4.007,-3.9512,-3.8075,-3.7905,-3.7297,-3.574,-3.5622,-3.5622,-3.5622,-3.5622,-3.5622,-3.5622,-3.5622,-3.5622,-3.5622,-3.5622,-3.5622,-3.5622,-3.5622,-3.565,-3.5739,-3.5667,-3.6504,-4.1895,-4.1446,0.0,-4.0995,-4.0949,-4.078,0.0,0.0,-4.078,-4.0286,-4.0121,-4.0324,-4.1036,-4.112,-4.1288,-4.1948,-4.2117,-4.2168,-4.2168,-4.2236,-4.2506,-4.3098,-4.2591,-4.2472,-4.3217,-4.3301,-4.3623,-4.4401,-4.4451,-4.4773,-4.5551,-4.5585,-4.5906,-4.665,-4.6667,-4.6718,-4.6786,-4.6786,-4.6786,-4.6786,-4.6786,-4.6786,-4.6786,-4.6786,-4.6786,-4.6786,-4.6786,-4.6735,-4.6616,-4.5872,-4.5585,-4.5517,-4.484,-4.4536,-4.4451,-4.4451,-4.4401,-4.4215,-4.3538,-4.3301,-4.3183,-4.2506,-4.2236,-4.2168,-4.2168,-4.2117,-4.1914,-4.1255,-4.1085,-4.0933,-4.0257,-4.007,-4.0138,-4.0171,-4.0204,-4.0204,-4.0303,-4.0303,-4.0303,-4.0303,-4.0303,-4.0254,-4.0204,-4.0204,-4.0154,-4.0121,-4.007,-4.007,-4.007,-4.007,-3.9512,-3.8075,-3.7905,-3.7297,-3.574,-3.5622,-3.5622,-3.5622,-3.5622,-3.5622,-3.5622,-3.5622,-3.5622,-3.5622,-3.5622,-3.5622,-3.5622,-3.5622,-3.5854,-3.6308,-3.581,-3.5739,-4.0814,0.0,0.0,0.0,-4.0449,-4.0368,-4.0171,-4.0286,-4.0368,-4.0171,-4.0426,-4.0832,-4.1136,-4.1542,-4.1931,0.0,-4.2658,-4.2946,-4.2946,-4.3335,-4.3741,-4.4062,-4.3826,-4.3741,-4.4062,-4.4096,-4.4418,-4.5179,-4.5229,-4.5551,-4.6295,-4.6346,-4.6684,-4.7428,-4.7445,-4.7648,-4.8071,-4.8088,-4.8088,-4.8088,-4.8088,-4.8088,-4.8088,-4.8088,-4.8088,-4.8054,-4.7631,-4.7445,-4.7394,-4.6633,-4.6346,-4.6261,-4.5534,-4.5229,-4.5179,-4.4739,-4.4587,-4.4536,-4.4215,-4.4096,-4.4045,-4.3724,-4.3318,-4.2946,-4.2946,-4.2642,-4.2236,-4.1931,-4.183,-4.166,-4.0933,-4.073,-4.0629,-4.0172,-4.007,-4.007,-4.007,-4.007,-4.007,-4.007,-4.007,-4.007,-4.007,-4.007,-4.007,-4.007,-4.007,-4.007,-4.007,-4.007,-3.9512,-3.8075,-3.711,-3.6315,-3.5673,-3.5622,-3.5622,-3.5622,-3.5622,-3.5622,-3.5622,-3.5622,-3.5622,-3.5622,-3.5622,-3.5622,-3.5622,-3.5622,-3.5694,-3.5941,-3.5694,-3.5622,-4.0121,0.0,0.0,-4.0204,-4.007,-4.007,-4.007,-4.024,-4.0392,-4.0392,-4.0984,-4.1576,-4.1779,-4.2252,-4.2675,-4.2895,-4.3386,-4.3741,-4.3741,-4.4215,-4.4587,-4.4587,-4.4587,-4.4587,-4.4587,-4.4773,-4.5111,-4.5669,-4.5889,-4.6329,-4.7056,-4.7107,-4.7445,-4.8189,-4.8223,-4.8477,-4.9001,-4.9001,-4.9001,-4.9001,-4.9001,-4.9001,-4.9001,-4.9001,-4.9001,-4.8968,-4.8443,-4.8223,-4.8156,-4.7411,-4.7107,-4.7022,-4.6295,-4.6007,-4.5906,-4.5162,-4.4756,-4.4587,-4.4587,-4.4587,-4.4587,-4.4587,-4.4198,-4.3741,-4.3741,-4.3352,-4.2878,-4.2658,-4.2591,-4.2439,-4.1694,-4.1508,-4.1322,-4.0561,-4.0392,-4.0341,-4.0121,-4.007,-4.007,-4.007,-4.007,-4.007,-4.007,-4.007,-4.007,-4.007,-4.007,-4.007,-4.007,-3.9732,-3.9073,-3.8024,-3.6535,-3.5622,-3.5622,-3.5622,-3.5622,-3.5622,-3.5622,-3.5622,-3.5622,-3.5622,-3.5622,-3.5622,-3.5622,-3.5622,-3.5622,-3.5622,-3.5622,-3.5622,-3.5622,-3.5622,0.0,0.0,-4.0121,-4.0121,-4.007,-4.007,-4.007,-4.0646,-4.117,-4.117,-4.1745,-4.2489,-4.3217,-4.3369,-4.3639,-4.4384,-4.4536,-4.4536,-4.4536,-4.4553,-4.4587,-4.4587,-4.4587,-4.4587,0.0,-4.5246,-4.5686,-4.5703,-4.6363,-4.709,-4.7851,-4.7885,-4.8206,-4.8951,-4.8968,-4.8984,-4.9001,-4.9001,-4.9001,-4.9001,-4.9001,-4.9001,-4.9001,-4.9001,-4.9001,-4.9001,-4.8984,-4.8968,-4.8917,-4.8189,-4.7885,-4.78,-4.7056,-4.6752,-4.6667,-4.594,-4.5213,-4.4587,-4.4587,-4.4587,-4.4587,-4.4587,-4.4553,-4.4536,-4.4536,-4.4536,-4.435,-4.3606,-4.3386,-4.3217,-4.2455,-4.2252,-4.2066,-4.1339,-4.117,-4.0967,-4.024,-4.007,-4.007,-4.007,-4.007,-4.007,-4.007,-4.007,-4.007,-4.007,-4.007,-4.007,-4.007,-3.8853,-3.7956,-3.7905,-3.6535,-3.5622,-3.5622,-3.5622,-3.5622,-3.5622,-3.5622,-3.5622,-3.5622,-3.5622,-3.5622,-3.5622,-3.5622,-3.5622,-3.5622,-3.5622,-3.5622,-3.5622,-3.5622,-3.5622,0.0,0.0,-4.007,-4.007,-4.007,-4.007,-4.007,-4.0663,-4.1204,-4.1204,-4.2185,-4.3115,-4.3369,-4.3842,-4.4265,-4.4536,-4.4587,-4.4587,-4.4587,-4.4587,-4.4587,-4.4587,-4.4587,0.0,0.0,0.0,0.0,-4.6397,-4.7107,-4.7868,-4.8595,-4.8646,-4.8748,-4.9001,-4.9001,-4.9001,-4.9001,-4.9001,-4.9001,-4.9001,-4.9001,-4.9001,-4.9001,-4.9001,-4.9001,-4.9001,-4.9001,-4.9001,-4.8984,-4.8731,-4.8646,-4.8578,-4.7834,-4.753,-4.7445,-4.6701,-4.5957,-4.5263,-4.4756,-4.4587,-4.4587,-4.4587,-4.4587,-4.4587,-4.4587,-4.4587,-4.4519,-4.4265,-4.4198,-4.4012,-4.3234,-4.3031,-4.2844,-4.21,-4.1559,-4.1136,-4.0882,-4.0443,-4.007,-4.007,-4.007,-4.007,-4.007,-4.007,-4.007,-4.007,-4.007,-4.007,-4.007,-3.9225,-3.8447,-3.7956,-3.6992,-3.618,-3.5673,-3.5622,-3.5622,-3.5622,-3.5622,-3.5622,-3.5622,-3.5622,-3.5622,-3.5622,-3.5622,-3.5622,-3.5622,-3.5622,-3.5622,-3.5622,-3.5622,-3.5622,-4.007,-4.007,-4.007,-4.007,-4.007,-4.0155,-4.0409,-4.1052,-4.1677,-4.1931,-4.298,-4.3826,-4.3826,-4.4248,-4.4587,-4.4587,-4.4587,-4.4587,-4.4587,-4.4587,-4.4587,-4.4587,-4.4587,-4.4688,0.0,0.0,0.0,-4.6752,-4.7733,-4.8511,-4.8984,-4.9001,-4.9001,-4.9001,-4.9001,-4.9001,-4.9001,-4.9001,-4.9001,-4.9001,-4.9001,-4.9001,-4.9001,-4.9001,-4.9001,-4.9001,-4.9001,-4.9001,-4.9001,-4.9001,-4.9001,-4.8951,-4.8494,-4.8308,-4.8206,-4.7479,-4.6904,-4.6346,-4.5331,-4.4807,-4.4587,-4.4587,-4.4587,-4.4587,-4.4587,-4.4587,-4.4587,-4.4587,-4.4587,-4.4468,-4.3961,-4.3826,-4.3639,-4.2878,-4.2337,-4.1914,-4.1644,-4.1001,-4.0476,-4.0476,-4.0257,-4.007,-4.007,-4.007,-4.007,-4.007,-4.007,-4.007,-4.007,-3.9445,-3.8819,-3.8345,-3.7635,-3.6874,-3.6096,-3.6028,-3.591,-3.5639,-3.5622,-3.5622,-3.5622,-3.5622,-3.5622,-3.5622,-3.5622,-3.5622,-3.5622,-3.5622,-3.5622,-3.5622,-3.5622,-3.5622,-4.007,-4.007,-4.007,-4.007,-4.007,-4.0273,-4.1035,-4.1762,-4.2506,-4.3267,-4.4045,-4.4587,0.0,0.0,-4.4587,-4.4587,-4.4587,-4.4587,-4.4587,-4.4587,-4.4587,0.0,0.0,0.0,0.0,0.0,0.0,-4.6836,0.0,-4.9001,-4.9001,-4.9001,-4.9001,-4.9001,-4.9001,-4.9001,-4.9001,-4.9001,-4.9001,-4.9001,-4.9001,-4.9001,-4.9001,-4.9001,-4.9001,-4.9001,-4.9001,-4.9001,-4.9001,-4.9001,-4.9001,-4.9001,-4.9001,-4.9001,-4.8917,-4.8223,-4.7953,-4.7716,-4.6312,-4.5314,-4.4621,-4.4587,-4.4587,-4.4587,-4.4587,-4.4587,-4.4587,-4.4587,-4.4587,-4.4587,-4.4587,-4.4587,-4.4401,-4.3656,-4.3453,-4.3217,-4.2506,-4.1779,-4.1255,-4.1221,-4.0595,-4.007,-4.007,-4.007,-4.007,-4.007,-4.007,-4.007,-4.007,-3.9478,-3.9039,-3.8988,-3.8379,-3.7652,-3.6907,-3.6806,-3.6468,-3.5723,-3.5639,-3.5622,-3.5622,-3.5622,-3.5622,-3.5622,-3.5622,-3.5622,-3.5622,-3.5622,-3.5622,-3.5622,-3.5622,-3.5622,-4.007,-4.007,-4.007,-4.007,-4.007,-4.0273,-4.1035,-4.1762,-4.2506,-4.3267,-4.4045,-4.4587,0.0,0.0,0.0,-4.4587,-4.4587,0.0,-4.4587,-4.4587,0.0,0.0,0.0,-4.4874,-4.5635,-4.6363,0.0,0.0,-4.8494,-4.9001,-4.9001,-4.9001,-4.9001,-4.9001,-4.9001,-4.9001,-4.9001,-4.9001,-4.9001,-4.9001,-4.9001,-4.9001,-4.9001,-4.9001,-4.9001,-4.9001,-4.9001,-4.9001,-4.9001,-4.9001,-4.9001,-4.9001,-4.9001,-4.9001,-4.8984,-4.8798,-4.8392,-4.7868,-4.7496,-4.6515,-4.5331,-4.4756,-4.4587,-4.4587,-4.4587,-4.4587,-4.4587,-4.4587,-4.4587,-4.4587,-4.4587,-4.4587,-4.4536,-4.4333,-4.3842,-4.3369,-4.3166,-4.254,-4.1863,-4.1322,-4.0595,-4.007,-4.007,-4.007,-4.007,-4.007,-4.007,-4.007,-4.007,-3.9918,-3.9597,-3.9056,-3.8819,-3.8413,-3.7686,-3.711,-3.6688,-3.6502,-3.5943,-3.5622,-3.5622,-3.5622,-3.5622,-3.5622,-3.5622,-3.5622,-3.5622,-3.5622,-3.5622,-3.5622,-3.5622,-3.5622,-4.007,-4.007,-4.007,-4.007,-4.007,-4.0358,-4.1441,-4.1999,-4.2608,-4.3707,-4.4282,0.0,0.0,0.0,0.0,0.0,0.0,0.0,-4.4587,-4.4587,-4.4587,0.0,-4.4587,0.0,-4.5635,-4.6363,-4.7107,0.0,-4.8595,-4.9001,-4.9001,-4.9001,-4.9001,-4.9001,-4.9001,-4.9001,-4.9001,-4.9001,-4.9001,-4.9001,-4.9001,-4.9001,-4.9001,-4.9001,-4.9001,-4.9001,0.0,-4.9001,-4.9001,-4.9001,-4.9001,-4.9001,-4.9001,-4.9001,-4.9001,-4.9001,-4.8748,-4.8359,-4.802,-4.7378,-4.6498,-4.5432,-4.484,-4.4587,-4.4587,-4.4587,-4.4587,-4.4587,-4.4587,-4.4587,-4.4587,-4.4587,-4.4587,-4.4587,-4.4248,-4.3927,-4.3927,-4.3318,-4.2557,-4.183,-4.1085,-4.0578,-4.0578,-4.029,-4.007,-4.007,-4.007,-4.007,-4.007,-4.007,-3.9918,-3.9512,-3.9462,-3.9174,-3.8447,-3.799,-3.7483,-3.6823,-3.6366,-3.5977,-3.5639,-3.5622,-3.5622,-3.5622,-3.5622,-3.5622,-3.5622,-3.5622,-3.5622,-3.5622,-3.5622,-3.5622,-4.007,-4.007,-4.007,-4.007,-4.007,-4.0476,-4.1948,-4.2286,-4.2726,-4.4265,0.0,-4.4587,-4.4587,0.0,-4.4587,-4.4587,0.0,-4.4587,-4.4587,-4.4587,-4.4587,-4.4587,-4.4587,-4.4874,-4.5635,-4.6363,-4.7107,-4.7851,-4.8595,-4.9001,-4.9001,-4.9001,-4.9001,-4.9001,-4.9001,-4.9001,-4.9001,-4.9001,-4.9001,-4.9001,-4.9001,-4.9001,-4.9001,-4.9001,-4.9001,-4.9001,-4.9001,0.0,-4.9001,-4.9001,-4.9001,-4.9001,-4.9001,-4.9001,-4.9001,-4.9001,-4.9001,-4.8917,-4.8291,-4.8003,-4.7682,-4.6194,-4.5263,-4.4705,-4.4604,-4.4587,-4.4587,-4.4587,-4.4587,-4.4587,-4.4587,-4.4587,-4.4587,-4.4587,-4.4587,-4.4587,-4.4587,-4.3961,-4.3217,-4.2574,-4.1847,-4.1322,-4.1221,-4.0663,-4.0189,-4.0087,-4.007,-4.007,-4.007,-4.007,-4.007,-4.007,-4.007,-3.9817,-3.9191,-3.9056,-3.8447,-3.7144,-3.6891,-3.6485,-3.5808,-3.5673,-3.5622,-3.5622,-3.5622,-3.5622,-3.5622,-3.5622,-3.5622,-3.5622,-3.5622,-3.5622,-4.007,-4.007,-4.007,-4.007,-4.007,-4.0476,-4.1948,-4.2286,0.0,0.0,0.0,-4.4587,-4.4587,-4.4587,0.0,-4.4587,0.0,0.0,0.0,0.0,-4.4587,0.0,0.0,0.0,0.0,0.0,0.0,0.0,0.0,-4.9001,-4.9001,-4.9001,-4.9001,-4.9001,-4.9001,-4.9001,-4.9001,-4.9001,-4.9001,-4.9001,-4.9001,-4.9001,-4.9001,-4.9001,-4.9001,-4.9001,-4.9001,0.0,-4.9001,-4.9001,-4.9001,-4.9001,-4.9001,-4.9001,-4.9001,-4.9001,-4.9001,-4.8984,-4.8849,-4.8426,-4.7682,-4.6194,-4.5618,-4.5399,-4.4773,-4.4587,-4.4587,-4.4587,-4.4587,-4.4587,-4.4587,-4.4587,-4.4587,-4.4587,-4.4587,-4.4587,-4.4587,-4.3961,-4.3386,-4.325,-4.2608,-4.1914,-4.1322,-4.1085,-4.0798,-4.0172,-4.007,-4.007,-4.007,-4.007,-4.007,-4.007,-4.007,-4.002,-3.9901,-3.9343,-3.8886,-3.8616,-3.7449,-3.6721,-3.6586,-3.596,-3.5622,-3.5622,-3.5622,-3.5622,-3.5622,-3.5622,-3.5622,-3.5622,-3.5622,-3.5622,-4.007,-4.007,-4.007,-4.007,-4.007,-4.0476,-4.1948,0.0,0.0,0.0,0.0,-4.4587,-4.4587,0.0,0.0,0.0,0.0,0.0,0.0,0.0,0.0,0.0,0.0,0.0,0.0,0.0,0.0,0.0,0.0,-4.9001,-4.9001,-4.9001,-4.9001,-4.9001,-4.9001,-4.9001,-4.9001,-4.9001,-4.9001,-4.9001,-4.9001,-4.9001,-4.9001,-4.9001,-4.9001,-4.9001,-4.9001,0.0,-4.9001,-4.9001,-4.9001,-4.9001,-4.9001,-4.9001,-4.9001,-4.9001,-4.9001,-4.9001,-4.9001,-4.8781,-4.824,-4.6752,-4.6007,-4.5568,-4.4807,-4.4587,-4.4587,-4.4587,-4.4587,-4.4587,-4.4587,-4.4587,-4.4587,-4.4587,-4.4587,-4.4587,-4.4587,-4.4282,-4.4012,-4.4012,-4.3403,-4.276,-4.2422,-4.1711,-4.1085,-4.073,-4.0341,-4.007,-4.007,-4.007,-4.007,-4.007,-4.007,-4.007,-4.007,-3.9766,-3.9394,-3.9005,-3.8328,-3.7753,-3.7381,-3.662,-3.6214,-3.6214,-3.5825,-3.5622,-3.5622,-3.5622,-3.5622,-3.5622,-3.5622,-3.5622,-4.007,-4.007,-4.007,-4.007,-4.007,-4.0426,-4.1745,-4.2185,0.0,0.0,-4.4468,-4.4587,-4.4587,0.0,0.0,0.0,0.0,0.0,0.0,0.0,0.0,0.0,0.0,0.0,0.0,0.0,0.0,0.0,0.0,0.0,-4.9001,-4.9001,-4.9001,-4.9001,-4.9001,-4.9001,-4.9001,-4.9001,-4.9001,-4.9001,-4.9001,-4.9001,-4.9001,-4.9001,-4.9001,-4.9001,-4.9001,0.0,0.0,-4.9001,-4.9001,-4.9001,-4.9001,-4.9001,-4.9001,-4.9001,-4.9001,-4.9001,-4.9001,-4.9001,-4.8765,-4.7276,-4.6413,-4.5771,-4.4857,-4.4587,-4.4587,-4.4587,-4.4587,-4.4587,-4.4587,-4.4587,-4.4587,-4.4587,-4.4587,-4.4587,-4.4587,-4.4587,-4.4587,-4.4587,-4.4079,-4.3606,-4.3453,-4.2455,-4.1576,-4.1255,-4.0696,-4.0257,-4.0104,-4.007,-4.007,-4.007,-4.007,-4.007,-4.007,-4.007,-3.9834,-3.9259,-3.9089,-3.8734,-3.8159,-3.7415,-3.7026,-3.7026,-3.6265,-3.5876,-3.5876,-3.569,-3.5622,-3.5622,-3.5622,-3.5622,-4.007,-4.007,-4.007,-4.007,-4.007,-4.029,-4.1119,0.0,0.0,-4.3352,-4.4079,-4.4587,-4.4587,-4.4587,0.0,0.0,0.0,0.0,0.0,0.0,0.0,0.0,0.0,0.0,0.0,0.0,0.0,0.0,0.0,0.0,-4.9001,-4.9001,-4.9001,-4.9001,-4.9001,-4.9001,-4.9001,-4.9001,-4.9001,-4.9001,-4.9001,-4.9001,-4.9001,-4.9001,-4.9001,-4.9001,-4.9001,0.0,0.0,-4.9001,-4.9001,-4.9001,-4.9001,-4.9001,-4.9001,-4.9001,-4.9001,-4.9001,-4.9001,-4.9001,-4.8765,-4.7276,-4.6735,-4.643,-4.501,-4.4587,-4.4587,-4.4587,-4.4587,-4.4587,-4.4587,-4.4587,-4.4587,-4.4587,-4.4587,-4.4587,-4.4587,-4.4587,-4.4587,-4.4587,-4.4519,-4.4248,-4.3538,-4.3301,-4.276,-4.1407,-4.1136,-4.0849,-4.0172,-4.007,-4.007,-4.007,-4.007,-4.007,-4.007,-4.007,-4.0054,-3.9986,-3.936,-3.8954,-3.8903,-3.8193,-3.7804,-3.7804,-3.706,-3.6671,-3.6671,-3.596,-3.5622,-3.5622,-3.5622,-3.5622,-4.007,-4.007,-4.007,-4.007,-4.007,-4.0273,-4.1035,0.0,0.0,-4.2591,-4.3352,-4.3876,-4.3876,-4.4265,-4.4587,0.0,0.0,0.0,0.0,0.0,0.0,0.0,0.0,0.0,0.0,0.0,0.0,0.0,0.0,0.0,-4.9001,-4.9001,-4.9001,-4.9001,-4.9001,-4.9001,-4.9001,-4.9001,-4.9001,-4.9001,-4.9001,-4.9001,-4.9001,-4.9001,-4.9001,-4.9001,-4.9001,0.0,0.0,-4.9001,-4.9001,-4.9001,-4.9001,-4.9001,-4.9001,-4.9001,-4.9001,-4.9001,-4.9001,-4.8714,-4.8189,-4.7141,-4.6498,-4.594,-4.4891,-4.4587,-4.4587,-4.4587,-4.4587,-4.4587,-4.4587,-4.4587,-4.4587,-4.4587,-4.4587,-4.4587,-4.4587,-4.4587,-4.4587,-4.4587,-4.4587,-4.4485,-4.4181,-4.3724,-4.3064,-4.2016,-4.1491,-4.0933,-4.0172,-4.007,-4.007,-4.007,-4.007,-4.007,-4.007,-4.007,-4.007,-4.007,-3.98,-3.9648,-3.9648,-3.8937,-3.8565,-3.8565,-3.7838,-3.7449,-3.7449,-3.7144,-3.6992,-3.6992,-3.6535,-3.6315,-4.007,-4.007,-4.007,-4.007,-4.007,-4.0223,0.0,0.0,0.0,-4.1863,-4.2557,-4.3149,-4.3369,-4.3859,-4.4316,-4.4536,0.0,0.0,0.0,0.0,0.0,0.0,0.0,0.0,0.0,0.0,0.0,0.0,0.0,0.0,-4.9001,-4.9001,-4.9001,-4.9001,-4.9001,-4.9001,-4.9001,-4.9001,-4.9001,-4.9001,-4.9001,-4.9001,-4.9001,-4.9001,-4.9001,-4.9001,-4.9001,0.0,0.0,-4.9001,-4.9001,-4.9001,-4.9001,-4.9001,-4.9001,-4.9001,-4.9001,-4.9001,-4.9001,-4.8528,-4.78,-4.7039,-4.6295,-4.5568,-4.4807,-4.4587,-4.4587,-4.4587,-4.4587,-4.4587,-4.4587,-4.4587,-4.4587,-4.4587,-4.4587,-4.4587,-4.4587,-4.4587,-4.4587,-4.4587,-4.4587,-4.4587,-4.4587,-4.413,-4.3504,-4.2743,-4.1999,-4.1255,-4.051,-4.0206,-4.007,-4.007,-4.007,-4.007,-4.007,-4.007,-4.007,-4.007,-4.007,-4.007,-4.007,-3.958,-3.9326,-3.9326,-3.8599,-3.8227,-3.8227,-3.8024,-3.7905,-3.7889,-3.7364,-3.711,-4.007,-4.007,-4.007,-4.007,-4.007,-4.007,0.0,0.0,-4.1204,-4.1221,-4.1796,-4.2523,-4.3284,-4.342,-4.3673,-4.4451,-4.4587,0.0,0.0,0.0,0.0,0.0,0.0,0.0,0.0,0.0,0.0,0.0,0.0,0.0,-4.9001,-4.9001,-4.9001,-4.9001,-4.9001,-4.9001,-4.9001,-4.9001,-4.9001,-4.9001,-4.9001,-4.9001,-4.9001,-4.9001,-4.9001,0.0,0.0,0.0,0.0,-4.9001,-4.9001,-4.9001,-4.9001,-4.9001,-4.9001,-4.9001,-4.9001,-4.9001,-4.9001,-4.8528,-4.78,-4.7039,-4.6295,-4.5568,-4.4807,-4.4587,-4.4587,-4.4587,-4.4587,-4.4587,-4.4587,-4.4587,-4.4587,-4.4587,-4.4587,-4.4587,-4.4587,-4.4587,-4.4587,-4.4587,-4.4587,-4.4587,-4.4587,-4.457,-4.4299,-4.3521,-4.276,-4.2016,-4.1288,-4.0544,-4.007,-4.007,-4.007,-4.007,-4.007,-4.007,-4.007,-4.007,-4.007,-4.007,-4.007,-4.007,-4.007,-4.007,-3.9343,-3.8988,-3.8988,-3.8261,-3.7905,-3.7905,-3.7889,-3.7889,-3.9935,-4.007,-4.007,-4.007,-4.007,-4.007,-4.007,0.0,-4.0443,-4.0443,-4.1018,-4.1627,-4.1863,-4.232,-4.2895,-4.3673,-4.3792,0.0,0.0,0.0,0.0,0.0,0.0,0.0,0.0,0.0,0.0,0.0,0.0,0.0,-4.9001,-4.9001,-4.9001,-4.9001,-4.9001,-4.9001,-4.9001,-4.9001,-4.9001,-4.9001,-4.9001,-4.9001,-4.9001,-4.9001,-4.9001,0.0,0.0,0.0,0.0,-4.9001,-4.9001,-4.9001,-4.9001,-4.9001,-4.9001,-4.9001,-4.9001,-4.8934,-4.8443,-4.7784,-4.7022,-4.6295,-4.5551,-4.4891,-4.4654,-4.4587,-4.4587,-4.4587,-4.4587,-4.4587,-4.4587,-4.4587,-4.4587,-4.4587,-4.4587,-4.4587,-4.4587,-4.4587,-4.4587,-4.4587,-4.4587,-4.4587,-4.4587,-4.4587,-4.4316,-4.3538,-4.2777,-4.2016,-4.1288,-4.0544,-4.007,-4.007,-4.007,-4.007,-4.007,-4.007,-4.007,-4.007,-4.007,-4.007,-4.007,-4.007,-4.007,-4.007,-3.9851,-3.9732,-3.9732,-3.9512,-3.914,-3.865,-3.865,-3.8379,0.0,-4.007,-4.007,-4.007,-4.007,0.0,0.0,0.0,-4.007,-4.007,-4.046,-4.0865,-4.1153,-4.1576,-4.2134,-4.2878,-4.3234,0.0,0.0,0.0,0.0,0.0,0.0,0.0,0.0,0.0,0.0,0.0,0.0,0.0,-4.8984,-4.9001,-4.9001,-4.9001,-4.9001,-4.9001,-4.9001,-4.9001,-4.9001,-4.9001,-4.9001,-4.9001,-4.9001,-4.9001,-4.9001,0.0,0.0,0.0,0.0,-4.9001,-4.9001,-4.9001,-4.9001,-4.9001,-4.9001,-4.9001,-4.8832,-4.8528,-4.8071,-4.7242,-4.6312,-4.5855,-4.5196,-4.4587,-4.4587,-4.4587,-4.4587,-4.4587,-4.4587,-4.4587,-4.4587,-4.4587,-4.4587,-4.4587,-4.4587,-4.4587,-4.4587,-4.4587,-4.4587,-4.4587,-4.4587,-4.4587,-4.4587,-4.4587,-4.4418,-4.3927,-4.2963,-4.2117,-4.1677,-4.0713,-4.007,-4.007,-4.007,-4.007,-4.007,-4.007,-4.007,-4.007,-4.007,-4.007,-4.007,-4.007,-4.007,-4.007,-4.007,-4.007,-4.007,-4.007,-3.9834,-3.9411,-3.9411,-3.9157,0.0,0.0,0.0,0.0,0.0,0.0,0.0,0.0,0.0,-4.007,-4.007,-4.029,-4.1001,-4.1119,-4.1356,-4.21,0.0,0.0,0.0,0.0,0.0,0.0,0.0,0.0,0.0,0.0,0.0,0.0,0.0,0.0,-4.89,-4.8968,-4.9001,-4.9001,-4.9001,-4.9001,-4.9001,-4.9001,-4.9001,-4.9001,-4.9001,-4.9001,-4.9001,-4.9001,-4.9001,0.0,0.0,0.0,0.0,-4.9001,-4.9001,-4.9001,-4.9001,-4.8968,-4.8934,-4.8934,-4.846,-4.7834,-4.7784,-4.687,-4.5703,-4.5652,-4.5162,-4.4587,-4.4587,-4.4587,-4.4587,-4.4587,-4.4587,-4.4587,-4.4587,-4.4587,-4.4587,-4.4587,-4.4587,-4.4587,-4.4587,-4.4587,-4.4587,-4.4587,-4.4587,-4.4587,-4.4587,-4.4587,-4.4587,-4.4587,-4.3267,-4.2286,-4.2286,-4.1001,-4.007,-4.007,-4.007,-4.007,-4.007,-4.007,-4.007,-4.007,-4.007,-4.007,-4.007,-4.007,-4.007,-4.007,-4.007,-4.007,-4.007,-4.007,-4.007,-4.007,-4.007,-4.007,-3.8853,0.0,-4.007,-4.007,-4.007,0.0,0.0,0.0,0.0,0.0,0.0,0.0,0.0,0.0,0.0,0.0,0.0,0.0,0.0,0.0,0.0,0.0,0.0,0.0,0.0,0.0,0.0,0.0,0.0,-4.8003,-4.8173,-4.8697,-4.9001,-4.9001,-4.9001,-4.9001,-4.9001,-4.9001,-4.9001,-4.9001,-4.9001,-4.9001,-4.9001,-4.9001,-4.9001,0.0,0.0,0.0,-4.9001,-4.9001,-4.9001,-4.9001,-4.9001,-4.8663,-4.8173,-4.8173,-4.7699,-4.6972,-4.6413,-4.5991,-4.5618,-4.5026,-4.4722,-4.4587,-4.4587,-4.4587,-4.4587,-4.4587,-4.4587,-4.4587,-4.4587,-4.4587,-4.4587,-4.4587,-4.4587,-4.4587,-4.4587,-4.4587,-4.4587,-4.4587,-4.4587,-4.4587,-4.4587,-4.4587,-4.4587,-4.4587,-4.3267,-4.2286,-4.2286,-4.1001,-4.007,-4.007,-4.007,-4.007,-4.007,-4.007,-4.007,-4.007,-4.007,-4.007,-4.007,-4.007,-4.007,-4.007,-4.007,-4.007,-4.007,-4.007,-4.007,-4.007,-4.007,-4.007,-3.7753,-3.8768,-3.9665,-4.0003,-4.007,-4.007,0.0,0.0,0.0,0.0,0.0,0.0,0.0,0.0,0.0,0.0,0.0,0.0,0.0,0.0,0.0,0.0,0.0,0.0,0.0,0.0,0.0,0.0,0.0,-4.7208,-4.7885,-4.8291,-4.8663,-4.8984,-4.9001,-4.9001,-4.9001,-4.9001,-4.9001,-4.9001,-4.9001,-4.9001,-4.9001,-4.9001,-4.9001,0.0,0.0,0.0,-4.9001,-4.9001,-4.8798,-4.8511,-4.8511,-4.8054,-4.7411,-4.7411,-4.6938,-4.6244,-4.5838,-4.5483,-4.5128,-4.4705,-4.4587,-4.4587,-4.4587,-4.4587,-4.4587,-4.4587,-4.4587,-4.4587,-4.4587,-4.4587,-4.4587,-4.4587,-4.4587,-4.4587,-4.4587,-4.4587,-4.4587,-4.4587,-4.4587,-4.4587,-4.4587,-4.4587,-4.4451,-4.4096,-4.3047,-4.2168,-4.183,-4.0781,-4.007,-4.007,-4.007,-4.007,-4.007,-4.007,-4.007,-4.007,-4.007,-4.007,-4.007,-4.007,-4.007,-4.007,-4.007,-4.007,-4.007,-4.007,-4.007,-4.007,-4.007,-4.007,-3.6755,-3.7702,-3.8853,-3.9698,-4.0003,-4.007,0.0,0.0,0.0,0.0,0.0,0.0,0.0,0.0,0.0,0.0,0.0,0.0,0.0,0.0,0.0,0.0,0.0,0.0,0.0,0.0,0.0,0.0,0.0,-4.6261,-4.7513,-4.7682,-4.8037,-4.8646,-4.8781,-4.8832,-4.8832,-4.8951,-4.9001,-4.9001,-4.9001,-4.9001,-4.9001,-4.9001,-4.9001,-4.9001,0.0,0.0,-4.8832,-4.8832,-4.8409,-4.775,-4.775,-4.7293,-4.6616,-4.6616,-4.616,-4.5534,-4.5534,-4.5111,-4.4587,-4.4587,-4.4587,-4.4587,-4.4587,-4.4587,-4.4587,-4.4587,-4.4587,-4.4587,-4.4587,-4.4587,-4.4587,-4.4587,-4.4587,-4.4587,-4.4587,-4.4587,-4.4587,-4.4587,-4.4587,-4.4587,-4.4587,-4.4587,-4.4316,-4.3538,-4.2777,-4.2016,-4.1288,-4.0544,-4.007,-4.007,-4.007,-4.007,-4.007,-4.007,-4.007,-4.007,-4.007,-4.007,-4.007,-4.007,-4.007,-4.007,-4.007,-4.007,-4.007,-4.007,-4.007,-4.007,-4.007,-4.007,-3.6603,-3.6958,-3.7449,-3.8819,-3.9631,-4.007,-4.007,0.0,0.0,0.0,0.0,0.0,0.0,0.0,0.0,0.0,0.0,0.0,0.0,0.0,0.0,0.0,0.0,0.0,0.0,0.0,0.0,0.0,0.0,-4.5805,-4.6041,-4.6633,-4.7022,-4.7124,-4.775,-4.8088,-4.8088,-4.8697,-4.9001,-4.9001,-4.9001,-4.9001,-4.9001,-4.9001,-4.9001,-4.9001,0.0,-4.8663,-4.8088,-4.8088,-4.7631,-4.6972,-4.6972,-4.6515,-4.5872,-4.5872,-4.5399,-4.4756,-4.4756,-4.4671,-4.4587,-4.4587,-4.4587,-4.4587,-4.4587,-4.4587,-4.4587,-4.4587,-4.4587,-4.4587,-4.4587,-4.4587,-4.4587,-4.4587,-4.4587,-4.4587,-4.4587,-4.4587,-4.4587,-4.4587,-4.4587,-4.4587,-4.4587,-4.4587,-4.4316,-4.3538,-4.2777,-4.2016,-4.1288,-4.0544,-4.007,-4.007,-4.007,-4.007,-4.007,-4.007,-4.007,-4.007,-4.007,-4.007,-4.007,-4.007,-4.007,-4.007,-4.007,-4.007,-4.007,-4.007,-4.007,-4.007,-4.007,-4.007,-3.6062,-3.6451,-3.7043,-3.8142,-3.8954,-3.9597,-3.9986,0.0,0.0,0.0,0.0,0.0,0.0,0.0,0.0,0.0,0.0,0.0,0.0,0.0,0.0,0.0,0.0,0.0,0.0,0.0,0.0,0.0,0.0,0.0,-4.5686,-4.6024,-4.6397,-4.6786,-4.7124,-4.731,-4.731,-4.7648,-4.8206,-4.9001,-4.9001,-4.8798,-4.8426,-4.8426,-4.8189,-4.78,0.0,-4.7614,-4.731,-4.731,-4.687,-4.621,-4.621,-4.5754,-4.5094,-4.5094,-4.4874,-4.4587,-4.4587,-4.4587,-4.4587,-4.4587,-4.4587,-4.4587,-4.4587,-4.4587,-4.4587,-4.4587,-4.4587,-4.4587,-4.4587,-4.4587,-4.4587,-4.4587,-4.4587,-4.4587,-4.4587,-4.4587,-4.4587,-4.4587,-4.4587,-4.4587,-4.4587,-4.4587,-4.4304,-4.3393,-4.2712,-4.188,-4.0747,-4.029,-4.007,-4.007,-4.007,-4.007,-4.007,-4.007,-4.007,-4.007,-4.007,-4.007,-4.007,-4.007,-4.007,-4.007,-4.007,-4.007,-4.007,-4.007,-4.007,-4.007,-4.007,-4.007,-3.5622,-3.6045,-3.6688,-3.7449,0.0,-3.9191,-3.9918,0.0,0.0,0.0,0.0,0.0,0.0,0.0,0.0,0.0,0.0,0.0,0.0,0.0,0.0,0.0,0.0,0.0,0.0,0.0,0.0,0.0,0.0,0.0,-4.5415,-4.5449,-4.5703,-4.6261,-4.6447,-4.6532,-4.6532,-4.6701,-4.7361,-4.8477,-4.8477,-4.8189,-4.7648,-4.7648,-4.7344,-4.6786,-4.6786,-4.6701,-4.6532,-4.6532,-4.6109,-4.5449,-4.5449,-4.5094,-4.4587,-4.4587,-4.4587,-4.4587,-4.4587,-4.4587,-4.4587,-4.4587,-4.4587,-4.4587,-4.4587,-4.4587,-4.4587,-4.4587,-4.4587,-4.4587,-4.4587,-4.4587,-4.4587,-4.4587,-4.4587,-4.4587,-4.4587,-4.4587,-4.4587,-4.4587,-4.4587,-4.4587,-4.4587,-4.4401,-4.4067,-4.3537,-4.263,-4.1559,-4.0257,-4.007,-4.007,-4.007,-4.007,-4.007,-4.007,-4.007,-4.007,-4.007,-4.007,-4.007,-4.007,-4.007,-4.007,-4.007,-4.007,-4.007,-4.007,-4.007,-4.007,-4.007,-4.007,-4.007,-3.5622,-3.5656,-3.5893,-3.6671,0.0,0.0,-3.9918,-4.007,0.0,0.0,0.0,0.0,0.0,0.0,0.0,0.0,0.0,0.0,0.0,0.0,0.0,0.0,0.0,0.0,0.0,0.0,0.0,0.0,0.0,0.0,-4.4654,-4.4654,-4.4671,-4.4739,-4.5415,-4.5788,-4.5788,-4.6447,-4.6836,-4.6955,-4.6955,-4.6921,-4.687,-4.687,-4.6836,-4.6786,-4.6786,-4.6413,-4.5788,-4.5788,-4.5331,-4.4654,-4.4654,-4.4621,-4.4587,-4.4587,-4.4587,-4.4587,-4.4587,-4.4587,-4.4587,-4.4587,-4.4587,-4.4587,-4.4587,-4.4587,-4.4587,-4.4587,-4.4587,-4.4587,-4.4587,-4.4587,-4.4587,-4.4587,-4.4587,-4.4587,-4.4587,-4.4587,-4.4587,-4.4587,-4.4587,-4.4587,-4.4587,-4.3804,-4.3491,-4.4365,-4.2634,-4.0984,-4.0172,-4.007,-4.007,-4.007,-4.007,-4.007,-4.007,-4.007,-4.007,-4.007,-4.007,-4.007,-4.007,-4.007,-4.007,-4.007,-4.007,-4.007,-4.007,-4.007,-4.007,-4.007,-4.007,-4.007,-3.5622,-3.5622,-3.5808,-3.6586,0.0,0.0,0.0,0.0,0.0,0.0,0.0,0.0,0.0,0.0,0.0,0.0,0.0,0.0,0.0,0.0,0.0,0.0,0.0,0.0,0.0,0.0,0.0,0.0,0.0,0.0,-4.4587,-4.4587,-4.4587,-4.4587,-4.4857,-4.501,-4.501,-4.528,-4.5415,-4.5432,-4.6346,-4.6549,-4.6126,-4.6126,-4.5872,-4.5415,-4.5415,-4.5263,-4.501,-4.501,-4.484,-4.4587,-4.4587,-4.4587,-4.4587,-4.4587,-4.4587,-4.4587,-4.4587,-4.4587,-4.4587,-4.4587,-4.4587,-4.4587,-4.4587,-4.4587,-4.4587,-4.4587,-4.4587,-4.4587,-4.4587,-4.4587,-4.4587,-4.4587,-4.4587,-4.4587,-4.4587,-4.4587,-4.4587,-4.4587,-4.4587,-4.4592,-4.4601,-4.4296,-4.3529,-4.2035,-4.1594,-4.112,-4.0239,-4.007,-4.007,-4.007,-4.007,-4.007,-4.007,-4.007,-4.007,-4.007,-4.007,-4.007,-4.007,-4.007,-4.007,-4.007,-4.007,-4.007,-4.007,-4.007,-4.007,-4.007,-4.007,-4.007,-3.5622,-3.5622,-3.574,0.0,0.0,0.0,0.0,0.0,0.0,0.0,0.0,0.0,0.0,0.0,0.0,0.0,0.0,0.0,0.0,0.0,0.0,0.0,0.0,0.0,0.0,0.0,0.0,0.0,0.0,0.0,0.0,-4.4587,-4.4587,-4.4587,-4.4587,-4.4587,-4.4587,-4.4587,-4.4587,-4.4587,-4.5602,-4.5838,-4.5348,-4.5348,-4.506,-4.4587,-4.4587,-4.4587,-4.4587,-4.4587,-4.4587,-4.4587,-4.4587,-4.4587,-4.4587,-4.4587,-4.4587,-4.4587,-4.4587,-4.4587,-4.4587,-4.4587,-4.4587,-4.4587,-4.4587,-4.4587,-4.4587,-4.4587,-4.4587,-4.4587,-4.4587,-4.4587,-4.4587,-4.4587,-4.4587,-4.4587,-4.4587,-4.4587,-4.4587,-4.4587,-4.4592,-4.4618,-4.4627,-4.3786,-4.2472,-4.0404,-4.0713,-4.0866,-4.0206,-4.007,-4.007,-4.007,-4.007,-4.007,-4.007,-4.007,-4.007,-4.007,-4.007,-4.007,-4.007,-4.007,-4.007,-4.007,-4.007,-4.007,-4.007,-4.007,-4.007,-4.007,-4.007,-4.007,-3.5622,-3.5622,0.0,0.0,0.0,0.0,0.0,0.0,0.0,0.0,0.0,0.0,0.0,0.0,0.0,0.0,0.0,0.0,0.0,0.0,0.0,0.0,0.0,0.0,0.0,0.0,0.0,0.0,0.0,0.0,0.0,-4.4587,-4.4587,-4.4587,-4.4587,-4.4587,-4.4587,-4.4587,-4.4587,-4.4587,-4.4587,-4.4587,-4.4587,-4.4587,-4.4587,-4.4587,-4.4587,-4.4587,-4.4587,-4.4587,-4.4587,-4.4587,-4.4587,-4.4587,-4.4587,-4.4587,-4.4587,-4.4587,-4.4587,-4.4587,-4.4587,-4.4587,-4.4587,-4.4587,-4.4587,-4.4587,-4.4587,-4.4587,-4.4587,-4.4587,-4.4587,-4.4587,-4.4587,-4.4587,-4.4587,-4.4587,-4.4587,-4.4587,-4.4587,-4.4587,-4.4601,-4.4593,-4.4558,-4.2064,-4.0083,-4.0118,-4.0104,-4.007,-4.007,-4.007,-4.007,-4.007,-4.007,-4.007,-4.007,-4.007,-4.007,-4.007,-4.007,-4.007,-4.007,-4.007,-4.007,-4.007,-4.007,-4.007,-4.007,-4.007,-4.007,-4.007,-4.007,-4.007,-3.5622,0.0,0.0,0.0,0.0,0.0,0.0,0.0,0.0,0.0,0.0,0.0,0.0,0.0,0.0,0.0,0.0,0.0,0.0,0.0,0.0,0.0,0.0,0.0,0.0,0.0,0.0,0.0,0.0,0.0,0.0,-4.4587,-4.4587,-4.4587,-4.4587,-4.4587,-4.4587,-4.4587,-4.4587,-4.4587,-4.4587,-4.4587,-4.4587,-4.4587,-4.4587,-4.4587,-4.4587,-4.4587,-4.4587,-4.4587,-4.4587,-4.4587,-4.4587,-4.4587,-4.4587,-4.4587,-4.4587,-4.4587,-4.4587,-4.4587,-4.4587,-4.4587,-4.4587,-4.4587,-4.4587,-4.4587,-4.4587,-4.4587,-4.4587,-4.4587,-4.4587,-4.4587,-4.4587,-4.4587,-4.4587,-4.4587,-4.4587,-4.4587,-4.4592,-4.4584,-4.4572,-4.396,-4.1811,-4.0692,-4.0085,-4.0087,-4.0121,-4.007,-4.007,-4.007,-4.007,-4.007,-4.007,-4.007,-4.007,-4.007,-4.007,-4.007,-4.007,-4.007,-4.007,-4.007,-4.007,-4.007,-4.007,-4.007,-4.007,-4.007,-4.007,-4.007,-4.007,-4.007,-3.5622,0.0,0.0,0.0,0.0,0.0,0.0,0.0,0.0,0.0,0.0,0.0,0.0,0.0,0.0,0.0,0.0,0.0,0.0,0.0,0.0,0.0,0.0,0.0,0.0,0.0,0.0,0.0,0.0,0.0,0.0,-4.4587,-4.4587,-4.4587,-4.4587,-4.4587,-4.4587,-4.4587,-4.4587,-4.4587,-4.4587,-4.4587,-4.4587,-4.4587,-4.4587,-4.4587,-4.4587,-4.4587,-4.4587,-4.4587,-4.4587,-4.4587,-4.4587,-4.4587,-4.4587,-4.4587,-4.4587,-4.4587,-4.4587,-4.4587,-4.4587,-4.4587,-4.4587,-4.4587,-4.4587,-4.4587,-4.4587,-4.4587,-4.4587,-4.4587,-4.4587,-4.4587,-4.4587,-4.4587,-4.4587,-4.4609,-4.4597,-4.458,-4.4584,-4.4633,-4.3637,-4.2252,-4.0404,-4.012,-4.0121,-4.0087,-4.007,-4.007,-4.007,-4.007,-4.007,-4.007,-4.007,-4.007,-4.007,-4.007,-4.007,-4.007,-4.007,-4.007,-4.007,-4.007,-4.007,-4.007,-4.007,-4.007,-4.007,-4.007,-4.007,-4.007,-4.007,-4.007,0.0,0.0,0.0,0.0,0.0,0.0,0.0,0.0,0.0,0.0,0.0,0.0,0.0,0.0,0.0,0.0,0.0,0.0,0.0,0.0,0.0,0.0,0.0,0.0,0.0,0.0,0.0,0.0,0.0,0.0,0.0,-4.4536,-4.4587,-4.4587,-4.4587,-4.4587,-4.4587,-4.4587,-4.4587,-4.4587,-4.4587,-4.4587,-4.4587,-4.4587,-4.4587,-4.4587,-4.4587,-4.4587,-4.4587,-4.4587,-4.4587,-4.4587,-4.4587,-4.4587,-4.4587,-4.4587,-4.4587,-4.4587,-4.4587,-4.4587,-4.4587,-4.4587,-4.4587,-4.4587,-4.4587,-4.4587,-4.4587,-4.4587,-4.4626,-4.4609,-4.4609,-4.4592,-4.4575,-4.4575,-4.4592,-4.4614,-4.461,-4.4405,-4.4201,-4.4175,-4.2002,-4.0118,-4.0101,-4.0104,-4.007,-4.007,-4.007,-4.007,-4.007,-4.007,-4.007,-4.007,-4.007,-4.007,-4.007,-4.007,-4.007,-4.007,-4.007,-4.007,-4.007,-4.007,-4.007,-4.007,-4.007,-4.007,-4.007,-4.007,-4.007,-4.007,-4.007,-4.007,0.0,0.0,0.0,0.0,0.0,0.0,0.0,0.0,0.0,0.0,0.0,0.0,0.0,0.0,0.0,0.0,0.0,0.0,0.0,0.0,0.0,0.0,0.0,0.0,0.0,0.0,0.0,0.0,0.0,0.0,-4.3673,-4.4248,-4.4587,-4.4587,-4.4587,-4.4587,-4.4587,-4.4587,-4.4587,0.0,-4.4587,-4.4587,-4.4587,-4.4587,-4.4587,-4.4587,-4.4587,-4.4587,-4.4587,-4.4587,-4.4587,-4.4587,-4.4587,-4.4587,-4.4587,-4.4587,-4.4587,-4.4587,-4.4587,-4.4587,-4.4587,-4.4587,-4.4587,-4.4587,-4.4587,-4.4587,-4.4587,-4.4587,-4.4597,-4.4606,-4.4606,-4.4596,-4.4585,-4.4585,-4.4596,-4.4593,-4.4622,-4.2746,-4.1073,-4.11,-4.0523,-4.0068,-4.0121,-4.0104,-4.007,-4.007,-4.007,-4.007,-4.007,-4.007,-4.007,-4.007,-4.007,-4.007,-4.007,-4.007,-4.007,-4.007,-4.007,-4.007,-4.007,-4.007,-4.007,-4.007,-4.007,-4.007,-4.007,-4.007,-4.007,-4.007,-4.007,-4.007,0.0,0.0,0.0,0.0,0.0,0.0,0.0,0.0,0.0,0.0,0.0,0.0,0.0,0.0,0.0,0.0,0.0,0.0,0.0,0.0,0.0,0.0,0.0,0.0,0.0,0.0,0.0,0.0,0.0,-4.2963,-4.3257,-4.3647,-4.4109,-4.4575,-4.4593,-4.4593,-4.4593,-4.4593,-4.4593,-4.4593,-4.4593,-4.4593,-4.4593,-4.4614,-4.4587,-4.4587,-4.4587,-4.4587,-4.4587,-4.4587,-4.4587,-4.4587,-4.4587,-4.4587,-4.4587,-4.4587,-4.4587,-4.4587,-4.4587,-4.4587,-4.4587,-4.4587,-4.4587,-4.4609,-4.4597,-4.4618,-4.4601,-4.461,-4.4579,-4.4255,-4.2844,-4.2436,-4.2441,-4.2462,-4.2422,-4.2453,-4.2426,-4.1199,-4.0098,-4.012,-4.0087,-4.0104,-4.0087,-4.007,-4.007,-4.007,-4.007,-4.007,-4.007,-4.007,-4.007,-4.007,-4.007,-4.007,-4.007,-4.007,-4.007,-4.007,-4.007,-4.007,-4.007,-4.007,-4.007,-4.007,-4.007,-4.007,-4.007,-4.007,-4.007,-4.007,-4.007,-4.007,0.0,0.0,0.0,0.0,0.0,0.0,0.0,0.0,0.0,0.0,0.0,0.0,0.0,0.0,0.0,0.0,0.0,0.0,0.0,0.0,0.0,0.0,0.0,0.0,0.0,0.0,0.0,0.0,0.0,-4.2306,-4.2562,-4.2819,-4.335,-4.4194,-4.4211,-4.4211,-4.4211,-4.447,-4.4626,-4.4555,-4.4055,-4.3814,-4.3814,-4.3813,-4.4113,-4.4597,-4.4597,-4.4597,-4.4597,-4.4597,-4.4597,-4.4597,-4.4597,-4.4597,-4.4597,-4.4597,-4.4597,-4.4597,-4.4597,-4.4597,-4.4597,-4.4597,-4.4597,-4.4618,-4.4593,-4.4215,-4.382,-4.3812,-4.385,-4.3231,-4.0771,-4.011,-4.0096,-4.0101,-4.0081,-4.0096,-4.0101,-4.0068,-4.012,-4.0104,-4.007,-4.007,-4.007,-4.007,-4.007,-4.007,-4.007,-4.007,-4.007,-4.007,-4.007,-4.007,-4.007,-4.007,-4.007,-4.007,-4.007,-4.007,-4.007,-4.007,-4.007,-4.007,-4.007,-4.007,-4.007,-4.007,-4.007,-4.007,-4.007,-4.007,-4.007,-4.007,0.0,0.0,0.0,0.0,0.0,0.0,0.0,0.0,0.0,0.0,0.0,0.0,0.0,0.0,0.0,0.0,0.0,0.0,0.0,0.0,0.0,0.0,0.0,0.0,0.0,0.0,0.0,0.0,-4.1188,-4.1339,-4.054,-4.1709,-4.2475,-4.263,-4.263,-4.263,-4.263,-4.3953,-4.4626,-4.4555,-4.198,-4.0682,-4.0682,-4.0679,-4.2129,-4.4588,-4.4588,-4.4588,-4.4588,-4.4588,-4.4588,-4.4588,-4.4588,-4.4588,-4.4588,-4.4588,-4.4588,-4.4588,-4.4588,-4.4588,-4.4588,-4.4588,-4.4588,-4.4588,-4.4624,-4.2782,-4.0715,-4.0682,-4.0723,-4.0591,-4.0184,-4.0086,-4.0104,-4.0121,-4.0088,-4.0104,-4.0121,-4.0121,-4.0104,-4.0087,-4.007,-4.007,-4.007,-4.007,-4.007,-4.007,-4.007,-4.007,-4.007,-4.007,-4.007,-4.007,-4.007,-4.007,-4.007,-4.007,-4.007,-4.007,-4.007,-4.007,-4.007,-4.007,-4.007,-4.007,-4.007,-4.007,-4.007,-4.007,-4.007,-4.007,-4.007,-4.007,0.0,0.0,0.0,0.0,0.0,0.0,0.0,0.0,0.0,0.0,0.0,0.0,0.0,0.0,0.0,0.0,0.0,0.0,0.0,0.0,0.0,0.0,0.0,0.0,0.0,0.0,0.0,0.0,-4.051,-4.0561,-4.0121,-4.0696,-4.1052,-4.1052,-4.1052,-4.1052,-4.1052,-4.1767,-4.2074,-4.2057,-4.0746,-4.012,-4.012,-4.012,-4.0828,-4.2064,-4.2064,-4.2064,-4.2064,-4.2064,-4.2064,-4.2064,-4.2064,-4.2064,-4.2064,-4.2064,-4.2064,-4.2064,-4.2064,-4.2064,-4.2064,-4.2064,-4.2064,-4.2047,-4.2068,-4.1131,-4.0115,-4.0101,-4.012,-4.0104,-4.0104,-4.0088,-4.007,-4.007,-4.007,-4.007,-4.007,-4.007,-4.007,-4.007,-4.007,-4.007,-4.007,-4.007,-4.007,-4.007,-4.007,-4.007,-4.007,-4.007,-4.007,-4.007,-4.007,-4.007,-4.007,-4.007,-4.007,-4.007,-4.007,-4.007,-4.007,-4.007,-4.007,-4.007,-4.007,-4.007,-4.007,-4.007,-4.007,-4.007,-4.007,-4.007,0.0,0.0,0.0,0.0,0.0,0.0,0.0,0.0,0.0,0.0,0.0,0.0,0.0,0.0,0.0,0.0,0.0,0.0,0.0,0.0,0.0,0.0,0.0,0.0,0.0,0.0,0.0,0.0,-4.007,-4.007,-4.007,-4.007,-4.007,-4.007,-4.007,-4.007,-4.007,-4.007,-4.007,-4.007,-4.007,-4.007,-4.007,-4.007,-4.007,-4.0096,-4.0096,-4.0096,-4.0096,-4.0096,-4.0096,-4.0096,-4.0096,-4.0096,-4.0096,-4.0096,-4.0096,-4.0096,-4.0096,-4.0096,-4.0096,-4.0096,-4.0096,-4.0115,-4.0085,-4.0103,-4.012,-4.0121,-4.007,-4.007,-4.007,-4.007,-4.007,-4.007,-4.007,-4.007,-4.007,-4.007,-4.007,-4.007,-4.007,-4.007,-4.007,-4.007,-4.007,-4.007,-4.007,-4.007,-4.007,-4.007,-4.007,-4.007,-4.007,-4.007,-4.007,-4.007,-4.007,-4.007,-4.007,-4.007,-4.007,-4.007,-4.007,-4.007,-4.007,-4.007,-4.007,-4.007,-4.007,-4.007,-4.007,-4.007,0.0,0.0,0.0,0.0,0.0,0.0,0.0,0.0,0.0,0.0,0.0,0.0,0.0,0.0,0.0,0.0,0.0,0.0,0.0,0.0,0.0,0.0,0.0,0.0,0.0,0.0,0.0,0.0,-4.007,-4.007,-4.007,-4.007,-4.007,-4.007,-4.007,-4.007,-4.007,-4.007,-4.007,-4.007,-4.007,-4.007,-4.007,-4.007,-4.0087,-4.0104,-4.0104,-4.0104,-4.0104,-4.0104,-4.0104,-4.0104,-4.0104,-4.0104,-4.0104,-4.0104,-4.0104,-4.0104,-4.0104,-4.0104,-4.0104,-4.0104,-4.0104,-4.0104,-4.0087,-4.0087,-4.0087,-4.0087,-4.007,-4.007,-4.007,-4.007,-4.007,-4.007,-4.007,-4.007,-4.007,-4.007,-4.007,-4.007,-4.007,-4.007,-4.007,-4.007,-4.007,-4.007,-4.007,-4.007,-4.007,-4.007,-4.007,-4.007,-4.007,-4.007,-4.007,-4.007,-4.007,-4.007,-4.007,-4.007,-4.007,-4.007,-4.007,-4.007,-4.007,-4.007,-4.007,-4.007,-4.007,-4.007,-4.007,-4.007,0.0,0.0,0.0,0.0,0.0,0.0,0.0,0.0,0.0,0.0,0.0,0.0,0.0,0.0,0.0,0.0,0.0,0.0,0.0,0.0,0.0,0.0,0.0,0.0,0.0,0.0,0.0,0.0,0.0,-4.0095,-4.0095,-4.0099,-4.0118,-4.0118,-4.012,-4.007,-4.007,-4.007,-4.007,-4.007,-4.007,-4.007,-4.007,-4.007,-4.007,-4.007,-4.007,-4.007,-4.007,-4.007,-4.007,-4.007,-4.007,-4.007,-4.007,-4.007,-4.007,-4.007,-4.007,-4.007,-4.007,-4.007,-4.007,-4.007,-4.007,-4.007,-4.007,-4.007,-4.007,-4.007,-4.007,-4.007,-4.007,-4.007,-4.007,-4.007,-4.007,-4.007,-4.007,-4.007,-4.007,-4.007,-4.007,-4.007,-4.007,-4.007,-4.007,-4.007,-4.007,-4.007,-4.007,-4.007,-4.007,-4.007,-4.007,-4.007,-4.007,-4.007,-4.007,-4.007,-4.007,-4.007,-4.007,-4.007,-4.007,-4.007,-4.007,-4.007,-4.007,-4.007,-4.007,-4.007,0.0,0.0,0.0,0.0,0.0,0.0,0.0,0.0,0.0,0.0,0.0,0.0,0.0,0.0,0.0,0.0,0.0,0.0,0.0,0.0,0.0,0.0,0.0,0.0,0.0,0.0,0.0,0.0,0.0,0.0,-3.8574,-3.858,-3.9035,-4.0061,-4.0099,-4.0101,-4.0101,-4.0101,-4.0085,-4.0086,-4.0086,-4.012,-4.007,-4.007,-4.007,-4.007,-4.007,-4.007,-4.007,-4.007,-4.007,-4.007,-4.007,-4.007,-4.007,-4.007,-4.007,-4.007,-4.007,-4.007,-4.007,-4.007,-4.007,-4.007,-4.007,-4.007,-4.007,-4.007,-4.007,-4.007,-4.007,-4.007,-4.007,-4.007,-4.007,-4.007,-4.007,-4.007,-4.007,-4.007,-4.007,-4.007,-4.007,-4.007,-4.007,-4.007,-4.007,-4.007,-4.007,-4.007,-4.007,-4.007,-4.007,-4.007,-4.007,-4.007,-4.007,-4.007,-4.007,-4.007,-4.007,-4.007,-4.007,-4.007,-4.007,-4.007,-4.007,-4.007,-4.007,-4.007,-4.007,-4.007,0.0,0.0,0.0,0.0,0.0,0.0,0.0,0.0,0.0,0.0,0.0,0.0,0.0,0.0,0.0,0.0,0.0,0.0,0.0,0.0,0.0,0.0,0.0,0.0,0.0,0.0,0.0,0.0,-3.5621,-3.5621,-3.5621,-3.5573,-3.6942,-3.9881,-3.9966,-3.9966,-3.9966,-3.9966,-3.9939,-3.9963,-4.008,-4.0101,-4.0104,-4.0104,-4.0104,-4.0104,-4.0104,-4.0104,-4.0121,-4.0121,-4.007,-4.007,-4.007,-4.007,-4.007,-4.007,-4.007,-4.007,-4.007,-4.007,-4.007,-4.007,-4.007,-4.007,-4.007,-4.007,-4.007,-4.007,-4.007,-4.007,-4.007,-4.007,-4.007,-4.007,-4.007,-4.007,-4.007,-4.007,-4.007,-4.007,-4.007,-4.007,-4.007,-4.007,-4.007,-4.007,-4.007,-4.007,-4.007,-4.007,-4.007,-4.007,-4.007,-4.007,-4.007,-4.007,-4.007,-4.007,-4.007,-4.007,-4.007,-4.007,-4.007,-4.007,-4.007,-4.007,-4.007,-4.007,-4.007,-4.007,-4.007,-4.007,-3.5622,0.0,0.0,0.0,0.0,0.0,0.0,0.0,0.0,0.0,0.0,0.0,0.0,0.0,0.0,0.0,0.0,0.0,0.0,0.0,0.0,0.0,0.0,0.0,0.0,0.0,0.0,0.0,-3.5593,-3.5593,-3.5593,-3.5572,-3.5991,-3.681,-3.6827,-3.6827,-3.6827,-3.6827,-3.686,-3.688,-3.9047,-4.0107,-4.0092,-4.0092,-4.0092,-4.0092,-4.0092,-4.0092,-4.0127,-4.0119,-4.007,-4.007,-4.007,-4.007,-4.007,-4.007,-4.007,-4.007,-4.007,-4.007,-4.007,-4.007,-4.007,-4.007,-4.007,-4.007,-4.007,-4.007,-4.007,-4.007,-4.007,-4.007,-4.007,-4.007,-4.007,-4.007,-4.007,-4.007,-4.007,-4.007,-4.007,-4.007,-4.007,-4.007,-4.007,-4.007,-4.007,-4.007,-4.007,-4.007,-4.007,-4.007,-4.007,-4.007,-4.007,-4.007,-4.007,-4.007,-4.007,-4.007,-4.007,-4.007,-4.007,-4.007,-4.007,-4.007,-4.007,-4.007,-4.007,-4.007,-4.007,-4.007,0.0,0.0,0.0,0.0,0.0,0.0,-3.5622,-3.5622,0.0,0.0,0.0,0.0,0.0,0.0,0.0,0.0,0.0,0.0,0.0,0.0,0.0,0.0,0.0,0.0,0.0,-3.5622,-3.5622,-3.5622,-3.5622,-3.5622,-3.5622,-3.5588,-3.5597,-3.5576,-3.5592,-3.5592,-3.5592,-3.5592,-3.5626,-3.5616,-3.7398,-3.8218,-3.819,-3.819,-3.819,-3.819,-3.819,-3.819,-3.8207,-3.8216,-3.8956,-4.0116,-4.0085,-4.0119,-4.0086,-4.0104,-4.007,-4.007,-4.007,-4.007,-4.007,-4.007,-4.007,-4.007,-4.007,-4.007,-4.007,-4.007,-4.007,-4.0104,-4.0086,-4.012,-4.007,-4.007,-4.007,-4.007,-4.007,-4.007,-4.007,-4.007,-4.007,-4.007,-4.007,-4.007,-4.007,-4.007,-4.007,-4.007,-4.007,-4.007,-4.007,-4.007,-4.007,-4.007,-4.007,-4.007,-4.007,-4.007,-4.007,-4.007,-4.007,-4.007,-4.007,-4.007,-4.007,-4.007,-4.007,-4.007,-4.007,-4.007,-4.007,-4.007,0.0,0.0,0.0,0.0,0.0,0.0,-3.5622,-3.5622,-3.5622,0.0,0.0,0.0,0.0,0.0,0.0,0.0,0.0,0.0,0.0,0.0,0.0,0.0,0.0,0.0,-3.5622,-3.5622,-3.5622,-3.5622,-3.5622,-3.5622,-3.5622,-3.5622,-3.5622,-3.5622,-3.5622,-3.5622,-3.5622,-3.5622,-3.5616,-3.5585,-3.5585,-3.5576,-3.5618,-3.5618,-3.5618,-3.5618,-3.5618,-3.5618,-3.5618,-3.5618,-3.7188,-3.9597,-3.9606,-3.9827,-4.0114,-4.0119,-4.012,-4.012,-4.012,-4.012,-4.012,-4.012,-4.012,-4.012,-4.012,-4.012,-4.0019,-3.9715,-3.9732,-3.9867,-4.0048,-4.0101,-4.012,-4.012,-4.012,-4.012,-4.012,-4.0087,-4.0104,-4.0104,-4.0121,-4.007,-4.007,-4.007,-4.007,-4.007,-4.007,-4.007,-4.007,-4.007,-4.007,-4.007,-4.007,-4.007,-4.007,-4.007,-4.007,-4.007,-4.007,-4.007,-4.007,-4.007,-4.007,-4.007,-4.0003,-3.9952,-3.9952,-4.0037,-4.0037,-3.9952,-3.9952,-3.9918,0.0,0.0,0.0,0.0,0.0,0.0,-3.5622,-3.5622,-3.5622,0.0,0.0,0.0,0.0,0.0,0.0,0.0,0.0,0.0,0.0,0.0,0.0,0.0,0.0,0.0,-3.5622,-3.5622,-3.5622,-3.5622,-3.5622,-3.5622,-3.5622,-3.5622,-3.5622,-3.5622,-3.5622,-3.5622,-3.5622,-3.5622,-3.5594,-3.5583,-3.5583,-3.5599,-3.5588,-3.5588,-3.5588,-3.5588,-3.5588,-3.5588,-3.5588,-3.5588,-3.595,-3.648,-3.6465,-3.7959,-4.012,-4.0107,-4.0107,-4.0107,-4.0107,-4.0107,-4.0107,-4.0107,-4.0107,-4.0107,-4.0107,-4.0107,-3.9569,-3.7163,-3.7379,-3.858,-3.9785,-4.0089,-4.0107,-4.0107,-4.0107,-4.0107,-4.0107,-4.0112,-4.0116,-4.0116,-4.0086,-4.007,-4.007,-4.007,-4.007,-4.007,-4.007,-4.007,-4.007,-4.007,-4.007,-4.007,-4.007,-4.007,-4.007,-4.007,-4.007,-4.007,-4.007,-4.007,-4.007,-4.007,-4.007,-4.007,-3.9512,-3.9208,-3.9208,-3.9783,-3.9766,-3.9208,-3.9208,-3.8886,0.0,0.0,0.0,-3.5622,0.0,0.0,0.0,-3.5622,-3.5622,0.0,0.0,0.0,0.0,0.0,0.0,0.0,0.0,0.0,0.0,0.0,0.0,0.0,0.0,0.0,-3.5622,-3.5622,-3.5622,-3.5622,-3.5622,-3.5622,-3.5622,-3.5622,-3.5622,-3.5622,-3.5622,-3.5622,-3.5622,-3.5622,-3.5622,-3.5622,-3.5622,-3.5622,-3.5622,-3.5622,-3.5622,-3.5622,-3.5622,-3.5622,-3.5622,-3.5622,-3.5605,-3.5589,-3.5596,-3.6535,-3.7878,-3.7838,-3.7872,-3.7872,-3.7872,-3.7872,-3.7872,-3.7872,-3.7872,-3.7872,-3.7872,-3.7872,-3.7523,-3.6011,-3.6706,-3.7872,-3.7848,-3.8969,-4.01,-4.01,-3.8942,-3.7872,-3.7872,-3.7843,-3.8297,-3.9822,-4.0112,-4.0067,-4.0104,-4.007,-4.007,-4.007,-4.007,-4.007,-4.007,-4.007,-4.007,-4.007,-4.007,-4.007,-4.007,-4.007,-4.007,-4.007,-4.007,-4.007,-4.007,-4.007,-3.9918,-3.9546,-3.8819,-3.8447,-3.8447,-3.8819,-3.8802,-3.8447,-3.8447,-3.8261,0.0,0.0,0.0,0.0,0.0,-3.5622,0.0,0.0,0.0,0.0,0.0,0.0,0.0,0.0,0.0,0.0,0.0,0.0,0.0,0.0,0.0,0.0,0.0,0.0,0.0,-3.5622,-3.5622,-3.5622,-3.5622,-3.5622,-3.5622,-3.5622,-3.5622,-3.5622,-3.5622,-3.5622,-3.5622,-3.5622,-3.5622,-3.5622,-3.5622,-3.5622,-3.5622,-3.5622,-3.5622,-3.5622,-3.5622,-3.5622,-3.5622,-3.5622,-3.5622,-3.5594,-3.5593,-3.5597,-3.5585,-3.5613,-3.5616,-3.5616,-3.5616,-3.5616,-3.5616,-3.5616,-3.5616,-3.5616,-3.5616,-3.5616,-3.5582,-3.5602,-3.6481,-3.7165,-3.5929,-3.7407,-3.9234,-3.9234,-3.7351,-3.5616,-3.5616,-3.5602,-3.6296,-3.8738,-3.9225,-3.9433,-4.0,-4.0086,-4.0086,-4.012,-4.007,-4.0087,-4.0121,-4.007,-4.007,-4.007,-4.007,-4.007,-4.007,-3.9952,-3.9868,-3.9868,-3.9732,-3.9665,-3.9665,-3.9665,-3.9394,-3.8802,-3.8058,-3.7702,-3.7702,-3.7533,-3.755,-3.7702,-3.7702,-3.7618,0.0,0.0,0.0,0.0,-3.5622,0.0,0.0,0.0,0.0,-3.5622,0.0,0.0,0.0,0.0,0.0,0.0,0.0,0.0,0.0,0.0,0.0,0.0,0.0,0.0,0.0,-3.5622,-3.5622,-3.5622,-3.5622,-3.5622,-3.5622,-3.5622,-3.5622,-3.5622,-3.5622,-3.5622,-3.5622,-3.5622,-3.5622,-3.5622,-3.5622,-3.5622,-3.5622,-3.5622,-3.5622,-3.5622,-3.5622,-3.5622,-3.5622,-3.5622,-3.5622,-3.5622,-3.5594,-3.5611,-3.5611,-3.5583,-3.5599,-3.5599,-3.5599,-3.5599,-3.5599,-3.5599,-3.5599,-3.5599,-3.5599,-3.5599,-3.5583,-3.5611,-3.5712,-3.5797,-3.5645,-3.5859,-3.6107,-3.6107,-3.5876,-3.5599,-3.5599,-3.558,-3.5719,-3.6064,-3.6125,-3.6975,-3.9665,-4.012,-4.0124,-4.0114,-4.0099,-4.0101,-4.0104,-4.007,-4.007,-4.007,-4.007,-4.007,-4.007,-3.9478,-3.9106,-3.9106,-3.8514,-3.8159,-3.8159,-3.8159,-3.8108,-3.8041,-3.7297,-3.6907,-3.6907,-3.6214,-3.6231,-3.6907,-3.6907,-3.6535,0.0,0.0,0.0,0.0,0.0,0.0,-3.5622,0.0,-3.5622,0.0,0.0,0.0,0.0,0.0,0.0,0.0,-3.5419,0.0,0.0,0.0,0.0,0.0,0.0,0.0,0.0,0.0,0.0,0.0,-3.5622,-3.5622,-3.5622,-3.5622,-3.5622,-3.5622,-3.5622,-3.5622,-3.5622,-3.5622,-3.5622,-3.5622,-3.5622,-3.5622,-3.5622,-3.5622,-3.5622,-3.5622,-3.5622,-3.5622,-3.5622,-3.5622,-3.5622,-3.5622,-3.5622,-3.5622,-3.5622,-3.5622,-3.5622,-3.5622,-3.5622,-3.5622,-3.5622,-3.5622,-3.5622,-3.5622,-3.5622,-3.5622,-3.5622,-3.5622,-3.5622,-3.5622,-3.5622,-3.5622,-3.5622,-3.5622,-3.5622,-3.5622,-3.5622,-3.5583,-3.5588,-3.5588,-3.5609,-3.6026,-3.725,-3.7513,-3.7492,-3.7511,-3.8965,-4.0092,-4.0112,-3.9355,-3.8952,-3.9205,-3.8986,-3.8819,-3.8819,-3.8531,-3.8362,-3.8362,-3.8075,-3.7905,-3.7905,-3.7483,-3.7246,-3.7246,-3.6502,-3.6096,-3.6096,-3.5774,-3.5791,-3.6096,-3.6096,-3.5926,-3.5622,0.0,0.0,0.0,0.0,0.0,0.0,0.0,0.0,0.0,0.0,0.0,0.0,0.0,0.0,0.0,0.0,-3.5554,0.0,0.0,0.0,0.0,0.0,0.0,0.0,0.0,0.0,-3.5622,-3.5622,-3.5622,-3.5622,-3.5622,-3.5622,-3.5622,-3.5622,-3.5622,-3.5622,-3.5622,-3.5622,-3.5622,-3.5622,-3.5622,-3.5622,-3.5622,-3.5622,-3.5622,-3.5622,-3.5622,-3.5622,-3.5622,-3.5622,-3.5622,-3.5622,-3.5622,-3.5622,-3.5622,-3.5622,-3.5622,-3.5622,-3.5622,-3.5622,-3.5622,-3.5622,-3.5622,-3.5622,-3.5622,-3.5622,-3.5622,-3.5622,-3.5622,-3.5622,-3.5622,-3.5622,-3.5622,-3.5622,-3.5622,-3.5622,-3.5622,-3.5622,-3.5622,-3.5622,-3.5622,-3.5622,-3.5614,-3.5582,-3.5585,-3.7452,-3.887,-3.8874,-3.7922,-3.7523,-3.8122,-3.799,-3.7905,-3.7905,-3.7719,-3.7499,-3.7297,-3.728,-3.728,-3.728,-3.6755,-3.6468,-3.6468,-3.591,-3.5622,-3.5622,-3.5622,-3.5622,-3.5622,-3.5622,-3.5622,0.0,0.0,0.0,-3.5622,0.0,0.0,0.0,0.0,-3.5622,0.0,0.0,0.0,0.0,0.0,0.0,0.0,0.0,0.0,0.0,0.0,0.0,0.0,0.0,0.0,0.0,0.0,0.0,-3.5622,-3.5622,-3.5622,-3.5622,-3.5622,-3.5622,-3.5622,-3.5622,-3.5622,-3.5622,-3.5622,-3.5622,-3.5622,-3.5622,-3.5622,-3.5622,-3.5622,-3.5622,-3.5622,-3.5622,-3.5622,-3.5622,-3.5622,-3.5622,-3.5622,-3.5622,-3.5622,-3.5622,-3.5622,-3.5622,-3.5622,-3.5622,-3.5622,-3.5622,-3.5622,-3.5622,-3.5622,-3.5622,-3.5622,-3.5622,-3.5622,-3.5622,-3.5622,-3.5622,-3.5622,-3.5622,-3.5622,-3.5622,-3.5622,-3.5622,-3.5622,-3.5622,-3.5622,-3.5622,-3.5622,-3.5622,-3.5577,-3.5599,-3.5585,-3.5669,-3.5756,-3.5752,-3.5704,-3.6067,-3.7026,-3.759,-3.7905,-3.7905,-3.7246,-3.6502,-3.574,-3.569,-3.569,-3.569,-3.5673,-3.5656,-3.5656,-3.5639,-3.5622,-3.5622,-3.5622,-3.5622,-3.5622,-3.5622,-3.5622,0.0,0.0,-3.5622,-3.5622,0.0,0.0,0.0,0.0,0.0,0.0,0.0,0.0,0.0,0.0,0.0,0.0,0.0,0.0,0.0,0.0,0.0,0.0,0.0,0.0,0.0,0.0,0.0,-3.5622,-3.5622,-3.5622,-3.5622,-3.5622,-3.5622,-3.5622,-3.5622,-3.5622,-3.5622,-3.5622,-3.5622,-3.5622,-3.5622,-3.5622,-3.5622,-3.5622,-3.5622,-3.5622,-3.5622,-3.5622,-3.5622,-3.5622,-3.5622,-3.5622,-3.5622,-3.5622,-3.5622,-3.5622,-3.5622,-3.5622,-3.5622,-3.5622,-3.5622,-3.5622,-3.5622,-3.5622,-3.5622,-3.5622,-3.5622,-3.5622,-3.5622,-3.5622,-3.5622,-3.5622,-3.5622,-3.5622,-3.5622,-3.5622,-3.5622,-3.5622,-3.5622,-3.5622,-3.5622,-3.5622,-3.5622,-3.5622,-3.5594,-3.5616,-3.5616,-3.5605,-3.5626,-3.558,-3.5727,-3.6072,-3.627,-3.64,-3.64,-3.6163,-3.5893,-3.5639,-3.5622,-3.5622,-3.5622,-3.5622,-3.5622,-3.5622,-3.5622,-3.5622,-3.5622,-3.5622,-3.5622,-3.5622,-3.5622,-3.5622,-3.5622,-3.5622,0.0,-3.5622,-3.5622,0.0,-3.5622,0.0,0.0,0.0,0.0,0.0,0.0,0.0,0.0,0.0,0.0,0.0,0.0,-3.5622,0.0,0.0,0.0,0.0,0.0,0.0,-3.5622,-3.5622,-3.5622,-3.5622,0.0,0.0,-3.5622,-3.5622,-3.5622,-3.5622,-3.5622,-3.5622,-3.5622,-3.5622,-3.5622,-3.5622,-3.5622,-3.5622,-3.5622,-3.5622,-3.5622,-3.5622,-3.5622,-3.5622,-3.5622,-3.5622,-3.5622,-3.5622,-3.5622,-3.5622,-3.5622,-3.5622,-3.5622,-3.5622,-3.5622,-3.5622,-3.5622,-3.5622,-3.5622,-3.5622,-3.5723,-3.6288,-3.6022,-3.5594,-3.5616,-3.5583,-3.5622,-3.5622,-3.5622,-3.5622,-3.5622,-3.5622,-3.5622,-3.5622,-3.5622,-3.5622,-3.5622,-3.5622,-3.5622,-3.5622,-3.5622,-3.5622,-3.5622,-3.5622,-3.5622,-3.5622,-3.5622,-3.5622,-3.5622,-3.5622,-3.5622,-3.5622,-3.5622,-3.5622,-3.5622,-3.5622,-3.5622,-3.5622,-3.5622,-3.5622,-3.5622,-3.5622,-3.5622,-3.5622,-3.5622,-3.5622]}]]